[[{"header":{"parameterUnit":"m.s-1","parameterCategory":1,"la1":31.0,"la2":29.5877,"lo1":-88.7671,"lo2":-86.6584,"dy":0.0162,"dx":0.0185,"nx":115,"ny":88,"refTime":"2024-08-30T12:00:00:Z","depth":0,"parameterNumber":2,"parameterNumberName":"U-component_of_WINDS"},"data":[0.0,0.0,0.0,0.0,0.0,0.0,0.0,0.0,0.0,0.0,0.0,0.0,0.0,0.0,0.0,0.0,0.0,0.0,0.0,0.0,0.0,0.0,0.0,0.0,0.0,0.0,0.0,0.0,0.0,0.0,0.0,0.0,0.0,0.0,0.0,0.0,0.0,0.0,0.0,0.0,0.0,0.0,0.0,0.0,0.0,0.0,0.0,0.0,0.0,0.0,0.0,0.0,0.0,0.0,0.0,0.0,0.0,0.0,0.0,0.0,0.0,0.0,0.0,0.0,0.0,0.0,0.0,0.0,0.0,0.0,0.0,0.0,0.0,0.0,0.0,0.0,0.0,0.0,0.0,0.0,0.0,0.0,0.0,0.0,0.0,0.0,0.0,0.0,0.0,0.0,0.0,0.0,0.0,0.0,0.0,0.0,0.0,0.0,0.0,0.0,0.0,0.0,0.0,0.0,0.0,0.0,0.0,0.0,0.0,0.0,0.0,0.0,0.0,0.0,0.0,0.0,0.0,0.0,0.0,0.0,0.0,0.0,0.0,0.0,0.0,0.0,0.0,0.0,0.0,0.0,0.0,0.0,0.0,0.0,0.0,0.0,0.0,0.0,0.0,0.0,0.0,0.0,0.0,0.0,0.0,0.0,0.0,0.0,0.0,0.0,0.0,0.0,0.0,0.0,0.0,0.0,0.0,0.0,0.0,0.0,0.0,0.0,0.0,0.0,0.0,0.0,0.0,0.0,0.0,0.0,0.0,0.0,0.0,0.0,0.0,0.0,0.0,0.0,0.0,0.0,0.0,0.0,0.0,0.0,0.0,0.0,0.0,0.0,0.0,0.0,0.0,0.0,0.0,0.0,0.0,0.0,0.0,0.0,0.0,0.0,0.0,0.0,0.0,0.0,0.0,0.0,0.0,0.0,0.0,0.0,0.0,0.0,0.0,0.0,0.0,0.0,0.0,0.0,0.0,0.0,0.0,0.0,0.0,0.0,0.0,0.0,0.0,0.0,0.0,0.0,0.0,0.0,0.0,0.0,0.0,0.0,0.0,0.0,0.0,0.0,0.0,0.0,0.0,0.0,0.0,0.0,0.0,0.0,0.0,0.0,0.0,0.0,0.0,0.0,0.0,0.0,0.0,0.0,0.0,0.0,0.0,0.0,0.0,0.0,0.0,0.0,0.0,0.0,0.0,0.0,0.0,0.0,0.0,0.0,0.0,0.0,0.0,0.0,0.0,0.0,0.0,0.0,0.0,0.0,0.0,0.0,0.0,0.0,0.0,0.0,0.0,0.0,0.0,0.0,0.0,0.0,0.0,0.0,0.0,0.0,0.0,0.0,0.0,0.0,0.0,0.0,0.0,0.0,0.0,0.0,0.0,0.0,0.0,0.0,0.0,0.0,0.0,0.0,0.0,0.0,0.0,0.0,0.0,0.0,0.0,0.0,0.0,0.0,0.0,0.0,0.0,0.0,0.0,0.0,0.0,0.0,0.0,0.0,0.0,0.0,0.0,0.0,0.0,0.0,0.0,0.0,0.0,0.0,0.0,0.0,0.0,0.0,0.0,0.0,0.0,0.0,0.0,0.0,0.0,0.0,0.0,0.0,0.0,0.0,0.0,0.0,0.0,0.0,0.0,0.0,0.0,0.0,0.0,0.0,0.0,0.0,0.0,0.0,0.0,0.0,0.0,0.0,0.0,0.0,0.0,0.0,0.0,0.0,0.0,0.0,0.0,0.0,0.0,0.0,0.0,0.0,0.0,0.0,0.0,0.0,0.0,0.0,0.0,0.0,0.0,0.0,0.0,0.0,0.0,0.0,0.0,0.0,0.0,0.0,0.0,0.0,0.0,0.0,0.0,0.0,0.0,0.0,0.0,0.0,0.0,0.0,0.0,0.0,0.0,0.0,0.0,0.0,0.0,0.0,0.0,0.0,0.0,0.0,0.0,0.0,0.0,0.0,0.0,0.0,0.0,0.0,0.0,0.0,0.0,0.0,0.0,0.0,0.0,0.0,0.0,0.0,0.0,0.0,0.0,0.0,0.0,0.0,0.0,0.0,0.0,0.0,0.0,0.0,0.0,0.0,0.0,0.0,0.0,0.0,0.0,0.0,0.0,0.0,0.0,0.0,0.0,0.0,0.0,0.0,0.0,0.0,0.0,0.0,0.0,0.0,0.0,0.0,0.0,0.0,0.0,0.0,0.0,0.0,0.0,0.0,0.0,0.0,0.0,0.0,0.0,0.0,0.0,0.0,0.0,0.0,0.0,0.0,0.0,0.0,0.0,0.0,0.0,0.0,0.0,0.0,0.0,0.0,0.0,0.0,0.0,0.0,0.0,0.0,0.0,0.0,0.0,0.0,0.0,0.0,0.0,0.0,0.0,0.0,0.0,0.0,0.0,0.0,0.0,0.0,0.0,0.0,0.0,0.0,0.0,0.0,0.0,0.0,0.0,0.0,0.0,0.0,0.0,0.0,0.0,0.0,0.0,0.0,0.0,0.0,0.0,0.0,0.0,0.0,0.0,0.0,0.0,0.0,0.0,0.0,0.0,0.0,0.0,0.0,0.0,0.0,0.0,0.0,0.0,0.0,0.0,0.0,0.0,0.0,0.0,0.0,0.0,0.0,0.0,0.0,0.0,0.0,0.0,0.0,0.0,0.0,0.0,0.0,0.0,0.0,0.0,0.0,0.0,0.0,0.0,0.0,0.0,0.0,0.0,0.0,0.0,0.0,0.0,0.0,0.0,0.0,0.0,0.0,0.0,0.0,0.0,0.0,0.0,0.0,0.0,0.0,0.0,0.0,0.0,0.0,0.0,0.0,0.0,0.0,0.0,0.0,0.0,0.0,0.0,0.0,0.0,0.0,0.0,0.0,0.0,0.0,0.0,0.0,0.0,0.0,0.0,0.0,0.0,0.0,0.0,0.0,0.0,0.0,0.0,0.0,0.0,0.0,0.0,0.0,0.0,0.0,0.0,0.0,0.0,0.0,0.0,0.0,0.0,0.0,0.0,0.0,0.0,0.0,0.0,0.0,0.0,0.0,0.0,0.0,0.0,0.0,0.0,0.0,0.0,0.0,0.0,0.0,0.0,0.0,0.0,0.0,0.0,0.0,0.0,0.0,0.0,0.0,0.0,0.0,0.0,0.0,0.0,0.0,0.0,0.0,0.0,0.0,0.0,0.0,0.0,0.0,0.0,0.0,0.0,0.0,0.0,0.0,0.0,0.0,0.0,0.0,0.0,0.0,0.0,0.0,0.0,0.0,0.0,0.0,0.0,0.0,0.0,0.0,0.0,0.0,0.0,0.0,0.0,0.0,0.0,0.0,0.0,0.0,0.0,0.0,0.0,0.0,0.0,0.0,0.0,0.0,0.0,0.0,0.0,0.0,0.0,0.0,0.0,0.0,0.0,0.0,0.0,0.0,0.0,0.0,0.0,0.0,0.0,0.0,0.0,0.0,0.0,0.0,0.0,0.0,0.0,0.0,0.0,0.0,0.0,0.0,0.0,0.0,0.0,0.0,0.0,0.0,0.0,0.0,0.0,0.0,0.0,0.0,0.0,0.0,0.0,0.0,0.0,0.0,0.0,0.0,0.0,0.0,0.0,0.0,0.0,0.0,0.0,0.0,0.0,0.0,0.0,0.0,0.0,0.0,0.0,0.0,0.0,0.0,0.0,0.0,0.0,0.0,0.0,0.0,0.0,0.0,0.0,0.0,0.0,0.0,0.0,0.0,0.0,0.0,0.0,0.0,0.0,0.0,0.0,0.0,0.0,0.0,0.0,0.0,0.0,0.0,0.0,0.0,0.0,0.0,0.0,0.0,0.0,0.0,0.0,0.0,0.0,0.0,0.0,0.0,0.0,0.0,0.0,0.0,0.0,0.0,0.0,0.0,0.0,0.0,0.0,0.0,0.0,0.0,0.0,0.0,0.0,0.0,0.0,0.0,0.0,0.0,0.0,0.0,0.0,0.0,0.0,0.0,0.0,0.0,0.0,0.0,0.0,0.0,0.0,0.0,0.0,0.0,0.0,0.0,0.0,0.0,0.0,0.0,0.0,0.0,0.0,0.0,0.0,0.0,0.0,0.0,0.0,0.0,0.0,0.0,0.0,0.0,0.0,0.0,0.0,0.0,0.0,0.0,0.0,0.0,0.0,0.0,0.0,0.0,0.0,0.0,0.0,0.0,0.0,0.0,0.0,0.0,0.0,0.0,0.0,0.0,0.0,0.0,0.0,0.0,0.0,0.0,0.0,0.0,0.0,0.0,0.0,0.0,0.0,0.0,0.1454,0.0,0.0,0.0,0.0,0.0,0.0,0.0,0.0,0.0,0.0,0.0,0.0,0.0,0.0,0.0,0.0,0.0,0.0,0.0,0.0,0.0,0.0,0.0,0.0,0.0,0.0,0.0,0.0,0.0,0.0,0.0,0.0,0.0,0.0,0.0,0.0,0.0,0.0,0.0,0.0,0.0,0.0,0.0,0.0,0.0,0.0,0.0,0.0,0.0,0.0,0.0,0.0,0.0,0.0,0.0,0.0,0.0,0.0,0.0,0.0,0.0,0.0,0.0,0.0,0.0,0.0,0.0,0.0,0.0,0.0,0.0,0.0,0.0,0.0,0.0,0.0,0.0,0.0,0.0,0.0,0.0,0.0,0.0,0.0,0.0,0.0,0.0,0.0,0.0,0.0,0.0,0.0,0.0,0.0,0.0,0.0,0.0,0.0,0.0,0.0,0.0,0.0,0.0,0.0,0.0,0.0,0.0,0.0,0.0,0.0,0.2204,0.2204,0.2204,0.2069,0.1799,0.0,0.0,0.0,0.0,0.0,0.0,0.0,0.0,0.0,0.0,0.0,0.0,0.0,0.0,0.0,0.0,0.0,0.0,0.0,0.0,0.0,0.0,0.0,0.0,0.0,0.0,0.0,0.0,0.0,0.0,0.0,0.0,0.0,0.0,0.0,0.0,0.0,0.0,0.0,0.0,0.0,0.0,0.0,0.0,0.0,0.0,0.0,0.0,0.0,0.0,0.0,0.0,0.0,0.0,0.0,0.0,0.0,0.0,0.0,0.0,0.0,0.0,0.0,0.0,0.0,0.0,0.0,0.0,0.0,0.0,0.0,0.0,0.0,0.0,0.0,0.0,0.0,0.0,0.0,0.0,0.0,0.0,0.0,0.0,0.0,0.0,0.0,0.0,0.0,0.0,0.0,0.0,0.0,0.0,0.0,0.0,0.0,0.0,0.0,0.0,0.0,0.0,0.0,0.0,0.0,0.0,0.0,0.0,0.0,0.0,0.0,0.0,0.2229,0.2222,0.2191,0.0,0.0,0.0,0.0,0.0,0.0,0.0,0.0,0.0,0.0,0.0,0.0,0.0,0.0,0.0,0.0,0.0,0.0,0.0,0.0,0.0,0.0,0.0,0.0,0.0,0.0,0.0,0.0,0.0,0.0,0.0,0.0,0.0,0.0,0.0,0.0,0.0,0.0,0.0,0.0,0.0,0.0,0.0,0.0,0.0,0.0,0.0,0.0,0.0,0.0,0.0,0.0,0.0,0.0,0.0,0.0,0.0,0.0,0.0,0.0,0.0,0.0,0.0,0.0,0.0,0.0,0.0,0.0,0.0,0.0,0.0,0.0,0.0,0.0,0.0,0.0,0.0,0.0,0.0,0.0,0.0,0.0,0.0,0.0,0.0,0.0,0.0,0.0,0.0,0.0,0.0,0.0,0.0,0.0,0.0,0.0,0.0,0.0,0.0,0.0,0.0,0.0,0.0,0.0,0.0,0.0,0.0,0.0,0.0,0.0,0.2223,0.2297,0.2281,0.0,0.2193,0.0,0.0,0.0,0.0,0.0,0.0,0.0,0.0,0.0,0.0,0.0,0.0,0.0,0.0,0.0,0.0,0.0,0.0,0.0,0.0,0.0,0.0,0.0,0.0,0.0,0.0,0.0,0.0,0.0,0.0,0.0,0.0,0.0,0.0,0.0,0.0,0.0,0.0,0.0,0.0,0.0,0.0,0.0,0.0,0.0,0.0,0.0,0.0,0.0,0.0,0.0,0.0,0.0,0.0,0.0,0.0,0.0,0.0,0.0,0.0,0.0,0.0,0.0,0.0,0.0,0.0,0.0,0.0,0.0,0.0,0.0,0.0,0.0,0.0,0.0,0.0,0.0,0.0,0.0,0.0,0.0,0.0,0.0,0.0,0.0,0.0,0.0,0.0,0.0,0.0,0.0,0.0,0.0,0.0,0.0,0.0,0.0,0.0,0.0,0.0,0.0,0.0,0.0,0.0,0.0,0.0,0.0,0.0,0.0,0.0,0.1767,0.1694,0.1383,0.1222,0.0,0.0,0.0,0.0,0.0,0.0,0.0,0.0,0.0,0.0,0.0,0.0,0.0,0.0,0.0,0.0,0.0,0.0,0.0,0.0,0.0,0.0,0.0,0.0,0.0,0.0,0.0,0.0,0.0,0.0,0.0,0.0,0.0,0.0,0.0,0.0,0.0,0.0,0.0,0.0,0.0,0.0,0.0,0.0,0.0,0.0,0.0,0.0,0.0,0.0,0.0,0.0,0.0,0.0,0.0,0.0,0.0,0.0,0.0,0.0,0.0,0.0,0.0,0.0,0.0,0.0,0.0,0.0,0.0,0.0,0.0,0.0,0.0,0.0,0.0,0.0,0.0,0.0,0.0,0.0,0.0,0.0,0.0,0.0,0.0,0.0,0.0,0.0,0.0,0.0,0.0,0.0,0.0,0.0,0.0,0.0,0.0,0.0,0.0,0.0,0.0,0.0,0.0,0.0,0.0,0.0,0.0,0.0,0.0,0.0,0.1193,0.0,0.1104,0.076,0.0547,0.0548,0.0,0.0,0.0,0.0,0.0,0.0,0.0,0.0,0.0,0.0,0.0,0.0,0.0,0.0,0.0,0.0,0.0,0.0,0.0,0.0,0.0,0.0,0.0,0.0,0.0,0.0,0.0,0.0,0.0,0.0,0.0,0.0,0.0,0.0,0.0,0.0,0.0,0.0,0.0,0.0,0.0,0.0,0.0,0.0,0.0,0.0,0.0,0.0,0.0,0.0,0.0,0.0,0.0,0.0,0.0,0.0,0.0,0.0,0.0,0.0,0.0,0.0,0.0,0.0,0.0,0.0,0.0,0.0,0.0,0.0,0.0,0.0,0.0,0.0,0.0,0.0,0.0,0.0,0.0,0.0,0.0,0.0,0.0,0.0,0.0,0.0,0.0,0.0,0.0,0.0,0.0,0.0,0.0,0.0,0.0,0.0,0.0,0.0,0.0,0.0,0.0,0.0,0.0,0.0,0.0,0.0,0.0,0.0,0.0,0.0611,0.0593,0.0698,0.0698,0.0684,0.0,0.0,0.0,0.0,0.0,0.0,0.0,0.0,0.0,0.0,0.0,0.0,0.0,0.0,0.0,0.0,0.0,0.0,0.0,0.0,0.0,0.0,0.0,0.0,0.0,0.0,0.0,0.0,0.0,0.0,0.0,0.0,0.0,0.0,0.0,0.0,0.0,0.0,0.0,0.0,0.0,0.0,0.0,0.0,0.0,0.0,0.0,0.0,0.0,0.0,0.0,0.0,0.0,0.0,0.0,0.0,0.0,0.0,0.0,0.0,0.0,0.0,0.0,0.0,0.0,0.0,0.0,0.0,0.0,0.0,0.0,0.0,0.0,0.0,0.0,0.0,0.0,0.0,0.0,0.0,0.0,0.0,0.0,0.0,0.0,0.0,0.0,0.0,0.0,0.0,0.0,0.0,0.0,0.0,0.0,0.0,0.0,0.0,0.0,0.0,0.0,0.0,0.0,0.0,0.0,0.0,0.0,0.0,0.0,0.01,0.0034,0.0036,0.0118,-0.0257,-0.0452,0.0,0.0,0.0,0.0,0.0,0.0,0.0,0.0,0.0,0.0,0.0,0.0,0.0,0.0,0.0,0.0,0.0,0.0,0.0,0.0,0.0,0.0,0.0,0.0,0.0,0.0,0.0,0.0,0.0,0.0,0.0,0.0,0.0,0.0,0.0,0.0,0.0,0.0,0.0,0.0,0.0,0.0,0.0,0.0,0.0,0.0,0.0,0.0,0.0,0.0,0.0,0.0,0.0,0.0,0.0,0.0,0.0,0.0,0.0,0.0,0.0,0.0,0.0,0.0,0.0,0.0,0.0,0.0,0.0,0.0,0.0,0.0,0.0,0.0,0.0,0.0,0.0,0.0,0.0,0.0,0.0,0.0,0.0,0.0,0.0,0.0,0.0,0.0,0.0,0.0,0.0,0.0,0.0,0.0,0.0,0.0,0.0,0.0,0.0,0.0,0.0,0.0,0.0,0.0,0.0,0.0,0.0,0.0,0.0,-0.05,0.0,-0.0579,0.0,-0.088,-0.1066,0.0,0.0,0.0,0.0,0.0,0.0,0.0,0.0,0.0,0.0,0.0,0.0,0.0,0.0,0.0,0.0,0.0,0.0,0.0,0.0,0.0,0.0,0.0,0.0,0.0,0.0,0.0,0.0,0.0,0.0,0.0,0.0,0.0,0.0,0.0,0.0,0.0,0.0,0.0,0.0,0.0,0.0,0.0,0.0,0.0,0.0,0.0,0.0,0.0,0.0,0.0,0.0,0.0,0.0,0.0,0.0,0.0,0.0,0.0,0.0,0.0,0.0,0.0,0.0,0.0,0.0,0.0,0.0,0.0,0.0,0.0,0.0,0.0,0.0,0.0,0.0,0.0,0.0,0.0,0.0,0.0,0.0,0.0,0.0,0.0,0.0,0.0,0.0,0.0,0.0,0.0,0.0,0.0,0.0,0.0,0.0,0.0,0.0,0.0,0.0,0.0,0.0,0.0,0.0,0.0,0.0,0.0,0.0,-0.0956,-0.1081,-0.1205,-0.1225,-0.1207,-0.1138,-0.1033,0.0,0.0,0.0,0.0,0.0,0.0,0.0,0.0,0.0,0.0,0.0,0.0,0.0,0.0,0.0,0.0,0.0,0.0,0.0,0.0,0.0,0.0,0.0,0.0,0.0,0.0,0.0,0.0,0.0,0.0,0.0,0.0,0.0,0.0,0.0,0.0,0.0,0.0,0.0,0.0,0.0,0.0,0.0,0.0,0.0,0.0,0.0,0.0,0.0,0.0,0.0,0.0,0.0,0.0,0.0,0.0,0.0,0.0,0.0,0.0,0.0,0.0,0.0,0.0,0.0,0.0,0.0,0.0,0.0,0.0,0.0,0.0,0.0,0.0,0.0,0.0,0.0,0.0,0.0,0.0,0.0,0.0,0.0,0.0,0.0,0.0,0.0,0.0,0.0,0.0,0.0,0.0,0.0,0.0,0.0,0.0,0.0,0.0,0.0,0.0,0.0,0.0,0.0,0.0,0.0,0.0,0.0,0.0,0.0,-0.1091,-0.1177,-0.1243,-0.1263,-0.1175,-0.1092,0.0,0.0,0.0,0.0,0.0,0.0,0.0,0.0,0.0,0.0,0.0,0.0,0.0,0.0,0.0,0.0,0.0,0.0,0.0,0.0,0.0,0.0,0.0,0.0,0.0,0.0,0.0,0.0,0.0,0.0,0.0,0.0,0.0,0.0,0.0,0.0,0.0,0.0,0.0,0.0,0.0,0.0,0.0,0.0,0.0,0.0,0.0,0.0,0.0,0.0,0.0,0.0,0.0,0.0,0.0,0.0,0.0,0.0,0.0,0.0,0.0,0.0,0.0,0.0,0.0,0.0,0.0,0.0,0.0,0.0,0.0,0.0,0.0,0.0,0.0,0.0,0.0,0.0,0.0,0.0,0.0,0.0,0.0,0.0,0.0,0.0,0.0,0.0,0.0,0.0,0.0,0.0,0.0,0.0,0.0,0.0,0.0,0.0,0.0,0.0,0.0,0.0,0.0,0.0,0.0,0.0,0.0,0.0,0.0,-0.1181,-0.1209,-0.1261,-0.1317,-0.1197,-0.1151,-0.1165,0.0,0.0,0.0,0.0,0.0,0.0,0.0,0.0,0.0,0.0,0.0,0.0,0.0,0.0,0.0,0.0,0.0,0.0,0.0,0.0,0.0,0.0,0.0,0.0,0.0,0.0,0.0,0.0,0.0,0.0,0.0,0.0,0.0,0.0,0.0,0.0,0.0,0.0,0.0,0.0,0.0,0.0,0.0,0.0,0.0,0.0,0.0,0.0,0.0,0.0,0.0,0.0,0.0,0.0,0.0,0.0,0.0,0.0,0.0,0.0,0.0,0.0,0.0,0.0,0.0,0.0,0.0,0.0,0.0,0.0,0.0,0.0,0.0,0.0,0.0,0.0,0.0,0.0,0.0,0.0,0.0,0.0,0.0,0.0,0.0,0.0,0.0,0.0,0.0,0.0,0.0,0.0,0.0,0.0,0.0,0.0,0.0,0.0,0.0,0.0,0.0,0.0,0.0,0.0,0.0,0.0,0.0,0.0,-0.1324,-0.1339,-0.1351,-0.1369,-0.1244,-0.1198,0.0,0.0,0.0,0.0,0.0,0.0,0.0,0.0,0.0,0.0,0.0,0.0,0.0,0.0,0.0,0.0,0.0,0.0,0.0,0.0,0.0,0.0,0.0,0.0,0.0,0.0,0.0,0.0,0.0,0.0,0.0,0.0,0.0,0.0,0.0,0.0,0.0,0.0,0.0,0.0,0.0,0.0,0.0,0.0,0.0,0.0,0.0,0.0,0.0,0.0,0.0,0.0,0.0,0.0,0.0,0.0,0.0,0.0,0.0,0.0,0.0,0.0,0.0,0.0,0.0,0.0,0.0,0.0,0.0,0.0,0.0,0.0,0.0,0.0,0.0,0.0,0.0,0.0,0.0,0.0,0.0,0.0,0.0,0.0,0.0,0.0,0.0,0.0,0.0,0.0,0.0,0.0,0.0,0.0,0.0,0.0,0.0,0.0,0.0,0.0,0.0,0.0,0.0,0.0,0.0,0.0,0.0,0.0,0.0,-0.1337,-0.1786,-0.1993,-0.1954,-0.151,-0.1436,0.0,0.0,0.0,0.0,0.0,0.0,0.0,0.0,0.0,0.0,0.0,0.0,0.0,0.0,0.0,0.0,0.0,0.0,0.0,0.0,0.0,0.0,0.0,0.0,0.0,0.0,0.0,0.0,0.0,0.0,0.0,0.0,0.0,0.0,0.0,0.0,0.0,0.0,0.0,0.0,0.0,0.0,0.0,0.0,0.0,0.0,0.0,0.0,0.0,0.0,0.0,0.0,0.0,0.0,0.0,0.0,0.0,0.0,0.0,0.0,0.0,0.0,0.0,0.0,0.0,0.0,0.0,0.0,0.0,0.0,0.0,0.0,0.0,0.0,0.0,0.0,0.0,0.0,0.0,0.0,0.0,0.0,0.0,0.0,0.0,0.0,0.0,0.0,0.0,0.0,0.0,0.0,0.0,0.0,0.0,0.0,0.0,0.0,0.0,0.0,0.0,0.0,0.0,0.0,0.0,0.0,0.0,0.0,-0.2064,-0.1403,-0.2427,-0.2838,-0.2589,-0.1996,-0.1749,0.0,0.0,0.0,0.0,0.0,0.0,0.0,0.0,0.0,0.0,0.0,0.0,0.0,0.0,0.0,0.0,0.0,0.0,0.0,0.0,0.0,0.0,0.0,0.0,0.0,0.0,0.0,0.0,0.0,0.0,0.0,0.0,0.0,0.0,0.0,0.0,0.0,0.0,0.0,0.0,0.0,0.0,0.0,0.0,0.0,0.0,0.0,0.0,0.0,0.0,0.0,0.0,0.0,0.0,0.0,0.0,0.0,0.0,0.0,0.0,0.0,0.0,0.0,0.0,0.0,0.0,0.0,0.0,0.0,0.0,0.0,0.0,0.0,0.0,0.0,0.0,0.0,0.0,0.0,0.0,0.0,0.0,0.0,0.0,0.0,0.0,0.0,0.0,0.0,0.0,0.0,0.0,0.0,0.0,0.0,0.0,0.0,0.0,0.0,0.0,0.0,0.0,0.0,0.0,0.0,0.0,0.0,0.0,-0.2413,-0.1621,-0.3109,-0.3682,-0.3207,-0.2595,-0.2202,0.0,0.0,0.0,0.0,0.0,0.0,0.0,0.0,0.0,0.0,0.0,0.0,0.0,0.0,0.0,0.0,0.0,0.0,0.0,0.0,0.0,0.0,0.0,0.0,0.0,0.0,0.0,0.0,0.0,0.0,0.0,0.0,0.0,0.0,0.0,0.0,0.0,0.0,0.0,0.0,0.0,0.0,0.0,0.0,0.0,0.0,0.0,0.0,0.0,0.0,0.0,0.0,0.0,0.0,0.0,0.0,0.0,0.0,0.0,0.0,0.0,0.0,0.0,0.0,0.0,0.0,0.0,0.0,0.0,0.0,0.0,0.0,0.0,0.0,0.0,0.0,0.0,0.0,0.0,0.0,0.0,0.0,0.0,0.0,0.0,0.0,0.0,0.0,0.0,0.0,0.0,0.0,0.0,0.0,0.0,0.0,0.0,0.0,0.0,0.0,0.0,0.0,0.0,0.0,0.0,0.0,0.0,0.0,-0.27,-0.2174,-0.3342,-0.3905,-0.3725,-0.3148,-0.2752,0.0,0.0,0.0,0.0,0.0,0.0,0.0,0.0,0.0,0.0,0.0,0.0,0.0,0.0,0.0,0.0,0.0,0.0,0.0,0.0,0.0,0.0,0.0,0.0,0.0,0.0,0.0,0.0,0.0,0.0,0.0,0.0,0.0,0.0,0.0,0.0,0.0,0.0,0.0,0.0,0.0,0.0,0.0,0.0,0.0,0.0,0.0,0.0,-0.3729,0.0,0.0,0.0,0.0,0.0,0.0,0.0,0.0,0.0,0.0,0.0,0.0,0.0,0.0,0.0,0.0,0.0,0.0,0.0,0.0,0.0,0.0,0.0,0.0,0.0,0.0,0.0,0.0,0.0,0.0,0.0,0.0,0.0,0.0,0.0,0.0,0.0,0.0,0.0,0.0,0.0,0.0,0.0,0.0,0.0,0.0,0.0,0.0,0.0,0.0,0.0,0.0,0.0,0.0,0.0,0.0,0.0,0.0,0.0,-0.2906,-0.2748,-0.38,-0.4237,-0.3943,-0.3813,-0.3553,0.0,0.0,0.0,0.0,0.0,0.0,0.0,0.0,0.0,0.0,0.0,0.0,0.0,0.0,0.0,0.0,0.0,0.0,0.0,0.0,0.0,0.0,0.0,0.0,0.0,0.0,0.0,0.0,0.0,0.0,0.0,0.0,0.0,0.0,0.0,0.0,0.0,0.0,0.0,0.0,0.0,0.0,0.0,0.0,0.0,0.0,0.0,0.0,0.0,0.0,0.0,0.0,0.0,0.0,0.0,0.0,0.0,0.0,0.0,0.0,0.0,0.0,0.0,0.0,0.0,0.0,0.0,0.0,0.0,0.0,0.0,0.0,0.0,0.0,0.0,0.0,0.0,0.0,0.0,0.0,0.0,0.0,0.0,0.0,0.0,0.0,0.0,0.0,0.0,0.0,0.0,0.0,0.0,0.0,0.0,0.0,0.0,0.0,0.0,0.0,0.0,0.0,0.0,0.0,0.0,0.0,0.0,-0.2737,-0.3114,-0.3341,-0.4299,-0.4583,-0.4131,-0.4423,-0.4252,-0.3529,0.0,0.0,0.0,0.0,0.0,0.0,0.0,0.0,0.0,0.0,0.0,0.0,0.0,0.0,0.0,0.0,0.0,0.0,0.0,0.0,0.0,0.0,0.0,0.0,0.0,0.0,0.0,0.0,0.0,0.0,0.0,0.0,0.0,0.0,0.0,0.0,0.0,0.0,-0.3156,-0.3602,0.0,0.0,0.0,0.0,0.0,0.0,0.0,0.0,-0.3918,0.0,0.0,0.0,0.0,0.0,0.0,0.0,0.0,0.0,0.0,0.0,0.0,0.0,0.0,0.0,0.0,0.0,0.0,0.0,0.0,0.0,0.0,0.0,0.0,0.0,0.0,0.0,0.0,0.0,0.0,0.0,0.0,0.0,0.0,0.0,0.0,0.0,0.0,0.0,0.0,0.0,0.0,0.0,0.0,0.0,0.0,0.0,0.0,0.0,0.0,0.0,0.0,0.0,0.0,0.0,0.0,-0.2683,-0.2912,-0.327,-0.3856,-0.4475,-0.4759,-0.468,-0.4641,-0.4373,-0.3925,0.0,0.0,0.0,0.0,0.0,0.0,0.0,0.0,0.0,0.0,0.0,0.0,0.0,0.0,0.0,0.0,0.0,0.0,0.0,0.0,0.0,0.0,0.0,0.0,0.0,0.0,0.0,0.0,0.0,0.0,0.0,0.0,0.0,0.0,0.0,0.0,0.0,0.0,0.0,-0.3983,-0.4123,0.0,0.0,0.0,0.0,0.0,0.0,0.0,0.0,-0.3975,0.0,0.0,0.0,0.0,0.0,0.0,0.0,0.0,0.0,0.0,0.0,0.0,0.0,0.0,0.0,0.0,0.0,0.0,0.0,0.0,0.0,0.0,0.0,0.0,0.0,0.0,0.0,0.0,0.0,0.0,0.0,0.0,0.0,0.0,0.0,0.0,0.0,0.0,0.0,0.0,0.0,0.0,0.0,0.0,0.0,0.0,0.0,0.0,0.0,0.0,0.0,0.0,0.0,0.0,0.0,-0.3122,-0.336,-0.377,-0.4397,-0.4659,-0.4782,-0.4803,-0.4573,-0.4306,0.0,0.0,0.0,0.0,0.0,0.0,0.0,0.0,0.0,0.0,0.0,0.0,0.0,0.0,0.0,0.0,0.0,0.0,0.0,0.0,0.0,0.0,0.0,0.0,0.0,0.0,0.0,0.0,0.0,0.0,0.0,0.0,0.0,0.0,0.0,0.0,0.0,0.0,0.0,0.0,-0.4087,-0.4178,-0.4114,0.0,0.0,0.0,0.0,0.0,0.0,-0.4057,-0.4009,0.0,0.0,0.0,0.0,0.0,0.0,0.0,0.0,0.0,0.0,0.0,0.0,0.0,0.0,0.0,0.0,0.0,0.0,0.0,0.0,0.0,0.0,0.0,0.0,0.0,0.0,0.0,0.0,0.0,0.0,0.0,0.0,0.0,0.0,0.0,0.0,0.0,0.0,0.0,0.0,0.0,0.0,0.0,0.0,0.0,0.0,0.0,0.0,0.0,0.0,0.0,0.0,0.0,0.0,0.0,-0.3587,-0.3784,-0.4185,-0.4772,-0.4782,-0.4782,-0.4778,-0.4522,-0.4255,0.0,0.0,0.0,0.0,0.0,0.0,0.0,0.0,0.0,0.0,0.0,0.0,0.0,0.0,0.0,0.0,0.0,0.0,0.0,0.0,0.0,0.0,0.0,0.0,0.0,0.0,0.0,0.0,0.0,0.0,0.0,0.0,0.0,0.0,0.0,0.0,0.0,0.0,0.0,0.0,0.0,-0.4262,-0.4227,-0.4214,0.0,0.0,0.0,0.0,-0.4258,-0.4175,0.0,0.0,0.0,0.0,0.0,0.0,0.0,0.0,0.0,0.0,0.0,0.0,0.0,0.0,0.0,0.0,0.0,0.0,0.0,0.0,0.0,0.0,0.0,0.0,0.0,0.0,0.0,0.0,0.0,0.0,0.0,0.0,0.0,0.0,0.0,0.0,0.0,0.0,0.0,0.0,0.0,0.0,0.0,0.0,0.0,0.0,0.0,0.0,0.0,0.0,0.0,0.0,0.0,0.0,0.0,0.0,-0.3895,-0.3835,-0.4147,-0.4764,-0.4782,-0.4782,-0.4782,-0.4645,-0.4383,0.0,0.0,0.0,0.0,0.0,0.0,0.0,0.0,0.0,0.0,0.0,0.0,0.0,0.0,0.0,0.0,0.0,0.0,0.0,0.0,0.0,0.0,0.0,0.0,0.0,0.0,0.0,0.0,0.0,0.0,0.0,0.0,0.0,0.0,0.0,0.0,0.0,0.0,0.0,0.0,0.0,-0.449,-0.4308,-0.433,-0.4379,0.0,0.0,-0.4328,-0.4523,-0.4425,0.0,0.0,0.0,0.0,0.0,0.0,0.0,0.0,0.0,0.0,0.0,0.0,0.0,0.0,0.0,0.0,0.0,0.0,0.0,0.0,0.0,0.0,0.0,0.0,0.0,0.0,0.0,0.0,0.0,0.0,0.0,0.0,0.0,0.0,0.0,0.0,0.0,0.0,0.0,0.0,0.0,0.0,0.0,0.0,0.0,0.0,0.0,0.0,0.0,0.0,0.0,0.0,0.0,0.0,0.0,-0.3324,-0.3988,-0.4204,-0.4464,-0.4774,-0.4782,-0.4787,-0.474,-0.4538,-0.4273,0.0,0.0,0.0,0.0,0.0,0.0,0.0,0.0,0.0,0.0,0.0,0.0,0.0,0.0,0.0,0.0,0.0,0.0,0.0,0.0,0.0,0.0,0.0,0.0,0.0,0.0,0.0,0.0,0.0,0.0,0.0,0.0,0.0,0.0,0.0,0.0,0.0,0.0,0.0,0.0,0.0,0.0,-0.4474,-0.4487,0.0,0.0,0.0,-0.4481,-0.4582,0.0,0.0,0.0,0.0,0.0,0.0,0.0,0.0,0.0,0.0,0.0,0.0,0.0,0.0,0.0,0.0,0.0,0.0,0.0,0.0,0.0,0.0,0.0,0.0,0.0,0.0,0.0,0.0,0.0,0.0,0.0,0.0,0.0,0.0,0.0,0.0,0.0,0.0,0.0,0.0,0.0,0.0,0.0,0.0,0.0,0.0,0.0,0.0,0.0,0.0,0.0,0.0,0.0,0.0,0.0,0.0,0.0,-0.4015,-0.4458,-0.4726,-0.478,-0.4782,-0.4771,-0.4708,-0.4487,0.0,0.0,0.0,0.0,0.0,0.0,0.0,0.0,0.0,0.0,0.0,0.0,0.0,0.0,0.0,0.0,0.0,0.0,0.0,0.0,0.0,0.0,0.0,0.0,0.0,0.0,0.0,-0.2216,0.0,0.0,0.0,0.0,0.0,0.0,0.0,0.0,0.0,0.0,0.0,0.0,0.0,0.0,-0.4553,-0.4765,-0.4806,-0.4829,0.0,0.0,-0.4829,-0.4851,-0.4855,-0.4759,0.0,0.0,0.0,0.0,0.0,0.0,0.0,0.0,0.0,0.0,0.0,0.0,0.0,0.0,0.0,0.0,0.0,0.0,0.0,0.0,0.0,0.0,0.0,0.0,0.0,0.0,0.0,0.0,0.0,0.0,0.0,0.0,0.0,0.0,0.0,0.0,0.0,0.0,0.0,0.0,0.0,0.0,0.0,0.0,0.0,0.0,0.0,0.0,0.0,0.0,0.0,0.0,0.0,0.0,0.0,-0.4019,-0.4456,-0.4726,-0.478,-0.4782,-0.4769,-0.471,-0.461,-0.4369,0.0,0.0,0.0,0.0,0.0,0.0,0.0,0.0,0.0,0.0,0.0,0.0,0.0,0.0,0.0,0.0,0.0,0.0,0.0,0.0,0.0,0.0,0.0,0.0,0.0,0.0,0.0,0.0,0.0,0.0,0.0,0.0,0.0,0.0,0.0,0.0,0.0,0.0,0.0,0.0,0.0,-0.5049,-0.5306,-0.5391,-0.5461,0.0,-0.5487,-0.5461,-0.5501,-0.5515,-0.5366,-0.4865,0.0,0.0,0.0,0.0,0.0,0.0,0.0,0.0,0.0,0.0,0.0,0.0,0.0,0.0,0.0,0.0,0.0,0.0,0.0,0.0,0.0,0.0,0.0,0.0,0.0,0.0,0.0,0.0,0.0,0.0,0.0,0.0,0.0,0.0,0.0,0.0,0.0,0.0,0.0,0.0,0.0,0.0,0.0,0.0,0.0,0.0,0.0,0.0,0.0,0.0,0.0,0.0,0.0,-0.3798,-0.3996,-0.4507,-0.4777,-0.4782,-0.4782,-0.4771,-0.4712,-0.4644,-0.4383,0.0,0.0,0.0,0.0,0.0,0.0,0.0,0.0,0.0,0.0,0.0,0.0,0.0,0.0,0.0,0.0,0.0,0.0,0.0,0.0,0.0,0.0,0.0,0.0,0.0,0.0,0.0,0.0,-0.3236,-0.3409,-0.3606,0.0,0.0,0.0,0.0,0.0,0.0,0.0,0.0,0.0,0.0,-0.5303,-0.5501,-0.5551,0.0,0.0,-0.5633,-0.5667,-0.5614,-0.5584,-0.5483,-0.5104,-0.4981,0.0,0.0,0.0,0.0,0.0,0.0,0.0,0.0,0.0,0.0,0.0,0.0,0.0,0.0,0.0,0.0,0.0,0.0,0.0,0.0,0.0,0.0,0.0,0.0,0.0,0.0,0.0,0.0,0.0,0.0,0.0,0.0,0.0,0.0,0.0,0.0,0.0,0.0,0.0,0.0,0.0,0.0,0.0,0.0,0.0,0.0,0.0,0.0,0.0,0.0,0.0,0.0,-0.3913,-0.4056,-0.4553,-0.4782,-0.4782,-0.4782,-0.4769,-0.471,-0.4644,-0.441,0.0,0.0,0.0,0.0,0.0,0.0,0.0,0.0,0.0,0.0,0.0,0.0,0.0,0.0,0.0,0.0,0.0,0.0,0.0,0.0,0.0,0.0,0.0,0.0,0.0,0.0,0.0,0.0,-0.3442,-0.3683,-0.4012,0.0,0.0,0.0,0.0,0.0,0.0,0.0,0.0,0.0,0.0,-0.5645,-0.5812,-0.5834,-0.5872,-0.5906,-0.5948,-0.5963,-0.5916,-0.5911,-0.5822,-0.552,0.0,0.0,0.0,0.0,0.0,0.0,0.0,0.0,0.0,0.0,0.0,0.0,0.0,0.0,0.0,0.0,0.0,0.0,0.0,0.0,0.0,0.0,0.0,0.0,0.0,0.0,0.0,-0.0899,0.0,0.0,-0.09,0.0,0.0,0.0,0.0,0.0,0.0,0.0,0.0,0.0,0.0,0.0,0.0,0.0,0.0,0.0,0.0,0.0,0.0,0.0,0.0,0.0,0.0,-0.3985,-0.4195,-0.4584,-0.4782,-0.4782,-0.4782,-0.4771,-0.4712,-0.4644,-0.4468,-0.4191,0.0,0.0,0.0,0.0,0.0,0.0,0.0,0.0,0.0,0.0,0.0,0.0,0.0,0.0,0.0,0.0,0.0,0.0,0.0,0.0,0.0,0.0,0.0,0.0,0.0,0.0,-0.3509,-0.3737,-0.4015,0.0,0.0,0.0,0.0,0.0,0.0,0.0,0.0,0.0,0.0,-0.5943,-0.6162,-0.6339,-0.6389,-0.6407,-0.6549,-0.6445,-0.6435,-0.6549,-0.6562,-0.6471,0.0,0.0,0.0,0.0,0.0,0.0,0.0,0.0,0.0,0.0,0.0,0.0,0.0,0.0,0.0,0.0,0.0,0.0,0.0,0.0,0.0,0.0,0.0,0.0,0.0,0.0,0.0,-0.1672,-0.1562,0.0,0.0,0.0,0.0,0.0,0.0,0.0,0.0,0.0,0.0,0.0,-0.2962,-0.3565,0.0,0.0,0.0,0.0,0.0,0.0,0.0,0.0,0.0,0.0,0.0,0.0,-0.3987,-0.4199,-0.4584,-0.4782,-0.4782,-0.4782,-0.4795,-0.4767,-0.4708,-0.451,-0.4225,0.0,0.0,0.0,0.0,0.0,0.0,0.0,0.0,0.0,0.0,0.0,0.0,0.0,0.0,0.0,0.0,0.0,0.0,0.0,0.0,0.0,0.0,0.0,0.0,0.0,-0.3848,0.0,0.0,0.0,0.0,0.0,0.0,0.0,0.0,0.0,0.0,0.0,-0.5802,-0.5988,-0.6258,-0.6457,-0.6531,-0.6534,-0.6577,0.0,0.0,0.0,0.0,0.0,0.0,0.0,0.0,0.0,0.0,0.0,0.0,0.0,0.0,-0.6564,-0.568,-0.5523,-0.5524,-0.556,0.0,0.0,0.0,0.0,0.0,0.0,0.0,0.0,0.0,0.0,0.0,0.0,0.0,0.0,-0.2358,-0.2242,-0.2239,0.0,0.0,0.0,0.0,0.0,0.0,0.0,0.0,-0.3704,-0.382,-0.3626,-0.4208,-0.4293,0.0,-0.4164,-0.4013,0.0,0.0,0.0,0.0,0.0,0.0,0.0,0.0,-0.4081,-0.4265,-0.4612,-0.4782,-0.4782,-0.4782,-0.4782,-0.4782,-0.4728,-0.454,-0.4205,-0.3909,-0.3675,0.0,0.0,0.0,0.0,0.0,0.0,0.0,0.0,0.0,0.0,0.0,0.0,0.0,0.0,0.0,0.0,0.0,0.0,0.0,0.0,0.0,0.0,0.0,-0.417,0.0,0.0,0.0,0.0,0.0,0.0,0.0,0.0,0.0,-0.5613,-0.5984,-0.632,-0.6411,-0.6622,-0.6747,-0.6747,0.0,0.0,0.0,0.0,0.0,0.0,0.0,-0.6896,-0.6945,-0.6867,-0.681,-0.6939,-0.7149,-0.7283,-0.7198,0.0,0.0,-0.6336,-0.6237,-0.6294,-0.6305,-0.6475,-0.6636,-0.6699,-0.6664,-0.666,0.0,0.0,0.0,0.0,0.0,0.0,0.0,0.0,-0.2811,-0.2984,0.0,-0.2939,0.0,0.0,0.0,0.0,-0.3257,-0.3617,0.0,0.0,-0.4598,-0.4759,-0.469,-0.4767,-0.4769,-0.4724,-0.4769,-0.4675,-0.4413,-0.408,0.0,0.0,0.0,0.0,0.0,0.0,-0.4267,-0.4417,-0.4675,-0.4782,-0.4782,-0.4782,-0.4809,-0.4807,-0.4753,-0.457,-0.4279,-0.4248,-0.4055,-0.3686,-0.3527,0.0,0.0,0.0,0.0,0.0,0.0,0.0,0.0,0.0,0.0,0.0,0.0,0.0,0.0,0.0,0.0,0.0,0.0,0.0,0.0,-0.4306,0.0,0.0,0.0,0.0,0.0,0.0,0.0,0.0,0.0,0.0,-0.6331,-0.6603,-0.6855,-0.6997,0.0,0.0,0.0,0.0,-0.6902,-0.716,-0.71,-0.7086,-0.7273,-0.7303,-0.7303,-0.7313,0.0,0.0,-0.7248,-0.7372,-0.7456,-0.7256,-0.7417,-0.7529,-0.7516,-0.7324,-0.7209,-0.7257,-0.7211,-0.7234,-0.7281,-0.7265,-0.727,-0.2633,0.0,0.0,0.0,0.0,-0.2765,-0.3093,-0.3502,-0.3641,-0.3664,-0.3611,-0.3612,0.0,0.0,0.0,0.0,0.0,0.0,-0.4245,-0.4519,-0.4602,-0.47,-0.4752,-0.4892,-0.492,-0.49,-0.4988,-0.4957,-0.4843,-0.4716,-0.4379,-0.3832,0.0,0.0,0.0,0.0,-0.4395,-0.4536,-0.4706,-0.4782,-0.4782,-0.4782,-0.4885,-0.5062,-0.5022,-0.5019,-0.51,-0.4982,-0.4836,-0.4685,-0.4365,0.0,0.0,0.0,0.0,0.0,0.0,0.0,0.0,0.0,0.0,0.0,0.0,0.0,0.0,0.0,0.0,0.0,0.0,0.0,-0.4486,-0.479,-0.5075,0.0,0.0,0.0,0.0,0.0,0.0,0.0,0.0,0.0,-0.7013,-0.707,-0.7092,0.0,0.0,-0.7175,-0.7147,-0.7149,-0.7211,-0.7394,-0.7357,0.0,-0.7427,-0.7365,-0.7365,-0.7541,-0.7693,-0.7747,-0.7706,-0.7752,-0.7777,-0.7703,-0.7935,-0.8139,-0.8094,-0.7728,-0.7437,-0.7427,-0.7437,-0.7453,-0.7562,-0.7503,-0.7465,-0.4144,-0.3961,-0.3489,-0.3304,-0.3286,-0.3497,-0.3773,-0.4145,-0.4355,-0.4426,-0.4381,-0.4381,-0.4237,-0.4008,-0.4,0.0,0.0,0.0,-0.4619,-0.4783,-0.481,-0.4841,-0.4917,-0.5,-0.5024,-0.5028,-0.5081,-0.5158,-0.5237,-0.5233,-0.5043,-0.4619,0.0,0.0,-0.4122,-0.4363,-0.4534,-0.4652,-0.4864,-0.496,-0.496,-0.506,-0.5186,-0.5338,-0.5329,-0.5355,-0.5489,-0.5389,-0.5295,-0.5205,-0.4862,-0.4562,0.0,0.0,0.0,0.0,0.0,0.0,0.0,0.0,0.0,0.0,0.0,-0.3804,-0.3644,0.0,0.0,0.0,-0.4353,-0.4647,-0.5066,-0.5381,0.0,0.0,0.0,0.0,0.0,0.0,0.0,-0.7095,-0.7394,-0.766,-0.7826,-0.7818,-0.7712,-0.7429,-0.7508,-0.7571,-0.7603,0.0,-0.7826,-0.7952,-0.7969,-0.7989,-0.8038,-0.7981,-0.7986,-0.8165,-0.8223,-0.8322,-0.8365,-0.8374,-0.8394,-0.8465,-0.8638,-0.8768,-0.8765,-0.8448,-0.8188,-0.8069,-0.8046,-0.8075,-0.8152,-0.813,-0.8072,-0.5353,-0.5133,-0.4098,-0.3658,-0.3673,-0.4153,-0.4365,-0.4394,-0.4867,-0.5106,-0.5106,-0.5106,-0.4988,-0.4826,-0.4775,0.0,-0.4834,-0.4945,-0.502,-0.5106,-0.5106,-0.5106,-0.5135,-0.5143,-0.5145,-0.5171,-0.518,-0.5343,-0.5641,-0.566,-0.5663,-0.5725,-0.5048,-0.4644,-0.45,-0.463,-0.4719,-0.4779,-0.5076,-0.524,-0.524,-0.5461,-0.5611,-0.5636,-0.5636,-0.5618,-0.5579,-0.5574,-0.5548,-0.5457,-0.5141,-0.4874,-0.4654,0.0,0.0,0.0,0.0,0.0,0.0,0.0,0.0,0.0,0.0,0.0,0.0,0.0,0.0,0.0,-0.5139,0.0,-0.5729,-0.5972,0.0,0.0,0.0,-0.6443,-0.6569,-0.7158,-0.7585,-0.7706,0.0,0.0,-0.8737,-0.8758,-0.8513,-0.7881,-0.7947,-0.811,-0.8221,-0.8369,-0.8583,-0.865,-0.8725,-0.8741,-0.8778,-0.8827,-0.88,-0.8867,-0.89,-0.8922,-0.9066,-0.9068,-0.9158,-0.9212,-0.9309,-0.9341,-0.9341,-0.9313,-0.9302,-0.9051,-0.8937,-0.8867,-0.8848,-0.8836,-0.8833,-0.554,-0.5483,-0.5166,-0.4911,-0.4737,-0.4843,-0.4922,-0.4922,-0.5028,-0.5106,-0.5106,-0.5106,-0.5084,-0.5017,-0.5022,-0.5024,-0.5019,-0.5065,-0.5086,-0.5106,-0.5106,-0.5214,-0.5479,-0.5524,-0.5642,-0.5865,-0.5969,-0.6063,-0.6118,-0.6143,-0.6077,-0.6005,-0.5818,-0.5613,-0.5391,-0.5482,-0.5519,-0.5542,-0.5514,-0.5514,-0.5514,-0.5559,-0.5712,-0.5914,-0.5914,-0.6004,-0.6175,-0.6197,-0.6147,-0.608,-0.5828,-0.5536,-0.5304,-0.4808,0.0,0.0,0.0,0.0,0.0,0.0,0.0,0.0,0.0,-0.4828,-0.4357,0.0,-0.5232,0.0,-0.5567,-0.59,-0.6116,-0.6219,0.0,0.0,-0.7128,-0.7331,-0.7941,-0.8074,-0.8229,-0.8566,-0.8717,-0.8906,-0.9112,-0.9139,-0.9071,-0.8791,-0.872,-0.8672,-0.8608,-0.8687,-0.8826,-0.8854,-0.889,-0.8878,-0.8909,-0.8918,-0.8955,-0.9026,-0.9069,-0.9109,-0.9241,-0.9237,-0.9278,-0.9309,-0.9535,-0.9662,-0.9704,-0.986,-1.0009,-0.9929,-0.949,-0.9008,-0.894,-0.8918,-0.8918,-0.5586,-0.5582,-0.5559,-0.5453,-0.5341,-0.5263,-0.523,-0.5228,-0.523,-0.523,-0.523,-0.5258,-0.523,-0.523,-0.5258,-0.5285,-0.5418,-0.5416,-0.55,-0.5637,-0.5637,-0.5717,-0.5906,-0.5964,-0.6047,-0.6186,-0.6276,-0.6358,-0.6467,-0.6467,-0.6518,-0.6596,-0.6593,-0.6499,-0.6369,-0.6067,-0.5869,-0.5794,-0.5792,-0.5839,-0.5959,-0.5959,-0.6012,-0.6189,-0.6189,-0.6241,-0.6339,-0.6361,-0.6309,-0.6134,-0.5926,-0.5721,-0.5513,-0.5132,-0.4928,0.0,0.0,0.0,0.0,0.0,0.0,0.0,0.0,0.0,0.0,0.0,-0.572,-0.5961,-0.6307,-0.6652,-0.6975,-0.7171,-0.7466,-0.7887,-0.7878,-0.8051,-0.8612,-0.8738,-0.8921,-0.9267,-0.9439,-0.959,-0.9713,-0.9732,-0.971,-0.9661,-0.9584,-0.9396,-0.9059,-0.9169,-0.9308,-0.9308,-0.9308,-0.9303,-0.9361,-0.9405,-0.9453,-0.9588,-0.9617,-0.9693,-0.9825,-0.9822,-0.9842,-0.9935,-1.0078,-1.0178,-1.0207,-1.0344,-1.046,-1.0349,-1.0055,-0.9671,-0.9416,-0.9374,-0.9392,-0.5648,-0.5619,-0.5607,-0.5632,-0.5618,-0.5484,-0.5408,-0.5424,-0.5414,-0.5409,-0.5409,-0.5435,-0.5437,-0.5437,-0.5493,-0.5631,-0.5849,-0.5877,-0.6019,-0.6272,-0.6272,-0.633,-0.6358,-0.6358,-0.6386,-0.6411,-0.6414,-0.6523,-0.6743,-0.6743,-0.6907,-0.7182,-0.721,-0.721,-0.7174,-0.6516,-0.6095,-0.5947,-0.6032,-0.6203,-0.6411,-0.6433,-0.6403,-0.6412,-0.6396,-0.6372,-0.6298,-0.629,-0.6189,-0.5939,-0.5824,-0.5694,-0.5556,-0.5379,-0.5249,0.0,-0.5615,0.0,0.0,0.0,0.0,0.0,0.0,0.0,0.0,-0.6043,-0.6317,-0.6831,-0.7225,-0.7576,-0.7934,-0.8294,-0.8545,-0.8608,-0.8611,-0.8752,-0.9053,-0.9335,-0.9617,-0.9853,-1.0144,-1.0342,-1.0344,-1.0337,-1.0337,-1.0282,-1.0268,-1.0069,-0.9612,-0.9682,-0.9842,-0.9849,-0.9849,-0.9865,-0.9959,-1.0014,-1.0071,-1.027,-1.0275,-1.0358,-1.0464,-1.0488,-1.0561,-1.0644,-1.0631,-1.0671,-1.0721,-1.0711,-1.0637,-1.0544,-1.0481,-1.0351,-1.0095,-0.9986,-1.0005,-0.5835,-0.5827,-0.5784,-0.5755,-0.5747,-0.5612,-0.5522,-0.548,-0.544,-0.5409,-0.5409,-0.5631,-0.5712,-0.574,-0.6021,-0.6163,-0.6216,-0.6188,-0.6244,-0.6272,-0.6272,-0.6411,-0.6604,-0.6631,-0.6768,-0.7018,-0.7043,-0.7071,-0.7102,-0.7102,-0.7154,-0.721,-0.721,-0.721,-0.7182,0.0,0.0,0.0,-0.6639,-0.6635,-0.6563,-0.6561,-0.6512,-0.6414,-0.635,0.0,-0.6293,-0.629,-0.6227,-0.6062,-0.6124,0.0,0.0,0.0,0.0,0.0,0.0,0.0,0.0,0.0,0.0,0.0,-0.6526,-0.6317,-0.6111,-0.6746,-0.7323,-0.7643,-0.8029,-0.8301,-0.8386,-0.8454,-0.8707,-0.9166,-0.9228,-0.9466,-0.9962,-1.01,-1.0199,-1.0329,-1.0417,-1.05,-1.0602,-1.0636,-1.0585,-1.0473,-1.0485,-1.0385,-1.0159,-1.0153,-1.0188,-1.0195,-1.0199,-1.0227,-1.0232,-1.0236,-1.0287,-1.0444,-1.0453,-1.051,-1.0633,-1.067,-1.0673,-1.0721,-1.0721,-1.0721,-1.0721,-1.0721,-1.0677,-1.065,-1.064,-1.0588,-1.0304,-1.0236,-1.0226,-0.5888,-0.5912,-0.6048,-0.609,0.0,-0.6167,-0.6187,-0.6136,-0.5868,-0.5801,-0.5897,-0.6033,-0.6093,-0.6051,-0.6268,-0.6435,-0.6607,-0.6656,-0.6767,-0.6886,-0.6883,-0.6966,-0.7109,-0.7109,-0.7191,-0.7334,-0.7362,-0.7362,-0.7359,-0.7274,-0.7244,-0.7272,-0.7209,-0.721,-0.721,-0.721,-0.7095,-0.6893,-0.6834,-0.6771,-0.6714,-0.6683,-0.6626,-0.6504,-0.6472,0.0,0.0,0.0,0.0,0.0,0.0,0.0,0.0,0.0,0.0,-0.6884,-0.6898,-0.7021,-0.7302,-0.7348,-0.7353,-0.7381,-0.7445,-0.7345,-0.6997,-0.7562,-0.802,-0.8367,-0.8679,-0.8924,-0.9113,-0.9211,-0.9404,-0.9802,-0.9866,-1.0019,-1.0305,-1.0385,-1.0443,-1.0575,-1.0602,-1.0639,-1.0707,-1.0721,-1.0657,-1.0619,-1.0602,-1.0578,-1.05,-1.0371,-1.0312,-1.0312,-1.0312,-1.0339,-1.04,-1.0385,-1.0432,-1.0565,-1.0602,-1.0636,-1.0707,-1.0721,-1.0721,-1.0721,-1.0721,-1.0721,-1.0721,-1.0721,-1.0721,-1.0721,-1.0721,-1.065,-1.0521,-1.0472,-1.0393,-0.6025,-0.6101,-0.6375,-0.6497,-0.6519,-0.6714,-0.686,-0.6882,-0.6403,0.0,0.0,-0.6508,-0.6491,-0.6449,-0.6555,-0.6737,-0.7005,-0.7122,-0.728,-0.7519,-0.7519,-0.7519,-0.7519,-0.7519,-0.7519,-0.7519,-0.7519,-0.7519,-0.7484,-0.7387,-0.734,-0.7327,-0.7247,-0.7204,-0.7213,-0.721,-0.7136,-0.7043,-0.6915,-0.6855,-0.6834,-0.6834,-0.6774,-0.6628,-0.6632,-0.6504,-0.6363,-0.6353,-0.6238,-0.6043,-0.6027,-0.6097,-0.6176,-0.6248,-0.6846,-0.8059,-0.8246,-0.8427,-0.8769,-0.899,-0.8989,-0.871,-0.8924,-0.8793,-0.8144,-0.8304,-0.8628,-0.9007,-0.9199,-0.946,-0.9815,-0.9909,-1.0089,-1.0329,-1.0349,-1.0371,-1.0507,-1.0534,-1.0582,-1.0694,-1.0711,-1.0717,-1.0717,-1.0721,-1.0721,-1.0721,-1.0707,-1.0721,-1.0694,-1.0521,-1.0385,-1.042,-1.0434,-1.0412,-1.0497,-1.0534,-1.0585,-1.0654,-1.0711,-1.0721,-1.0721,-1.0721,-1.0721,-1.0721,-1.0721,-1.0721,-1.0721,-1.0721,-1.0721,-1.0721,-1.0721,-1.0721,-1.0707,-1.0619,-1.05,-0.6547,-0.6747,-0.6808,-0.6839,-0.6806,-0.6853,-0.7029,-0.7284,-0.6756,-0.6545,-0.6587,-0.6875,-0.6984,-0.7,-0.7222,-0.7378,-0.7407,-0.7449,-0.746,-0.7519,-0.7519,-0.7519,-0.7519,-0.7519,-0.7519,-0.7519,-0.7519,-0.7519,-0.7516,-0.7502,-0.7462,-0.7449,-0.7343,-0.7258,-0.719,-0.721,-0.7202,-0.7158,-0.7141,-0.7087,-0.6964,-0.6959,-0.6902,-0.6782,-0.6676,-0.658,-0.6573,-0.657,-0.6554,-0.6524,-0.6619,-0.6635,-0.6554,-0.6867,-0.7116,-0.7278,-0.7608,-0.7863,-0.8072,-0.8957,-1.0155,-1.1621,-1.202,-1.1163,-0.8849,-0.89,-0.9193,-0.9492,-0.9737,-0.9792,-0.9964,-1.0105,-1.0332,-1.0548,-1.0528,-1.0553,-1.0726,-1.0746,-1.072,-1.0714,-1.0721,-1.0721,-1.0721,-1.0721,-1.0721,-1.0721,-1.0883,-1.0817,-1.0975,-1.0654,-1.0627,-1.0627,-1.0627,-1.0633,-1.0798,-1.0687,-1.0723,-1.0714,-1.0721,-1.0721,-1.0721,-1.0721,-1.0721,-1.0721,-1.0721,-1.0721,-1.0721,-1.0721,-1.0721,-1.0721,-1.0721,-1.0721,-1.0721,-1.0657,-1.0666,-0.6951,-0.7017,-0.7201,-0.7228,-0.7174,-0.7385,-0.7508,-0.765,-0.7426,-0.7254,-0.7202,-0.7377,-0.737,-0.7317,-0.7528,-0.7619,-0.7622,-0.7679,-0.7709,-0.7712,-0.7712,-0.7709,-0.7709,-0.7742,-0.7709,-0.7709,-0.7739,-0.7739,-0.7703,-0.7649,-0.7587,-0.7606,-0.74,-0.7281,-0.7252,-0.7215,-0.721,-0.721,-0.721,-0.7185,-0.7106,-0.7106,-0.7048,-0.6904,-0.6844,-0.6785,-0.6722,-0.6691,-0.6772,-0.6896,-0.7005,-0.7118,-0.729,-0.7479,-0.7885,-0.8515,-0.8736,-0.8916,-0.9145,-0.9281,-0.9745,-1.0623,-1.1546,-1.1602,-1.0345,-1.0998,-1.1571,-1.1801,-1.2026,-1.2174,-1.2329,-1.2463,-1.2628,-1.2856,-1.2885,-1.26,-1.1981,-1.1835,-1.1541,-1.0883,-1.0721,-1.0721,-1.0721,-1.0721,-1.0721,-1.0784,-1.1406,-1.2252,-1.2877,-1.3259,-1.2771,-1.1144,-1.0717,-1.1082,-1.1637,-1.1148,-1.1082,-1.167,-1.1181,-1.0784,-1.0721,-1.0717,-1.075,-1.0721,-1.0721,-1.0721,-1.0721,-1.0721,-1.0721,-1.0721,-1.0721,-1.0721,-1.0721,-1.0721,-1.0721,-0.7402,-0.7367,-0.7623,-0.7653,-0.758,-0.7851,-0.7927,-0.7903,-0.79,-0.7853,-0.7747,-0.7772,-0.7687,-0.7614,-0.7698,-0.7739,-0.7752,-0.7862,-0.79,-0.7903,-0.7903,-0.7903,-0.7903,-0.7903,-0.7903,-0.7903,-0.7903,-0.7903,-0.7892,-0.778,-0.7725,-0.7684,-0.751,-0.7362,-0.7305,-0.7244,-0.7212,-0.7213,-0.721,-0.721,-0.721,-0.721,-0.7138,-0.7059,-0.7051,-0.7032,-0.6971,-0.6989,-0.7093,-0.7357,-0.7384,-0.7669,-0.828,-0.8398,-0.8988,-1.0135,-1.0343,-1.05,-1.0694,-1.0599,-1.0511,-1.0586,-1.1922,-1.2781,-1.2915,-1.3737,-1.4099,-1.3805,-1.3809,-1.4083,-1.4162,-1.4459,-1.4644,-1.4488,-1.4418,-1.3694,-1.2651,-1.2458,-1.2132,-1.1115,-1.0953,-1.1052,-1.1277,-1.1148,-1.1148,-1.1637,-1.2836,-1.4204,-1.5024,-1.5599,-1.4591,-1.2865,-1.1861,-1.2384,-1.3263,-1.2742,-1.2545,-1.3394,-1.2709,-1.2318,-1.2088,-1.1729,-1.1339,-1.1372,-1.0949,-1.075,-1.0721,-1.0721,-1.0721,-1.0721,-1.0721,-1.0721,-1.0721,-1.0721,-1.0721,-0.7938,-0.8098,-0.8121,-0.8118,-0.8043,-0.8069,-0.8009,-0.7919,-0.7903,-0.7897,-0.7886,-0.7886,-0.7875,-0.7872,-0.7875,-0.7878,-0.7881,-0.7897,-0.7903,-0.7903,-0.7903,-0.7903,-0.7908,-0.7905,-0.7903,-0.7908,-0.7911,-0.7913,-0.7913,-0.7889,-0.7804,-0.7712,-0.7676,-0.7525,-0.7338,-0.73,-0.7266,-0.7213,-0.721,-0.721,-0.721,-0.721,-0.7204,-0.7196,-0.7166,-0.7301,-0.75,-0.7542,-0.7652,-0.7898,-0.7944,-0.8446,-0.9466,-0.985,-1.0515,-1.1651,-1.201,-1.2219,-1.2414,-1.3627,-1.4254,-1.4724,-1.5568,-1.6431,-1.6657,-1.6926,-1.6109,-1.4486,-1.404,-1.4348,-1.4301,-1.4704,-1.4594,-1.3864,-1.3567,-1.2553,-1.1934,-1.1347,-1.1413,-1.1714,-1.1942,-1.2169,-1.3103,-1.2585,-1.2359,-1.3525,-1.4786,-1.5821,-1.6118,-1.6339,-1.6372,-1.5627,-1.5427,-1.5399,-1.5562,-1.5524,-1.5172,-1.5432,-1.5464,-1.4944,-1.446,-1.3648,-1.3001,-1.2153,-1.1633,-1.085,-1.0787,-1.0721,-1.0754,-1.0886,-1.0853,-1.0721,-1.0721,-1.0787,-1.0787,-0.8314,-0.831,-0.831,-0.8239,-0.8168,-0.816,-0.8133,-0.8084,-0.8042,-0.8009,-0.8001,-0.7935,-0.7903,-0.7903,-0.7903,-0.7903,-0.7903,-0.7903,-0.7903,-0.7903,-0.7903,-0.7938,-0.8003,-0.8012,-0.8044,-0.8073,-0.8047,-0.8043,-0.7998,-0.7938,-0.7847,-0.7799,-0.7736,-0.7649,-0.7551,-0.7652,-0.7669,-0.7545,-0.7742,-0.7791,-0.7665,-0.7518,-0.7438,-0.7438,-0.7601,-0.7709,-0.7826,-0.7823,-0.7962,-0.8318,-0.892,-0.9605,-1.0315,-1.1051,-1.1705,-1.2205,-1.2476,-1.2714,-1.2951,-1.3646,-1.4035,-1.413,-1.5407,-1.6247,-1.642,-1.7062,-1.7061,-1.6444,-1.6395,-1.6674,-1.6849,-1.7118,-1.7081,-1.6614,-1.6532,-1.6041,-1.5066,-1.4865,-1.4805,-1.4339,-1.4241,-1.4367,-1.4851,-1.4591,-1.4823,-1.5988,-1.7023,-1.757,-1.8197,-1.871,-1.8864,-1.8748,-1.8838,-1.8378,-1.7441,-1.6366,-1.6404,-1.6759,-1.6404,-1.5784,-1.4879,-1.4264,-1.3362,-1.2647,-1.1835,-1.135,-1.1416,-1.135,-1.135,-1.1317,-1.135,-1.135,-1.1347,-1.1347,-1.1284,-0.8541,-0.847,-0.8465,-0.8397,-0.8256,-0.8253,-0.8234,-0.8196,-0.8138,-0.8134,-0.8126,-0.8008,-0.797,-0.7959,-0.7935,-0.7916,-0.7949,-0.7952,-0.7973,-0.7998,-0.797,-0.8019,-0.8132,-0.8134,-0.8149,-0.8177,-0.8147,-0.8149,-0.8205,-0.8122,-0.8089,-0.8138,-0.8062,-0.8003,-0.7994,-0.8104,-0.8113,-0.8024,-0.8244,-0.8269,-0.8096,-0.7963,-0.7834,-0.7749,-0.7881,-0.8042,-0.8125,-0.8156,-0.8266,-0.8623,-0.9715,-1.059,-1.1164,-1.2333,-1.3155,-1.3564,-1.3813,-1.3894,-1.3799,-1.424,-1.4366,-1.4177,-1.5301,-1.6107,-1.6295,-1.7067,-1.7708,-1.7907,-1.8331,-1.8543,-1.8693,-1.8947,-1.8996,-1.8714,-1.8655,-1.8258,-1.7238,-1.7206,-1.6813,-1.6317,-1.6021,-1.6183,-1.6312,-1.6824,-1.7699,-1.8063,-1.8742,-1.9419,-2.0189,-2.0666,-2.0881,-2.0792,-2.0919,-2.0437,-1.9074,-1.8288,-1.7961,-1.8186,-1.8058,-1.7178,-1.5432,-1.5047,-1.4077,-1.3595,-1.2561,-1.1813,-1.1681,-1.1714,-1.1846,-1.1813,-1.1846,-1.1876,-1.1714,-1.178,-1.1681,-0.8617,-0.8612,-0.8579,-0.8508,-0.8378,-0.8378,-0.8313,-0.8229,-0.8202,-0.8196,-0.8196,-0.8177,-0.8183,-0.8155,-0.8017,-0.7971,-0.8097,-0.8108,-0.81,-0.8158,-0.8169,-0.8185,-0.8196,-0.8196,-0.8202,-0.8263,-0.8271,-0.8327,-0.85,-0.848,-0.8603,-0.8799,-0.8781,-0.8748,-0.8617,-0.865,-0.86,-0.8509,-0.8552,-0.8461,-0.8347,-0.8552,-0.8433,-0.8081,-0.802,-0.818,-0.8429,-0.8484,-0.8598,-0.8881,-1.0001,-1.1145,-1.2219,-1.3629,-1.4961,-1.6209,-1.6626,-1.6287,-1.5456,-1.6325,-1.6662,-1.5873,-1.6568,-1.7367,-1.7285,-1.766,-1.8028,-1.827,-1.8809,-1.9019,-1.8879,-1.906,-1.881,-1.8028,-1.7765,-1.7437,-1.6738,-1.7028,-1.6711,-1.7001,-1.7232,-1.7297,-1.7195,-1.9266,-1.975,-1.9553,-2.0106,-2.0887,-2.0881,-2.1046,-2.1077,-2.1039,-2.1071,-2.1039,-2.0912,-2.0195,-2.036,-2.0424,-1.9941,-1.9941,-1.8806,-1.7485,-1.5966,-1.4544,-1.3473,-1.2659,-1.2078,-1.1879,-1.2008,-1.2107,-1.2239,-1.2239,-1.2597,-1.2041,-1.2041,-0.862,-0.862,-0.862,-0.8562,-0.8527,-0.8527,-0.85,-0.8454,-0.8348,-0.8353,-0.8304,-0.8239,-0.8202,-0.8196,-0.8147,-0.8125,-0.8134,-0.8168,-0.8193,-0.8202,-0.8202,-0.8245,-0.8315,-0.8321,-0.8492,-0.8735,-0.8708,-0.8767,-0.8957,-0.8942,-0.8938,-0.8977,-0.8958,-0.8857,-0.8881,-0.902,-0.9007,-0.8914,-0.9081,-0.913,-0.8996,-0.9098,-0.9072,-0.8901,-0.8668,-0.8629,-0.874,-0.874,-0.8795,-0.8909,-1.0124,-1.1013,-1.1582,-1.3519,-1.5389,-1.6747,-1.7044,-1.6957,-1.6786,-1.7155,-1.7332,-1.6944,-1.7214,-1.7608,-1.7798,-1.8059,-1.8414,-1.8875,-1.9267,-1.9506,-1.9606,-1.9668,-1.959,-1.9264,-1.913,-1.9092,-1.9112,-1.9106,-1.9234,-1.9527,-1.9623,-1.9623,-1.9623,-2.0494,-2.0881,-2.0519,-2.0786,-2.1039,-2.1102,-2.1102,-2.1102,-2.1102,-2.1102,-2.1102,-2.1071,-2.1071,-2.1039,-2.1039,-2.0811,-2.01,-1.91,-1.8614,-1.7324,-1.6101,-1.487,-1.4642,-1.4418,-1.3866,-1.3669,-1.2923,-1.3021,-1.3604,-1.3801,-1.3637,-1.3571,-0.862,-0.862,-0.862,-0.862,-0.862,-0.862,-0.862,-0.8612,-0.8505,-0.844,-0.8456,-0.835,-0.8348,-0.8315,-0.8348,-0.8315,-0.831,-0.8283,-0.8283,-0.8315,-0.8318,-0.8424,-0.859,-0.8506,-0.8676,-0.9019,-0.896,-0.903,-0.9249,-0.9246,-0.9281,-0.9393,-0.9256,-0.9186,-0.9217,-0.9366,-0.9402,-0.9387,-0.9556,-0.9605,-0.9502,-0.9887,-1.0033,-1.0048,-1.019,-0.9857,-0.9167,-0.9441,-0.9665,-0.9872,-1.1306,-1.2434,-1.3022,-1.4551,-1.6018,-1.7062,-1.7219,-1.7321,-1.7449,-1.7485,-1.7485,-1.7485,-1.7485,-1.7656,-1.8067,-1.8374,-1.8793,-1.9338,-1.9798,-2.0092,-2.0227,-2.0354,-2.0393,-2.0297,-2.0259,-2.0386,-2.0704,-2.0736,-2.0792,-2.0881,-2.0912,-2.1007,-2.1102,-2.1071,-2.1071,-2.1102,-2.1102,-2.1102,-2.1102,-2.1102,-2.1102,-2.1102,-2.1102,-2.1102,-2.1102,-2.1102,-2.1102,-2.1102,-2.1071,-2.036,-1.9712,-1.9297,-1.8716,-1.756,-1.7077,-1.7044,-1.6689,-1.6101,-1.5294,-1.4324,-1.4679,-1.5391,-1.5489,-1.5521,-1.5391,-0.862,-0.862,-0.862,-0.862,-0.862,-0.862,-0.862,-0.8617,-0.8579,-0.8568,-0.8562,-0.8601,-0.8549,-0.8568,-0.8546,-0.8604,-0.8604,-0.8489,-0.8497,-0.8579,-0.856,-0.8726,-0.9003,-0.8701,-0.8759,-0.9127,-0.9023,-0.9127,-0.9376,-0.9469,-0.9648,-0.9898,-0.9771,-0.967,-0.9758,-0.9727,-0.9758,-0.9741,-0.9765,-0.9771,-0.9774,-1.0779,-1.1323,-1.1467,-1.236,-1.1897,-0.9729,-1.0678,-1.1245,-1.1515,-1.3392,-1.5523,-1.6235,-1.6707,-1.7092,-1.7342,-1.749,-1.7502,-1.7479,-1.7485,-1.7485,-1.7485,-1.7514,-1.7794,-1.8337,-1.8694,-1.9116,-1.9722,-2.0223,-2.057,-2.0627,-2.0831,-2.0894,-2.0672,-2.0609,-2.0736,-2.0951,-2.1077,-2.1071,-2.1102,-2.1102,-2.1102,-2.1102,-2.1102,-2.1102,-2.1102,-2.1102,-2.1102,-2.1102,-2.1102,-2.1102,-2.1102,-2.1102,-2.1102,-2.1102,-2.1102,-2.1102,-2.1071,-2.1039,-2.0716,-2.0036,-1.9584,-1.9361,-1.846,-1.8299,-1.8235,-1.7651,-1.7103,-1.685,-1.6268,-1.6786,-1.6942,-1.7007,-1.6974,-1.6974,-0.862,-0.862,-0.862,-0.862,-0.862,-0.862,-0.862,-0.862,-0.862,-0.862,-0.862,-0.862,-0.862,-0.862,-0.862,-0.8717,-0.8948,-0.888,-0.8787,-0.8648,-0.862,-0.8817,-0.8984,-0.8784,-0.8842,-0.9324,-0.9801,-0.9967,-0.9955,-0.987,-0.9894,-0.996,-0.9866,-0.9795,-0.9788,-0.9788,-0.9788,-0.9788,-0.9788,-1.0155,-1.0959,-1.1431,-1.2047,-1.289,-1.3348,-1.3083,-1.2429,-1.2523,-1.2608,-1.2608,-1.3428,-1.4571,-1.5765,-1.6054,-1.6505,-1.7349,-1.7485,-1.7485,-1.7485,-1.7485,-1.7485,-1.7543,-1.7726,-1.8126,-1.8673,-1.9212,-1.9738,-2.0314,-2.0716,-2.0957,-2.0982,-2.1014,-2.1046,-2.0982,-2.0951,-2.0951,-2.1077,-2.1102,-2.1102,-2.1102,-2.1102,-2.1102,-2.1102,-2.1102,-2.1102,-2.1102,-2.1102,-2.1102,-2.1102,-2.1102,-2.1102,-2.1102,-2.1102,-2.1102,-2.1102,-2.1102,-2.1102,-2.1102,-2.1071,-2.1039,-2.0424,-2.0075,-1.9846,-1.9686,-1.9527,-1.9234,-1.862,-1.8299,-1.8107,-1.785,-1.7876,-1.8037,-1.8294,-1.839,-1.839,-0.862,-0.862,-0.862,-0.862,-0.862,-0.862,-0.862,-0.862,-0.862,-0.8687,-0.8787,-0.8784,-0.8853,-0.8989,-0.9023,-0.9123,-0.9322,-0.9322,-0.9222,-0.9023,-0.9023,-0.9189,-0.9452,-0.9286,-0.9218,-0.9462,-0.9951,-1.0169,-1.0107,-0.9979,-0.9961,-0.9953,-0.9866,-0.9788,-0.9788,-0.9819,-0.997,-1.0365,-1.0092,-1.0634,-1.2049,-1.244,-1.3066,-1.4257,-1.4857,-1.5095,-1.5104,-1.4885,-1.457,-1.4296,-1.4599,-1.5389,-1.6214,-1.6373,-1.6679,-1.7244,-1.7485,-1.7485,-1.7485,-1.7485,-1.7485,-1.755,-1.7906,-1.8411,-1.9005,-1.9596,-2.0189,-2.0753,-2.0971,-2.1102,-2.1071,-2.1102,-2.1102,-2.1071,-2.1071,-2.1102,-2.1102,-2.1102,-2.1102,-2.1102,-2.1102,-2.1102,-2.1102,-2.1102,-2.1102,-2.1102,-2.1102,-2.1102,-2.1102,-2.1102,-2.1102,-2.1102,-2.1102,-2.1102,-2.1102,-2.1102,-2.1102,-2.1102,-2.1071,-2.1071,-2.0811,-2.0748,-2.0589,-2.0557,-2.0424,-2.0335,-1.9814,-1.9782,-1.9654,-1.9361,-1.9036,-1.9457,-1.9776,-1.9776,-1.9782,-0.862,-0.862,-0.862,-0.8653,-0.8653,-0.8653,-0.8687,-0.8653,-0.8687,-0.8887,-0.9084,-0.9153,-0.9322,-0.9594,-0.9594,-0.9631,-0.9731,-0.9728,-0.9761,-0.9728,-0.9761,-0.9857,-0.9957,-1.0057,-0.9915,-0.9616,-0.9758,-0.9834,-0.9903,-0.9878,-0.9866,-0.9961,-0.9856,-0.9788,-0.9849,-0.9849,-1.0573,-1.1239,-1.0634,-1.1503,-1.3665,-1.3784,-1.4411,-1.5663,-1.6649,-1.7179,-1.7079,-1.7038,-1.6686,-1.6007,-1.6633,-1.712,-1.742,-1.7485,-1.7426,-1.7485,-1.7485,-1.7485,-1.7485,-1.7485,-1.7509,-1.7587,-1.8065,-1.865,-1.9278,-1.9835,-2.0399,-2.0952,-2.1089,-2.1102,-2.1102,-2.1102,-2.1102,-2.1102,-2.1102,-2.1102,-2.1102,-2.1102,-2.1102,-2.1102,-2.1102,-2.1102,-2.1102,-2.1102,-2.1102,-2.1102,-2.1102,-2.1102,-2.1102,-2.1102,-2.1102,-2.1102,-2.1102,-2.1102,-2.1102,-2.1102,-2.1102,-2.1102,-2.1102,-2.1102,-2.1102,-2.1102,-2.1102,-2.1102,-2.1071,-2.1039,-2.0976,-2.0716,-2.0684,-2.0424,-2.0519,-2.1007,-2.0976,-2.0716,-2.0621,-0.895,-0.8984,-0.8984,-0.895,-0.8984,-0.895,-0.895,-0.902,-0.9289,-0.9428,-0.9525,-0.9525,-0.9594,-0.9697,-0.9731,-0.9827,-1.0027,-1.0057,-1.0223,-1.0425,-1.0422,-1.016,-1.0027,-1.0352,-1.0317,-0.9954,-1.0119,-1.0161,-0.9961,-0.9932,-0.9923,-0.9846,-0.9825,-0.9819,-0.9879,-1.0725,-1.1299,-1.1812,-1.2466,-1.3331,-1.4763,-1.5065,-1.5723,-1.6885,-1.7332,-1.7485,-1.7485,-1.7485,-1.7397,-1.7097,-1.7267,-1.7485,-1.7485,-1.7485,-1.7485,-1.7485,-1.7485,-1.7485,-1.7485,-1.7491,-1.7569,-1.781,-1.8231,-1.8749,-1.9515,-1.9978,-2.0478,-2.0934,-2.1102,-2.1102,-2.1102,-2.1102,-2.1102,-2.1102,-2.1102,-2.1102,-2.1102,-2.1102,-2.1102,-2.1102,-2.1102,-2.1102,-2.1102,-2.1102,-2.1102,-2.1102,-2.1102,-2.1102,-2.1102,-2.1102,-2.1102,-2.1102,-2.1102,-2.1102,-2.1102,-2.1102,-2.1102,-2.1102,-2.1102,-2.1102,-2.1102,-2.1102,-2.1102,-2.1102,-2.1102,-2.1071,-2.1071,-2.0976,-2.1071,-2.1102,-2.1102,-2.1102,-2.1102,-2.0944,-2.0944,-0.9356,-0.9356,-0.9356,-0.9356,-0.9356,-0.9356,-0.9356,-0.9389,-0.9594,-0.9797,-0.9894,-0.9894,-0.999,-1.0093,-1.0123,-1.0226,-1.0389,-1.0389,-1.0522,-1.0654,-1.0688,-1.0489,-1.0323,-1.0552,-1.0538,-1.033,-1.0423,-1.037,-1.0207,-1.0086,-0.9971,-0.9896,-0.9822,-1.0065,-1.0694,-1.1269,-1.235,-1.3156,-1.3725,-1.453,-1.6231,-1.5841,-1.629,-1.7214,-1.7485,-1.7485,-1.7485,-1.7485,-1.7485,-1.7485,-1.7485,-1.7485,-1.7485,-1.7485,-1.7485,-1.7485,-1.7485,-1.7485,-1.7509,-1.7575,-1.7714,-1.8009,-1.847,-1.911,-1.9679,-2.0207,-2.0805,-2.1006,-2.1071,-2.1102,-2.1102,-2.1102,-2.1102,-2.1102,-2.1102,-2.1102,-2.1102,-2.1102,-2.1102,-2.1102,-2.1102,-2.1102,-2.1102,-2.1102,-2.1102,-2.1102,-2.1102,-2.1102,-2.1102,-2.1102,-2.1102,-2.1102,-2.1102,-2.1102,-2.1102,-2.1102,-2.1102,-2.1102,-2.1102,-2.1102,-2.1102,-2.1102,-2.1102,-2.1102,-2.1102,-2.1102,-2.1102,-2.1102,-2.1102,-2.1102,-2.1102,-2.1102,-2.1102,-2.1102,-2.1102,-0.9761,-0.9761,-0.9761,-0.9731,-0.9761,-0.9761,-0.9728,-0.9761,-0.9861,-1.0027,-1.0226,-1.0256,-1.0389,-1.0721,-1.0588,-1.0688,-1.0684,-1.0654,-1.0688,-1.0721,-1.0721,-1.0654,-1.0621,-1.0654,-1.0677,-1.0617,-1.0539,-1.051,-1.0409,-1.018,-1.0072,-1.0118,-1.0098,-1.0685,-1.157,-1.2095,-1.3449,-1.4803,-1.4768,-1.5421,-1.6797,-1.6502,-1.6585,-1.7273,-1.7485,-1.7485,-1.7485,-1.7485,-1.7485,-1.7485,-1.7485,-1.7485,-1.7485,-1.7485,-1.7485,-1.7485,-1.7485,-1.7497,-1.7557,-1.7774,-1.7949,-1.8173,-1.9007,-1.9687,-1.9888,-2.0439,-2.0949,-2.1071,-2.1071,-2.1102,-2.1102,-2.1102,-2.1102,-2.1102,-2.1102,-2.1102,-2.1102,-2.1102,-2.1102,-2.1102,-2.1102,-2.1102,-2.1102,-2.1102,-2.1102,-2.1102,-2.1102,-2.1102,-2.1102,-2.1102,-2.1102,-2.1102,-2.1102,-2.1102,-2.1102,-2.1102,-2.1102,-2.1102,-2.1102,-2.1102,-2.1102,-2.1102,-2.1102,-2.1102,-2.1102,-2.1102,-2.1102,-2.1102,-2.1102,-2.1102,-2.1102,-2.1102,-2.1102,-2.1102,-2.1102,-1.009,-1.0093,-1.009,-1.0093,-1.009,-1.009,-1.009,-1.0123,-1.0356,-1.0489,-1.0588,-1.0588,-1.0621,-1.0721,-1.0721,-1.0721,-1.0721,-1.0721,-1.0721,-1.0721,-1.0721,-1.0721,-1.0721,-1.0721,-1.0721,-1.0674,-1.069,-1.0609,-1.049,-1.0419,-1.0334,-1.0384,-1.1064,-1.1899,-1.2243,-1.3866,-1.5112,-1.5731,-1.6207,-1.6749,-1.7185,-1.7214,-1.7126,-1.7485,-1.7485,-1.7485,-1.7485,-1.7485,-1.7485,-1.7485,-1.7485,-1.7485,-1.7485,-1.7497,-1.7509,-1.7521,-1.7521,-1.7623,-1.7786,-1.7913,-1.8101,-1.85,-1.8994,-1.9487,-2.003,-2.0423,-2.0831,-2.1014,-2.1102,-2.1102,-2.1102,-2.1102,-2.1102,-2.1102,-2.1102,-2.1102,-2.1102,-2.1102,-2.1102,-2.1102,-2.1102,-2.1102,-2.1102,-2.1102,-2.1102,-2.1102,-2.1102,-2.1102,-2.1102,-2.1102,-2.1102,-2.1102,-2.1102,-2.1102,-2.1102,-2.1102,-2.1102,-2.1102,-2.1102,-2.1102,-2.1102,-2.1102,-2.1102,-2.1102,-2.1102,-2.1102,-2.1102,-2.1102,-2.1102,-2.1102,-2.1102,-2.1102,-2.1102,-2.1102,-2.1102,-1.0422,-1.0422,-1.0422,-1.0422,-1.0422,-1.0422,-1.0422,-1.0489,-1.0618,-1.0721,-1.0721,-1.0721,-1.0721,-1.0721,-1.0721,-1.0721,-1.0721,-1.0721,-1.0721,-1.0721,-1.0721,-1.0721,-1.0721,-1.0721,-1.0721,-1.0721,-1.0717,-1.0663,-1.0605,-1.0593,-1.0826,-1.1233,-1.1512,-1.2532,-1.3664,-1.491,-1.5689,-1.6665,-1.7268,-1.7641,-1.7503,-1.7485,-1.7485,-1.7485,-1.7485,-1.7485,-1.7485,-1.7485,-1.7485,-1.7485,-1.7485,-1.7485,-1.7521,-1.7599,-1.7689,-1.7708,-1.7847,-1.7931,-1.8082,-1.8227,-1.8415,-1.8687,-1.9091,-1.9587,-2.003,-2.0418,-2.0736,-2.0982,-2.1102,-2.1102,-2.1102,-2.1102,-2.1102,-2.1102,-2.1102,-2.1102,-2.1102,-2.1102,-2.1102,-2.1102,-2.1102,-2.1102,-2.1102,-2.1102,-2.1102,-2.1102,-2.1102,-2.1102,-2.1102,-2.1102,-2.1102,-2.1102,-2.1102,-2.1102,-2.1102,-2.1102,-2.1102,-2.1102,-2.1102,-2.1102,-2.1102,-2.1102,-2.1102,-2.1102,-2.1102,-2.1102,-2.1102,-2.1102,-2.1102,-2.1102,-2.1102,-2.1102,-2.1102,-2.1102,-2.1102,-1.0721,-1.0721,-1.0721,-1.0721,-1.0721,-1.0688,-1.0688,-1.0684,-1.0721,-1.0721,-1.0721,-1.0721,-1.0721,-1.0721,-1.0721,-1.0721,-1.0721,-1.0721,-1.0721,-1.0721,-1.0721,-1.0721,-1.0721,-1.0721,-1.0721,-1.0721,-1.0721,-1.0707,-1.0673,-1.0668,-1.1192,-1.2116,-1.1441,-1.2853,-1.5285,-1.5447,-1.5845,-1.7545,-1.7871,-1.7847,-1.7647,-1.7569,-1.7557,-1.7485,-1.7485,-1.7485,-1.7485,-1.7485,-1.7503,-1.7539,-1.7575,-1.7599,-1.7677,-1.7762,-1.7943,-1.7955,-1.8125,-1.8251,-1.8354,-1.8523,-1.8668,-1.8766,-1.927,-1.9712,-2.0062,-2.0418,-2.0729,-2.0951,-2.1102,-2.1102,-2.1102,-2.1102,-2.1102,-2.1102,-2.1102,-2.1102,-2.1102,-2.1102,-2.1102,-2.1102,-2.1102,-2.1102,-2.1102,-2.1102,-2.1102,-2.1102,-2.1102,-2.1102,-2.1102,-2.1102,-2.1102,-2.1102,-2.1102,-2.1102,-2.1102,-2.1102,-2.1102,-2.1102,-2.1102,-2.1102,-2.1102,-2.1102,-2.1102,-2.1102,-2.1102,-2.1102,-2.1102,-2.1102,-2.1102,-2.1102,-2.1102,-2.1102,-2.1102,-2.1102,-2.1102,-1.0721,-1.0721,-1.0721,-1.0721,-1.0721,-1.0721,-1.0721,-1.0721,-1.0721,-1.0721,-1.0721,-1.0721,-1.0721,-1.0721,-1.0721,-1.0721,-1.0721,-1.0721,-1.0721,-1.0721,-1.0721,-1.0721,-1.0721,-1.0721,-1.0721,-1.0721,-1.0721,-1.0721,-1.0717,-1.0756,-1.1665,-1.2493,-1.2559,-1.4019,-1.5902,-1.6371,-1.6682,-1.8012,-1.8246,-1.8107,-1.7907,-1.7798,-1.7714,-1.7539,-1.7503,-1.7526,-1.7532,-1.7503,-1.7581,-1.781,-1.7828,-1.7968,-1.8052,-1.8028,-1.807,-1.8191,-1.8318,-1.8463,-1.8607,-1.8668,-1.8813,-1.9047,-1.9361,-1.9705,-2.0036,-2.0386,-2.0704,-2.0982,-2.1102,-2.1102,-2.1102,-2.1102,-2.1102,-2.1102,-2.1102,-2.1102,-2.1102,-2.1102,-2.1102,-2.1102,-2.1102,-2.1102,-2.1102,-2.1102,-2.1102,-2.1102,-2.1102,-2.1102,-2.1102,-2.1102,-2.1102,-2.1102,-2.1102,-2.1102,-2.1102,-2.1102,-2.1102,-2.1102,-2.1102,-2.1102,-2.1102,-2.1102,-2.1102,-2.1102,-2.1102,-2.1102,-2.1102,-2.1102,-2.1102,-2.1102,-2.1102,-2.1102,-2.1102,-2.1102,-2.1102,-1.0721,-1.0721,-1.0721,-1.0721,-1.0721,-1.0721,-1.0721,-1.0721,-1.0721,-1.0721,-1.0721,-1.0721,-1.0721,-1.0721,-1.0721,-1.0721,-1.0721,-1.0721,-1.0721,-1.0721,-1.0721,-1.0721,-1.0721,-1.0721,-1.0721,-1.0721,-1.0721,-1.0721,-1.0817,-1.1505,-1.2425,-1.36,-1.3894,-1.5235,-1.7069,-1.7164,-1.7544,-1.8267,-1.8512,-1.8397,-1.8125,-1.801,-1.7822,-1.7738,-1.7605,-1.7587,-1.7702,-1.7714,-1.7853,-1.8064,-1.8125,-1.8239,-1.8397,-1.8433,-1.8379,-1.8487,-1.8607,-1.876,-1.8855,-1.8923,-1.8989,-1.9074,-1.9264,-1.9488,-1.9807,-2.0132,-2.0577,-2.0951,-2.1102,-2.1102,-2.1102,-2.1102,-2.1102,-2.1102,-2.1102,-2.1102,-2.1102,-2.1102,-2.1102,-2.1102,-2.1102,-2.1102,-2.1102,-2.1102,-2.1102,-2.1102,-2.1102,-2.1102,-2.1102,-2.1102,-2.1102,-2.1102,-2.1102,-2.1102,-2.1102,-2.1102,-2.1102,-2.1102,-2.1102,-2.1102,-2.1102,-2.1102,-2.1102,-2.1102,-2.1102,-2.1102,-2.1102,-2.1102,-2.1102,-2.1102,-2.1102,-2.1102,-2.1102,-2.1102,-2.1102,-1.0721,-1.0721,-1.0721,-1.0721,-1.0721,-1.0721,-1.0721,-1.0721,-1.0721,-1.0721,-1.0721,-1.0721,-1.0721,-1.0721,-1.0721,-1.0721,-1.0721,-1.0721,-1.0721,-1.0721,-1.0721,-1.0721,-1.0721,-1.0721,-1.0721,-1.0721,-1.0721,-1.0721,-1.0949,-1.1963,-1.3473,-1.4352,-1.4842,-1.6305,-1.8177,-1.7559,-1.7937,-1.8451,-1.879,-1.8625,-1.8372,-1.8112,-1.7986,-1.7986,-1.7786,-1.7804,-1.7937,-1.7992,-1.8106,-1.8287,-1.8427,-1.8524,-1.8704,-1.8758,-1.8758,-1.8794,-1.8963,-1.908,-1.9098,-1.9092,-1.9074,-1.9104,-1.9104,-1.929,-1.9616,-2.0068,-2.0482,-2.0951,-2.1102,-2.1102,-2.1102,-2.1102,-2.1102,-2.1102,-2.1102,-2.1102,-2.1102,-2.1102,-2.1102,-2.1102,-2.1102,-2.1102,-2.1102,-2.1102,-2.1102,-2.1102,-2.1102,-2.1102,-2.1102,-2.1102,-2.1102,-2.1102,-2.1102,-2.1102,-2.1102,-2.1102,-2.1102,-2.1102,-2.1102,-2.1102,-2.1102,-2.1102,-2.1102,-2.1102,-2.1102,-2.1102,-2.1102,-2.1102,-2.1102,-2.1102,-2.1102,-2.1102,-2.1102,-2.1102,-2.1102,-1.0721,-1.0721,-1.0721,-1.0721,-1.0721,-1.0721,-1.0721,-1.0721,-1.0721,-1.0721,-1.0721,-1.0721,-1.0721,-1.0721,-1.0721,-1.0721,-1.0721,-1.0721,-1.0721,-1.0721,-1.0721,-1.0721,-1.0721,-1.0721,-1.0721,-1.0721,-1.0721,-1.0721,-1.1016,-1.2128,-1.3501,-1.4614,-1.5266,-1.6305,-1.8682,-1.7925,-1.7753,-1.8794,-1.905,-1.8923,-1.8644,-1.8384,-1.8263,-1.8227,-1.8179,-1.8203,-1.8227,-1.8251,-1.8372,-1.8595,-1.8644,-1.877,-1.8976,-1.903,-1.903,-1.903,-1.9092,-1.9104,-1.9104,-1.9104,-1.9104,-1.9104,-1.9104,-1.9258,-1.9679,-2.0189,-2.0672,-2.1007,-2.1102,-2.1102,-2.1102,-2.1102,-2.1102,-2.1102,-2.1102,-2.1102,-2.1102,-2.1102,-2.1102,-2.1102,-2.1102,-2.1102,-2.1102,-2.1102,-2.1102,-2.1102,-2.1102,-2.1102,-2.1102,-2.1102,-2.1102,-2.1102,-2.1102,-2.1102,-2.1102,-2.1102,-2.1102,-2.1102,-2.1102,-2.1102,-2.1102,-2.1102,-2.1102,-2.1102,-2.1102,-2.1102,-2.1102,-2.1102,-2.1102,-2.1102,-2.1102,-2.1102,-2.1102,-2.1102,-2.1102,-1.0721,-1.0721,-1.0721,-1.0721,-1.0721,-1.0721,-1.0721,-1.0721,-1.0721,-1.0721,-1.0721,-1.0721,-1.0721,-1.0721,-1.0721,-1.0721,-1.0721,-1.0721,-1.0721,-1.0721,-1.0721,-1.0721,-1.0721,-1.0721,-1.0721,-1.0721,-1.0721,-1.0721,-1.1148,-1.2165,-1.3534,-1.481,-1.5786,-1.705,-1.8944,-1.8483,-1.8579,-1.8964,-1.9092,-1.905,-1.8905,-1.8699,-1.8548,-1.8542,-1.8384,-1.8402,-1.8487,-1.8523,-1.865,-1.8849,-1.8935,-1.8977,-1.9074,-1.9104,-1.9104,-1.9104,-1.9104,-1.9104,-1.9104,-1.9104,-1.9104,-1.9104,-1.9136,-1.9328,-1.9813,-2.0291,-2.0736,-2.1077,-2.1071,-2.1102,-2.1102,-2.1102,-2.1102,-2.1102,-2.1102,-2.1102,-2.1102,-2.1102,-2.1102,-2.1102,-2.1102,-2.1102,-2.1102,-2.1102,-2.1102,-2.1102,-2.1102,-2.1102,-2.1102,-2.1102,-2.1102,-2.1102,-2.1102,-2.1102,-2.1102,-2.1102,-2.1102,-2.1102,-2.1102,-2.1102,-2.1102,-2.1102,-2.1102,-2.1102,-2.1102,-2.1102,-2.1102,-2.1102,-2.1102,-2.1102,-2.1102,-2.1102,-2.1102,-2.1102,-2.1102,-1.0721,-1.0721,-1.0721,-1.0721,-1.0721,-1.0721,-1.0721,-1.0721,-1.0721,-1.0721,-1.0721,-1.0721,-1.0721,-1.0721,-1.0721,-1.0721,-1.0721,-1.0721,-1.0721,-1.0721,-1.0721,-1.0721,-1.0721,-1.0721,-1.0721,-1.0721,-1.0721,-1.0982,-1.1608,-1.2359,-1.3501,-1.494,-1.6726,-1.7963,-1.8778,-1.9008,-1.904,-1.9072,-1.9104,-1.9092,-1.905,-1.8917,-1.8832,-1.8753,-1.8657,-1.8577,-1.8746,-1.8814,-1.8941,-1.9032,-1.9074,-1.908,-1.9104,-1.9104,-1.9104,-1.9104,-1.9104,-1.9104,-1.9104,-1.9104,-1.9104,-1.9104,-1.9168,-1.9366,-1.9979,-2.0361,-2.0704,-2.1052,-2.1071,-2.1102,-2.1102,-2.1102,-2.1102,-2.1102,-2.1102,-2.1102,-2.1102,-2.1102,-2.1102,-2.1102,-2.1102,-2.1102,-2.1102,-2.1102,-2.1102,-2.1102,-2.1102,-2.1102,-2.1102,-2.1102,-2.1102,-2.1102,-2.1102,-2.1102,-2.1102,-2.1102,-2.1102,-2.1102,-2.1102,-2.1102,-2.1102,-2.1102,-2.1102,-2.1102,-2.1102,-2.1102,-2.1102,-2.1102,-2.1102,-2.1102,-2.1102,-2.1102,-2.1102,-2.1102,-2.1102,-1.0721,-1.0721,-1.0721,-1.0721,-1.0721,-1.0721,-1.0721,-1.0721,-1.0721,-1.0721,-1.0721,-1.0721,-1.0721,-1.0721,-1.0721,-1.0721,-1.0721,-1.0721,-1.0721,-1.0721,-1.0721,-1.0721,-1.0721,-1.0721,-1.0721,-1.0721,-1.0717,-1.1409,-1.2392,-1.2816,-1.3796,-1.5038,-1.7179,-1.8483,-1.9072,-1.9104,-1.9104,-1.9104,-1.9104,-1.9104,-1.9104,-1.9062,-1.905,-1.905,-1.9044,-1.9062,-1.9074,-1.905,-1.9044,-1.9104,-1.9104,-1.9104,-1.9104,-1.9104,-1.9104,-1.9104,-1.9104,-1.9104,-1.9104,-1.9104,-1.9104,-1.9104,-1.9232,-1.9494,-2.0043,-2.0138,-2.0482,-2.1014,-2.1071,-2.1102,-2.1102,-2.1102,-2.1102,-2.1102,-2.1102,-2.1102,-2.1102,-2.1102,-2.1102,-2.1102,-2.1102,-2.1102,-2.1102,-2.1102,-2.1102,-2.1102,-2.1102,-2.1102,-2.1102,-2.1102,-2.1102,-2.1102,-2.1102,-2.1102,-2.1102,-2.1102,-2.1102,-2.1102,-2.1102,-2.1102,-2.1102,-2.1102,-2.1102,-2.1102,-2.1102,-2.1102,-2.1102,-2.1102,-2.1102,-2.1102,-2.1102,-2.1102,-2.1102,-2.1102,-2.1102,-1.0721,-1.0721,-1.0721,-1.0721,-1.0721,-1.0721,-1.0721,-1.0721,-1.0721,-1.0721,-1.0721,-1.0721,-1.0721,-1.0721,-1.0721,-1.0721,-1.0721,-1.0721,-1.0721,-1.0721,-1.0721,-1.0721,-1.0721,-1.075,-1.0721,-1.0784,-1.0817,-1.1406,-1.2684,-1.3665,-1.4935,-1.63,-1.7566,-1.8221,-1.8746,-1.9104,-1.9104,-1.9104,-1.9104,-1.9104,-1.9104,-1.9104,-1.9104,-1.9104,-1.9104,-1.9104,-1.9098,-1.9104,-1.9104,-1.9104,-1.9104,-1.9104,-1.9104,-1.9104,-1.9104,-1.9104,-1.9104,-1.9104,-1.9104,-1.9104,-1.9104,-1.9206,-1.9462,-1.9813,-2.0106,-2.0425,-2.0736,-2.1046,-2.1102,-2.1102,-2.1102,-2.1102,-2.1102,-2.1102,-2.1102,-2.1102,-2.1102,-2.1102,-2.1102,-2.1102,-2.1102,-2.1102,-2.1102,-2.1102,-2.1102,-2.1102,-2.1102,-2.1102,-2.1102,-2.1102,-2.1102,-2.1102,-2.1102,-2.1102,-2.1102,-2.1102,-2.1102,-2.1102,-2.1102,-2.1102,-2.1102,-2.1102,-2.1102,-2.1102,-2.1102,-2.1102,-2.1102,-2.1102,-2.1102,-2.1102,-2.1102,-2.1102,-2.1102,-2.1102,-2.1102,-1.0721,-1.0721,-1.0721,-1.0721,-1.0721,-1.0721,-1.0721,-1.0721,-1.0721,-1.0721,-1.0721,-1.0721,-1.0721,-1.0721,-1.0721,-1.0721,-1.0721,-1.0721,-1.0721,-1.0721,-1.0721,-1.0721,-1.085,-1.1144,-1.1538,-1.1409,-1.1963,-1.2812,-1.4343,-1.5098,-1.6273,-1.7211,-1.7662,-1.8413,-1.881,-1.9104,-1.9104,-1.9104,-1.9104,-1.9104,-1.9104,-1.9104,-1.9104,-1.9104,-1.9104,-1.9104,-1.9104,-1.9104,-1.9104,-1.9104,-1.9104,-1.9104,-1.9104,-1.9104,-1.9104,-1.9104,-1.9104,-1.9104,-1.9104,-1.9104,-1.9104,-1.9168,-1.9558,-1.9877,-2.0202,-2.0609,-2.0862,-2.1071,-2.1102,-2.1102,-2.1102,-2.1102,-2.1102,-2.1102,-2.1102,-2.1102,-2.1102,-2.1102,-2.1102,-2.1102,-2.1102,-2.1102,-2.1102,-2.1102,-2.1102,-2.1102,-2.1102,-2.1102,-2.1102,-2.1102,-2.1102,-2.1102,-2.1102,-2.1102,-2.1102,-2.1102,-2.1102,-2.1102,-2.1102,-2.1102,-2.1102,-2.1102,-2.1102,-2.1102,-2.1102,-2.1102,-2.1102,-2.1102,-2.1102,-2.1102,-2.1102,-2.1102,-2.1102,-2.1102,-2.1102,-1.0721,-1.0721,-1.0721,-1.0721,-1.0721,-1.0721,-1.0721,-1.0721,-1.0721,-1.0721,-1.0721,-1.0721,-1.0721,-1.0721,-1.0721,-1.0721,-1.0721,-1.0721,-1.0721,-1.0721,-1.0721,-1.0721,-1.1144,-1.1703,-1.2326,-1.3009,-1.3632,-1.4768,-1.6489,-1.6559,-1.7571,-1.8515,-1.8842,-1.8938,-1.9104,-1.9104,-1.9104,-1.9104,-1.9136,-1.9168,-1.9232,-1.9232,-1.92,-1.92,-1.9104,-1.9104,-1.9104,-1.9104,-1.9104,-1.9104,-1.9104,-1.9104,-1.9104,-1.9104,-1.9104,-1.9104,-1.9104,-1.9104,-1.9104,-1.9104,-1.9104,-1.9136,-1.952,-1.9775,-2.0068,-2.0418,-2.0767,-2.0951,-2.1077,-2.1071,-2.1102,-2.1102,-2.1102,-2.1102,-2.1102,-2.1102,-2.1102,-2.1102,-2.1102,-2.1102,-2.1102,-2.1102,-2.1102,-2.1102,-2.1102,-2.1102,-2.1102,-2.1102,-2.1102,-2.1102,-2.1102,-2.1102,-2.1102,-2.1102,-2.1102,-2.1102,-2.1102,-2.1102,-2.1102,-2.1102,-2.1102,-2.1102,-2.1102,-2.1102,-2.1102,-2.1102,-2.1102,-2.1102,-2.1102,-2.1102,-2.1102,-2.1102,-2.1102,-2.1102,-2.1102,-1.0721,-1.0721,-1.0721,-1.0721,-1.0721,-1.0721,-1.0721,-1.0721,-1.0721,-1.0721,-1.0721,-1.0721,-1.0721,-1.0721,-1.0787,-1.0787,-1.0721,-1.0721,-1.0721,-1.075,-1.0883,-1.0721,-1.1211,-1.2293,-1.2947,-1.321,-1.4254,-1.5814,-1.6883,-1.7335,-1.8183,-1.9092,-1.9558,-1.9488,-1.9232,-1.9136,-1.9168,-1.9386,-1.945,-1.9514,-1.9686,-1.9558,-1.9424,-1.9392,-1.9232,-1.9104,-1.9104,-1.9104,-1.9104,-1.9104,-1.9104,-1.9104,-1.9104,-1.9104,-1.9104,-1.9104,-1.9104,-1.9104,-1.9104,-1.9104,-1.9104,-1.92,-1.9456,-1.9679,-1.9807,-2.0323,-2.0577,-2.0799,-2.1014,-2.1046,-2.1102,-2.1102,-2.1102,-2.1102,-2.1102,-2.1102,-2.1102,-2.1102,-2.1102,-2.1102,-2.1102,-2.1102,-2.1102,-2.1102,-2.1102,-2.1102,-2.1102,-2.1102,-2.1102,-2.1102,-2.1102,-2.1102,-2.1102,-2.1102,-2.1102,-2.1102,-2.1102,-2.1102,-2.1102,-2.1102,-2.1102,-2.1102,-2.1102,-2.1102,-2.1102,-2.1102,-2.1102,-2.1102,-2.1102,-2.1102,-2.1102,-2.1102,-2.1102,-2.1102,-2.1102,-1.0721,-1.0721,-1.0721,-1.0721,-1.0721,-1.0721,-1.0721,-1.0721,-1.0721,-1.0721,-1.0721,-1.0721,-1.0721,-1.0817,-1.1178,-1.0949,-1.0883,-1.1868,-1.1637,-1.1637,-1.2066,-1.2326,-1.2783,-1.337,-1.4507,-1.4637,-1.5586,-1.705,-1.8048,-1.8177,-1.883,-1.9577,-1.9973,-1.9819,-1.959,-1.9526,-1.9584,-1.9743,-1.9781,-1.9839,-1.9909,-1.9781,-1.9577,-1.9482,-1.9328,-1.9104,-1.9104,-1.9104,-1.9104,-1.9104,-1.9104,-1.9104,-1.9136,-1.92,-1.9232,-1.9264,-1.9258,-1.9232,-1.9136,-1.9104,-1.9104,-1.9136,-1.952,-1.9749,-1.9903,-2.0443,-2.0704,-2.0894,-2.0951,-2.1014,-2.1071,-2.1071,-2.1102,-2.1102,-2.1102,-2.1102,-2.1102,-2.1102,-2.1102,-2.1102,-2.1102,-2.1102,-2.1102,-2.1102,-2.1102,-2.1102,-2.1102,-2.1102,-2.1102,-2.1102,-2.1102,-2.1102,-2.1102,-2.1102,-2.1102,-2.1102,-2.1102,-2.1102,-2.1102,-2.1102,-2.1102,-2.1102,-2.1102,-2.1102,-2.1102,-2.1102,-2.1102,-2.1102,-2.1102,-2.1102,-2.1102,-2.1102,-2.1102,-2.1102,-2.1102,-1.0721,-1.0721,-1.0721,-1.0721,-1.0717,-1.085,-1.085,-1.0717,-1.0721,-1.0721,-1.0721,-1.0817,-1.1049,-1.1181,-1.226,-1.226,-1.1571,-1.3473,-1.3243,-1.314,-1.3276,-1.3899,-1.4646,-1.5646,-1.6003,-1.7012,-1.7893,-1.8355,-1.9412,-1.9348,-1.9616,-2.0068,-2.0259,-2.0202,-2.017,-2.0132,-2.0132,-2.0132,-2.0132,-2.0195,-2.0265,-1.9966,-1.9839,-1.9711,-1.9456,-1.9296,-1.9232,-1.9168,-1.9174,-1.9142,-1.9174,-1.9142,-1.9232,-1.9456,-1.9545,-1.9577,-1.9577,-1.9456,-1.9264,-1.9232,-1.9264,-1.9392,-1.9819,-2.0043,-2.017,-2.0412,-2.064,-2.0799,-2.0856,-2.0951,-2.1039,-2.1071,-2.1102,-2.1102,-2.1102,-2.1102,-2.1102,-2.1102,-2.1102,-2.1102,-2.1102,-2.1102,-2.1102,-2.1102,-2.1102,-2.1102,-2.1102,-2.1102,-2.1102,-2.1102,-2.1102,-2.1102,-2.1102,-2.1102,-2.1102,-2.1102,-2.1102,-2.1102,-2.1102,-2.1102,-2.1102,-2.1102,-2.1102,-2.1102,-2.1102,-2.1102,-2.1102,-2.1102,-2.1102,-2.1102,-2.1102,-2.1102,-2.1102,-2.1102,-2.1102,-1.0721,-1.0721,-1.0721,-1.0721,-1.085,-1.1769,-1.1637,-1.0784,-1.0721,-1.0721,-1.0754,-1.1769,-1.2165,-1.2326,-1.3669,-1.3862,-1.3698,-1.3436,-1.3112,-1.3309,-1.3988,-1.36,-1.4381,-1.5971,-1.6748,-1.7501,-1.8317,-1.9174,-1.9328,-1.9647,-2.0284,-2.0736,-2.0704,-2.0736,-2.0736,-2.0799,-2.064,-2.052,-2.045,-2.0545,-2.0609,-2.038,-2.0284,-2.0094,-1.9711,-1.959,-1.9622,-1.9334,-1.9302,-1.9424,-1.9456,-1.9456,-1.9482,-1.9743,-1.9909,-1.9647,-1.9743,-1.9845,-1.959,-1.9692,-1.9756,-1.9781,-2.017,-2.0062,-2.0062,-2.0195,-2.0513,-2.0672,-2.0792,-2.0887,-2.0982,-2.1007,-2.1071,-2.1102,-2.1102,-2.1102,-2.1102,-2.1102,-2.1102,-2.1102,-2.1102,-2.1102,-2.1102,-2.1102,-2.1102,-2.1102,-2.1102,-2.1102,-2.1102,-2.1102,-2.1102,-2.1102,-2.1102,-2.1102,-2.1102,-2.1102,-2.1102,-2.1102,-2.1102,-2.1102,-2.1102,-2.1102,-2.1102,-2.1102,-2.1102,-2.1102,-2.1102,-2.1102,-2.1102,-2.1102,-2.1102,-2.1102,-2.1102,-2.1102,-2.1102,-1.0721,-1.0784,-1.131,-1.1835,-1.2392,-1.2651,-1.2524,-1.2326,-1.2355,-1.2359,-1.2491,-1.3272,-1.3637,-1.3862,-1.5001,-1.5396,-1.481,-1.5619,-1.5484,-1.4898,-1.4768,-1.5586,-1.6236,-1.6721,-1.7662,-1.8221,-1.8547,-1.92,-1.9424,-1.9941,-2.0577,-2.0799,-2.1021,-2.1077,-2.1039,-2.1014,-2.0957,-2.0862,-2.0831,-2.0919,-2.0887,-2.0799,-2.064,-2.0513,-2.0036,-2.0004,-2.0074,-1.9622,-1.9647,-1.9775,-1.9813,-1.9807,-1.9839,-2.01,-2.0259,-2.0094,-2.0164,-2.01,-1.9909,-1.9947,-2.0081,-2.0208,-2.0425,-2.0386,-2.0348,-2.0475,-2.0609,-2.0704,-2.0761,-2.0824,-2.0887,-2.0944,-2.1007,-2.1102,-2.1102,-2.1102,-2.1102,-2.1102,-2.1102,-2.1102,-2.1102,-2.1102,-2.1102,-2.1102,-2.1102,-2.1102,-2.1102,-2.1102,-2.1102,-2.1102,-2.1102,-2.1102,-2.1102,-2.1102,-2.1102,-2.1102,-2.1102,-2.1102,-2.1102,-2.1102,-2.1102,-2.1102,-2.1102,-2.1102,-2.1102,-2.1102,-2.1102,-2.1102,-2.1102,-2.1102,-2.1102,-2.1102,-2.1102,-2.1102,-2.1102,-1.0784,-1.1045,-1.2359,-1.3731,-1.4777,-1.3829,-1.4025,-1.5173,-1.5233,-1.5038,-1.4842,-1.4973,-1.5066,-1.5326,-1.6462,-1.6532,-1.6435,-1.705,-1.698,-1.6947,-1.7179,-1.7571,-1.7797,-1.8976,-1.8676,-1.8938,-1.9168,-1.9296,-1.9711,-2.0189,-2.0577,-2.064,-2.0957,-2.1077,-2.1102,-2.1102,-2.1046,-2.1014,-2.1014,-2.1039,-2.0982,-2.0831,-2.0609,-2.0609,-2.0354,-2.0202,-2.0202,-2.0138,-2.0106,-2.0106,-2.0138,-2.0138,-2.0323,-2.045,-2.0577,-2.0577,-2.0577,-2.045,-2.0259,-2.0259,-2.0297,-2.0361,-2.045,-2.0609,-2.0697,-2.0634,-2.0666,-2.0704,-2.0761,-2.0792,-2.0824,-2.0944,-2.1071,-2.1102,-2.1102,-2.1102,-2.1102,-2.1102,-2.1102,-2.1102,-2.1102,-2.1102,-2.1102,-2.1102,-2.1102,-2.1102,-2.1102,-2.1102,-2.1102,-2.1102,-2.1102,-2.1102,-2.1102,-2.1102,-2.1102,-2.1102,-2.1102,-2.1102,-2.1102,-2.1102,-2.1102,-2.1102,-2.1102,-2.1102,-2.1102,-2.1102,-2.1102,-2.1102,-2.1102,-2.1102,-2.1102,-2.1102,-2.1102,-2.1102,-2.1102,-1.1343,-1.2421,-1.3833,-1.5196,-1.6398,-1.6133,-1.6753,-1.8066,-1.8098,-1.6856,-1.5396,-1.5976,-1.6495,-1.6721,-1.7829,-1.8028,-1.8188,-1.77,-1.734,-1.7206,-1.7727,-1.8124,-1.7925,-1.8746,-1.9008,-1.9104,-1.92,-1.943,-1.9909,-2.0386,-2.0736,-2.0957,-2.1077,-2.1071,-2.1102,-2.1102,-2.1102,-2.1102,-2.1102,-2.1102,-2.1046,-2.1046,-2.0957,-2.0862,-2.0704,-2.0634,-2.0545,-2.0354,-2.0386,-2.0418,-2.045,-2.0609,-2.0856,-2.0926,-2.0831,-2.0697,-2.0824,-2.0729,-2.0634,-2.0634,-2.0729,-2.0792,-2.0887,-2.0951,-2.0919,-2.0792,-2.0729,-2.0761,-2.0767,-2.0767,-2.0824,-2.0982,-2.1102,-2.1102,-2.1102,-2.1102,-2.1102,-2.1102,-2.1102,-2.1102,-2.1102,-2.1102,-2.1102,-2.1102,-2.1102,-2.1102,-2.1102,-2.1102,-2.1102,-2.1102,-2.1102,-2.1102,-2.1102,-2.1102,-2.1102,-2.1102,-2.1102,-2.1102,-2.1102,-2.1102,-2.1102,-2.1102,-2.1102,-2.1102,-2.1102,-2.1102,-2.1102,-2.1102,-2.1102,-2.1102,-2.1102,-2.1102,-2.1102,-2.1102,-2.1102,-1.2458,-1.3768,-1.4548,-1.6078,-1.7598,-1.727,-1.7797,-1.8938,-1.9104,-1.8226,-1.699,-1.7571,-1.7925,-1.7925,-1.881,-1.9104,-1.8976,-1.8355,-1.8226,-1.8028,-1.7855,-1.8086,-1.8355,-1.8714,-1.8944,-1.9104,-1.9328,-1.9622,-2.0106,-2.0425,-2.0736,-2.0919,-2.0982,-2.1102,-2.1102,-2.1102,-2.1102,-2.1102,-2.1102,-2.1102,-2.1102,-2.1077,-2.1077,-2.1014,-2.0982,-2.0951,-2.0887,-2.0704,-2.0736,-2.0799,-2.0831,-2.0862,-2.1014,-2.1039,-2.1014,-2.0919,-2.0951,-2.1021,-2.0951,-2.0951,-2.1102,-2.1102,-2.1102,-2.1046,-2.1046,-2.0919,-2.0919,-2.0919,-2.0919,-2.0951,-2.0957,-2.1077,-2.1071,-2.1102,-2.1102,-2.1102,-2.1102,-2.1102,-2.1102,-2.1102,-2.1102,-2.1102,-2.1102,-2.1102,-2.1102,-2.1102,-2.1102,-2.1102,-2.1102,-2.1102,-2.1102,-2.1102,-2.1102,-2.1102,-2.1102,-2.1102,-2.1102,-2.1102,-2.1102,-2.1102,-2.1102,-2.1102,-2.1102,-2.1102,-2.1102,-2.1102,-2.1102,-2.1102,-2.1102,-2.1102,-2.1102,-2.1102,-2.1102,-2.1102,-2.1102,-1.3894,-1.507,-1.5396,-1.6829,-1.8714,-1.7829,-1.7995,-1.8976,-1.9104,-1.9104,-1.888,-1.8906,-1.9104,-1.9104,-1.9104,-1.9104,-1.9008,-1.881,-1.8912,-1.8944,-1.9002,-1.89,-1.8932,-1.9232,-1.9328,-1.9456,-1.9647,-1.9909,-2.024,-2.0545,-2.0729,-2.0729,-2.0887,-2.1102,-2.1102,-2.1102,-2.1102,-2.1102,-2.1102,-2.1102,-2.1102,-2.1102,-2.1102,-2.1102,-2.1102,-2.1102,-2.1077,-2.1077,-2.1077,-2.1077,-2.1046,-2.1046,-2.1077,-2.1102,-2.1071,-2.1039,-2.1039,-2.1077,-2.1039,-2.1039,-2.1102,-2.1102,-2.1102,-2.1071,-2.1077,-2.1077,-2.1077,-2.1077,-2.1077,-2.1077,-2.1077,-2.1077,-2.1077,-2.1102,-2.1102,-2.1102,-2.1102,-2.1102,-2.1102,-2.1102,-2.1102,-2.1102,-2.1102,-2.1102,-2.1102,-2.1102,-2.1102,-2.1102,-2.1102,-2.1102,-2.1102,-2.1102,-2.1102,-2.1102,-2.1102,-2.1102,-2.1102,-2.1102,-2.1102,-2.1102,-2.1102,-2.1102,-2.1102,-2.1102,-2.1102,-2.1102,-2.1102,-2.1102,-2.1102,-2.1102,-2.1102,-2.1102,-2.1102,-2.1102,-2.1102,-1.5331,-1.6689,-1.7802,-1.865,-1.904,-1.8778,-1.8874,-1.9072,-1.9104,-1.9104,-1.9104,-1.9104,-1.9104,-1.9104,-1.9104,-1.9104,-1.9104,-1.9104,-1.9104,-1.9104,-1.9328,-1.945,-1.9545,-1.9654,-1.9877,-2.0004,-2.0125,-2.0386,-2.052,-2.0792,-2.0982,-2.0976,-2.0976,-2.1102,-2.1102,-2.1102,-2.1102,-2.1102,-2.1102,-2.1102,-2.1102,-2.1102,-2.1102,-2.1102,-2.1102,-2.1102,-2.1071,-2.1102,-2.1102,-2.1102,-2.1102,-2.1102,-2.1102,-2.1102,-2.1102,-2.1102,-2.1102,-2.1102,-2.1102,-2.1102,-2.1102,-2.1102,-2.1102,-2.1102,-2.1077,-2.1077,-2.1071,-2.1071,-2.1071,-2.1071,-2.1077,-2.1077,-2.1102,-2.1102,-2.1102,-2.1102,-2.1102,-2.1102,-2.1102,-2.1102,-2.1102,-2.1102,-2.1102,-2.1102,-2.1102,-2.1102,-2.1102,-2.1102,-2.1102,-2.1102,-2.1102,-2.1102,-2.1102,-2.1102,-2.1102,-2.1102,-2.1102,-2.1102,-2.1102,-2.1102,-2.1102,-2.1102,-2.1102,-2.1102,-2.1102,-2.1102,-2.1102,-2.1102,-2.1102,-2.1102,-2.1102,-2.1102,-2.1102,-2.1102,-2.1102]},{"header":{"parameterUnit":"m.s-1","parameterCategory":1,"la1":31.0,"la2":29.5877,"lo1":-88.7671,"lo2":-86.6584,"dy":0.0162,"dx":0.0185,"nx":115,"ny":88,"refTime":"2024-08-30T12:00:00:Z","depth":0,"parameterNumber":3,"parameterNumberName":"V-component_of_WINDS"},"data":[0.0,0.0,0.0,0.0,0.0,0.0,0.0,0.0,0.0,0.0,0.0,0.0,0.0,0.0,0.0,0.0,0.0,0.0,0.0,0.0,0.0,0.0,0.0,0.0,0.0,0.0,0.0,0.0,0.0,0.0,0.0,0.0,0.0,0.0,0.0,0.0,0.0,0.0,0.0,0.0,0.0,0.0,0.0,0.0,0.0,0.0,0.0,0.0,0.0,0.0,0.0,0.0,0.0,0.0,0.0,0.0,0.0,0.0,0.0,0.0,0.0,0.0,0.0,0.0,0.0,0.0,0.0,0.0,0.0,0.0,0.0,0.0,0.0,0.0,0.0,0.0,0.0,0.0,0.0,0.0,0.0,0.0,0.0,0.0,0.0,0.0,0.0,0.0,0.0,0.0,0.0,0.0,0.0,0.0,0.0,0.0,0.0,0.0,0.0,0.0,0.0,0.0,0.0,0.0,0.0,0.0,0.0,0.0,0.0,0.0,0.0,0.0,0.0,0.0,0.0,0.0,0.0,0.0,0.0,0.0,0.0,0.0,0.0,0.0,0.0,0.0,0.0,0.0,0.0,0.0,0.0,0.0,0.0,0.0,0.0,0.0,0.0,0.0,0.0,0.0,0.0,0.0,0.0,0.0,0.0,0.0,0.0,0.0,0.0,0.0,0.0,0.0,0.0,0.0,0.0,0.0,0.0,0.0,0.0,0.0,0.0,0.0,0.0,0.0,0.0,0.0,0.0,0.0,0.0,0.0,0.0,0.0,0.0,0.0,0.0,0.0,0.0,0.0,0.0,0.0,0.0,0.0,0.0,0.0,0.0,0.0,0.0,0.0,0.0,0.0,0.0,0.0,0.0,0.0,0.0,0.0,0.0,0.0,0.0,0.0,0.0,0.0,0.0,0.0,0.0,0.0,0.0,0.0,0.0,0.0,0.0,0.0,0.0,0.0,0.0,0.0,0.0,0.0,0.0,0.0,0.0,0.0,0.0,0.0,0.0,0.0,0.0,0.0,0.0,0.0,0.0,0.0,0.0,0.0,0.0,0.0,0.0,0.0,0.0,0.0,0.0,0.0,0.0,0.0,0.0,0.0,0.0,0.0,0.0,0.0,0.0,0.0,0.0,0.0,0.0,0.0,0.0,0.0,0.0,0.0,0.0,0.0,0.0,0.0,0.0,0.0,0.0,0.0,0.0,0.0,0.0,0.0,0.0,0.0,0.0,0.0,0.0,0.0,0.0,0.0,0.0,0.0,0.0,0.0,0.0,0.0,0.0,0.0,0.0,0.0,0.0,0.0,0.0,0.0,0.0,0.0,0.0,0.0,0.0,0.0,0.0,0.0,0.0,0.0,0.0,0.0,0.0,0.0,0.0,0.0,0.0,0.0,0.0,0.0,0.0,0.0,0.0,0.0,0.0,0.0,0.0,0.0,0.0,0.0,0.0,0.0,0.0,0.0,0.0,0.0,0.0,0.0,0.0,0.0,0.0,0.0,0.0,0.0,0.0,0.0,0.0,0.0,0.0,0.0,0.0,0.0,0.0,0.0,0.0,0.0,0.0,0.0,0.0,0.0,0.0,0.0,0.0,0.0,0.0,0.0,0.0,0.0,0.0,0.0,0.0,0.0,0.0,0.0,0.0,0.0,0.0,0.0,0.0,0.0,0.0,0.0,0.0,0.0,0.0,0.0,0.0,0.0,0.0,0.0,0.0,0.0,0.0,0.0,0.0,0.0,0.0,0.0,0.0,0.0,0.0,0.0,0.0,0.0,0.0,0.0,0.0,0.0,0.0,0.0,0.0,0.0,0.0,0.0,0.0,0.0,0.0,0.0,0.0,0.0,0.0,0.0,0.0,0.0,0.0,0.0,0.0,0.0,0.0,0.0,0.0,0.0,0.0,0.0,0.0,0.0,0.0,0.0,0.0,0.0,0.0,0.0,0.0,0.0,0.0,0.0,0.0,0.0,0.0,0.0,0.0,0.0,0.0,0.0,0.0,0.0,0.0,0.0,0.0,0.0,0.0,0.0,0.0,0.0,0.0,0.0,0.0,0.0,0.0,0.0,0.0,0.0,0.0,0.0,0.0,0.0,0.0,0.0,0.0,0.0,0.0,0.0,0.0,0.0,0.0,0.0,0.0,0.0,0.0,0.0,0.0,0.0,0.0,0.0,0.0,0.0,0.0,0.0,0.0,0.0,0.0,0.0,0.0,0.0,0.0,0.0,0.0,0.0,0.0,0.0,0.0,0.0,0.0,0.0,0.0,0.0,0.0,0.0,0.0,0.0,0.0,0.0,0.0,0.0,0.0,0.0,0.0,0.0,0.0,0.0,0.0,0.0,0.0,0.0,0.0,0.0,0.0,0.0,0.0,0.0,0.0,0.0,0.0,0.0,0.0,0.0,0.0,0.0,0.0,0.0,0.0,0.0,0.0,0.0,0.0,0.0,0.0,0.0,0.0,0.0,0.0,0.0,0.0,0.0,0.0,0.0,0.0,0.0,0.0,0.0,0.0,0.0,0.0,0.0,0.0,0.0,0.0,0.0,0.0,0.0,0.0,0.0,0.0,0.0,0.0,0.0,0.0,0.0,0.0,0.0,0.0,0.0,0.0,0.0,0.0,0.0,0.0,0.0,0.0,0.0,0.0,0.0,0.0,0.0,0.0,0.0,0.0,0.0,0.0,0.0,0.0,0.0,0.0,0.0,0.0,0.0,0.0,0.0,0.0,0.0,0.0,0.0,0.0,0.0,0.0,0.0,0.0,0.0,0.0,0.0,0.0,0.0,0.0,0.0,0.0,0.0,0.0,0.0,0.0,0.0,0.0,0.0,0.0,0.0,0.0,0.0,0.0,0.0,0.0,0.0,0.0,0.0,0.0,0.0,0.0,0.0,0.0,0.0,0.0,0.0,0.0,0.0,0.0,0.0,0.0,0.0,0.0,0.0,0.0,0.0,0.0,0.0,0.0,0.0,0.0,0.0,0.0,0.0,0.0,0.0,0.0,0.0,0.0,0.0,0.0,0.0,0.0,0.0,0.0,0.0,0.0,0.0,0.0,0.0,0.0,0.0,0.0,0.0,0.0,0.0,0.0,0.0,0.0,0.0,0.0,0.0,0.0,0.0,0.0,0.0,0.0,0.0,0.0,0.0,0.0,0.0,0.0,0.0,0.0,0.0,0.0,0.0,0.0,0.0,0.0,0.0,0.0,0.0,0.0,0.0,0.0,0.0,0.0,0.0,0.0,0.0,0.0,0.0,0.0,0.0,0.0,0.0,0.0,0.0,0.0,0.0,0.0,0.0,0.0,0.0,0.0,0.0,0.0,0.0,0.0,0.0,0.0,0.0,0.0,0.0,0.0,0.0,0.0,0.0,0.0,0.0,0.0,0.0,0.0,0.0,0.0,0.0,0.0,0.0,0.0,0.0,0.0,0.0,0.0,0.0,0.0,0.0,0.0,0.0,0.0,0.0,0.0,0.0,0.0,0.0,0.0,0.0,0.0,0.0,0.0,0.0,0.0,0.0,0.0,0.0,0.0,0.0,0.0,0.0,0.0,0.0,0.0,0.0,0.0,0.0,0.0,0.0,0.0,0.0,0.0,0.0,0.0,0.0,0.0,0.0,0.0,0.0,0.0,0.0,0.0,0.0,0.0,0.0,0.0,0.0,0.0,0.0,0.0,0.0,0.0,0.0,0.0,0.0,0.0,0.0,0.0,0.0,0.0,0.0,0.0,0.0,0.0,0.0,0.0,0.0,0.0,0.0,0.0,0.0,0.0,0.0,0.0,0.0,0.0,0.0,0.0,0.0,0.0,0.0,0.0,0.0,0.0,0.0,0.0,0.0,0.0,0.0,0.0,0.0,0.0,0.0,0.0,0.0,0.0,0.0,0.0,0.0,0.0,0.0,0.0,0.0,0.0,0.0,0.0,0.0,0.0,0.0,0.0,0.0,0.0,0.0,0.0,0.0,0.0,0.0,0.0,0.0,0.0,0.0,0.0,0.0,0.0,0.0,0.0,0.0,0.0,0.0,0.0,0.0,0.0,0.0,0.0,0.0,0.0,0.0,0.0,0.0,0.0,0.0,0.0,0.0,0.0,0.0,0.0,0.0,0.0,0.0,0.0,0.0,0.0,0.0,0.0,0.0,0.0,0.0,0.0,0.0,0.0,0.0,0.0,0.0,0.0,0.0,0.0,0.0,0.0,0.0,0.0,0.0,0.0,0.0,0.0,0.0,0.0,0.0,0.0,0.0,0.0,0.0,0.0,0.0,0.0,0.0,0.0,0.0,0.0,0.0,3.061,0.0,0.0,0.0,0.0,0.0,0.0,0.0,0.0,0.0,0.0,0.0,0.0,0.0,0.0,0.0,0.0,0.0,0.0,0.0,0.0,0.0,0.0,0.0,0.0,0.0,0.0,0.0,0.0,0.0,0.0,0.0,0.0,0.0,0.0,0.0,0.0,0.0,0.0,0.0,0.0,0.0,0.0,0.0,0.0,0.0,0.0,0.0,0.0,0.0,0.0,0.0,0.0,0.0,0.0,0.0,0.0,0.0,0.0,0.0,0.0,0.0,0.0,0.0,0.0,0.0,0.0,0.0,0.0,0.0,0.0,0.0,0.0,0.0,0.0,0.0,0.0,0.0,0.0,0.0,0.0,0.0,0.0,0.0,0.0,0.0,0.0,0.0,0.0,0.0,0.0,0.0,0.0,0.0,0.0,0.0,0.0,0.0,0.0,0.0,0.0,0.0,0.0,0.0,0.0,0.0,0.0,0.0,0.0,0.0,0.0,3.08,3.08,3.08,3.079,3.0787,0.0,0.0,0.0,0.0,0.0,0.0,0.0,0.0,0.0,0.0,0.0,0.0,0.0,0.0,0.0,0.0,0.0,0.0,0.0,0.0,0.0,0.0,0.0,0.0,0.0,0.0,0.0,0.0,0.0,0.0,0.0,0.0,0.0,0.0,0.0,0.0,0.0,0.0,0.0,0.0,0.0,0.0,0.0,0.0,0.0,0.0,0.0,0.0,0.0,0.0,0.0,0.0,0.0,0.0,0.0,0.0,0.0,0.0,0.0,0.0,0.0,0.0,0.0,0.0,0.0,0.0,0.0,0.0,0.0,0.0,0.0,0.0,0.0,0.0,0.0,0.0,0.0,0.0,0.0,0.0,0.0,0.0,0.0,0.0,0.0,0.0,0.0,0.0,0.0,0.0,0.0,0.0,0.0,0.0,0.0,0.0,0.0,0.0,0.0,0.0,0.0,0.0,0.0,0.0,0.0,0.0,0.0,0.0,0.0,0.0,0.0,0.0,3.1386,3.1288,3.1095,0.0,0.0,0.0,0.0,0.0,0.0,0.0,0.0,0.0,0.0,0.0,0.0,0.0,0.0,0.0,0.0,0.0,0.0,0.0,0.0,0.0,0.0,0.0,0.0,0.0,0.0,0.0,0.0,0.0,0.0,0.0,0.0,0.0,0.0,0.0,0.0,0.0,0.0,0.0,0.0,0.0,0.0,0.0,0.0,0.0,0.0,0.0,0.0,0.0,0.0,0.0,0.0,0.0,0.0,0.0,0.0,0.0,0.0,0.0,0.0,0.0,0.0,0.0,0.0,0.0,0.0,0.0,0.0,0.0,0.0,0.0,0.0,0.0,0.0,0.0,0.0,0.0,0.0,0.0,0.0,0.0,0.0,0.0,0.0,0.0,0.0,0.0,0.0,0.0,0.0,0.0,0.0,0.0,0.0,0.0,0.0,0.0,0.0,0.0,0.0,0.0,0.0,0.0,0.0,0.0,0.0,0.0,0.0,0.0,0.0,3.1543,3.3104,3.3144,0.0,3.2113,0.0,0.0,0.0,0.0,0.0,0.0,0.0,0.0,0.0,0.0,0.0,0.0,0.0,0.0,0.0,0.0,0.0,0.0,0.0,0.0,0.0,0.0,0.0,0.0,0.0,0.0,0.0,0.0,0.0,0.0,0.0,0.0,0.0,0.0,0.0,0.0,0.0,0.0,0.0,0.0,0.0,0.0,0.0,0.0,0.0,0.0,0.0,0.0,0.0,0.0,0.0,0.0,0.0,0.0,0.0,0.0,0.0,0.0,0.0,0.0,0.0,0.0,0.0,0.0,0.0,0.0,0.0,0.0,0.0,0.0,0.0,0.0,0.0,0.0,0.0,0.0,0.0,0.0,0.0,0.0,0.0,0.0,0.0,0.0,0.0,0.0,0.0,0.0,0.0,0.0,0.0,0.0,0.0,0.0,0.0,0.0,0.0,0.0,0.0,0.0,0.0,0.0,0.0,0.0,0.0,0.0,0.0,0.0,0.0,0.0,3.2687,3.3375,3.2901,3.2457,0.0,0.0,0.0,0.0,0.0,0.0,0.0,0.0,0.0,0.0,0.0,0.0,0.0,0.0,0.0,0.0,0.0,0.0,0.0,0.0,0.0,0.0,0.0,0.0,0.0,0.0,0.0,0.0,0.0,0.0,0.0,0.0,0.0,0.0,0.0,0.0,0.0,0.0,0.0,0.0,0.0,0.0,0.0,0.0,0.0,0.0,0.0,0.0,0.0,0.0,0.0,0.0,0.0,0.0,0.0,0.0,0.0,0.0,0.0,0.0,0.0,0.0,0.0,0.0,0.0,0.0,0.0,0.0,0.0,0.0,0.0,0.0,0.0,0.0,0.0,0.0,0.0,0.0,0.0,0.0,0.0,0.0,0.0,0.0,0.0,0.0,0.0,0.0,0.0,0.0,0.0,0.0,0.0,0.0,0.0,0.0,0.0,0.0,0.0,0.0,0.0,0.0,0.0,0.0,0.0,0.0,0.0,0.0,0.0,0.0,3.2634,0.0,3.3712,3.3155,3.2359,3.1401,0.0,0.0,0.0,0.0,0.0,0.0,0.0,0.0,0.0,0.0,0.0,0.0,0.0,0.0,0.0,0.0,0.0,0.0,0.0,0.0,0.0,0.0,0.0,0.0,0.0,0.0,0.0,0.0,0.0,0.0,0.0,0.0,0.0,0.0,0.0,0.0,0.0,0.0,0.0,0.0,0.0,0.0,0.0,0.0,0.0,0.0,0.0,0.0,0.0,0.0,0.0,0.0,0.0,0.0,0.0,0.0,0.0,0.0,0.0,0.0,0.0,0.0,0.0,0.0,0.0,0.0,0.0,0.0,0.0,0.0,0.0,0.0,0.0,0.0,0.0,0.0,0.0,0.0,0.0,0.0,0.0,0.0,0.0,0.0,0.0,0.0,0.0,0.0,0.0,0.0,0.0,0.0,0.0,0.0,0.0,0.0,0.0,0.0,0.0,0.0,0.0,0.0,0.0,0.0,0.0,0.0,0.0,0.0,0.0,3.2943,3.2963,3.4602,3.4583,3.302,0.0,0.0,0.0,0.0,0.0,0.0,0.0,0.0,0.0,0.0,0.0,0.0,0.0,0.0,0.0,0.0,0.0,0.0,0.0,0.0,0.0,0.0,0.0,0.0,0.0,0.0,0.0,0.0,0.0,0.0,0.0,0.0,0.0,0.0,0.0,0.0,0.0,0.0,0.0,0.0,0.0,0.0,0.0,0.0,0.0,0.0,0.0,0.0,0.0,0.0,0.0,0.0,0.0,0.0,0.0,0.0,0.0,0.0,0.0,0.0,0.0,0.0,0.0,0.0,0.0,0.0,0.0,0.0,0.0,0.0,0.0,0.0,0.0,0.0,0.0,0.0,0.0,0.0,0.0,0.0,0.0,0.0,0.0,0.0,0.0,0.0,0.0,0.0,0.0,0.0,0.0,0.0,0.0,0.0,0.0,0.0,0.0,0.0,0.0,0.0,0.0,0.0,0.0,0.0,0.0,0.0,0.0,0.0,0.0,3.0566,3.1582,3.3457,3.6133,3.3671,3.1872,0.0,0.0,0.0,0.0,0.0,0.0,0.0,0.0,0.0,0.0,0.0,0.0,0.0,0.0,0.0,0.0,0.0,0.0,0.0,0.0,0.0,0.0,0.0,0.0,0.0,0.0,0.0,0.0,0.0,0.0,0.0,0.0,0.0,0.0,0.0,0.0,0.0,0.0,0.0,0.0,0.0,0.0,0.0,0.0,0.0,0.0,0.0,0.0,0.0,0.0,0.0,0.0,0.0,0.0,0.0,0.0,0.0,0.0,0.0,0.0,0.0,0.0,0.0,0.0,0.0,0.0,0.0,0.0,0.0,0.0,0.0,0.0,0.0,0.0,0.0,0.0,0.0,0.0,0.0,0.0,0.0,0.0,0.0,0.0,0.0,0.0,0.0,0.0,0.0,0.0,0.0,0.0,0.0,0.0,0.0,0.0,0.0,0.0,0.0,0.0,0.0,0.0,0.0,0.0,0.0,0.0,0.0,0.0,0.0,2.9546,0.0,3.4233,0.0,3.2937,3.0997,0.0,0.0,0.0,0.0,0.0,0.0,0.0,0.0,0.0,0.0,0.0,0.0,0.0,0.0,0.0,0.0,0.0,0.0,0.0,0.0,0.0,0.0,0.0,0.0,0.0,0.0,0.0,0.0,0.0,0.0,0.0,0.0,0.0,0.0,0.0,0.0,0.0,0.0,0.0,0.0,0.0,0.0,0.0,0.0,0.0,0.0,0.0,0.0,0.0,0.0,0.0,0.0,0.0,0.0,0.0,0.0,0.0,0.0,0.0,0.0,0.0,0.0,0.0,0.0,0.0,0.0,0.0,0.0,0.0,0.0,0.0,0.0,0.0,0.0,0.0,0.0,0.0,0.0,0.0,0.0,0.0,0.0,0.0,0.0,0.0,0.0,0.0,0.0,0.0,0.0,0.0,0.0,0.0,0.0,0.0,0.0,0.0,0.0,0.0,0.0,0.0,0.0,0.0,0.0,0.0,0.0,0.0,0.0,2.8734,3.1954,3.451,3.5076,3.3513,3.2578,3.0529,0.0,0.0,0.0,0.0,0.0,0.0,0.0,0.0,0.0,0.0,0.0,0.0,0.0,0.0,0.0,0.0,0.0,0.0,0.0,0.0,0.0,0.0,0.0,0.0,0.0,0.0,0.0,0.0,0.0,0.0,0.0,0.0,0.0,0.0,0.0,0.0,0.0,0.0,0.0,0.0,0.0,0.0,0.0,0.0,0.0,0.0,0.0,0.0,0.0,0.0,0.0,0.0,0.0,0.0,0.0,0.0,0.0,0.0,0.0,0.0,0.0,0.0,0.0,0.0,0.0,0.0,0.0,0.0,0.0,0.0,0.0,0.0,0.0,0.0,0.0,0.0,0.0,0.0,0.0,0.0,0.0,0.0,0.0,0.0,0.0,0.0,0.0,0.0,0.0,0.0,0.0,0.0,0.0,0.0,0.0,0.0,0.0,0.0,0.0,0.0,0.0,0.0,0.0,0.0,0.0,0.0,0.0,0.0,0.0,3.1231,3.3182,3.4528,3.5075,3.2616,3.127,0.0,0.0,0.0,0.0,0.0,0.0,0.0,0.0,0.0,0.0,0.0,0.0,0.0,0.0,0.0,0.0,0.0,0.0,0.0,0.0,0.0,0.0,0.0,0.0,0.0,0.0,0.0,0.0,0.0,0.0,0.0,0.0,0.0,0.0,0.0,0.0,0.0,0.0,0.0,0.0,0.0,0.0,0.0,0.0,0.0,0.0,0.0,0.0,0.0,0.0,0.0,0.0,0.0,0.0,0.0,0.0,0.0,0.0,0.0,0.0,0.0,0.0,0.0,0.0,0.0,0.0,0.0,0.0,0.0,0.0,0.0,0.0,0.0,0.0,0.0,0.0,0.0,0.0,0.0,0.0,0.0,0.0,0.0,0.0,0.0,0.0,0.0,0.0,0.0,0.0,0.0,0.0,0.0,0.0,0.0,0.0,0.0,0.0,0.0,0.0,0.0,0.0,0.0,0.0,0.0,0.0,0.0,0.0,0.0,3.3299,3.4608,3.5544,3.6011,3.324,3.1971,3.2342,0.0,0.0,0.0,0.0,0.0,0.0,0.0,0.0,0.0,0.0,0.0,0.0,0.0,0.0,0.0,0.0,0.0,0.0,0.0,0.0,0.0,0.0,0.0,0.0,0.0,0.0,0.0,0.0,0.0,0.0,0.0,0.0,0.0,0.0,0.0,0.0,0.0,0.0,0.0,0.0,0.0,0.0,0.0,0.0,0.0,0.0,0.0,0.0,0.0,0.0,0.0,0.0,0.0,0.0,0.0,0.0,0.0,0.0,0.0,0.0,0.0,0.0,0.0,0.0,0.0,0.0,0.0,0.0,0.0,0.0,0.0,0.0,0.0,0.0,0.0,0.0,0.0,0.0,0.0,0.0,0.0,0.0,0.0,0.0,0.0,0.0,0.0,0.0,0.0,0.0,0.0,0.0,0.0,0.0,0.0,0.0,0.0,0.0,0.0,0.0,0.0,0.0,0.0,0.0,0.0,0.0,0.0,0.0,3.734,3.8355,3.8081,3.6361,3.4548,3.2771,0.0,0.0,0.0,0.0,0.0,0.0,0.0,0.0,0.0,0.0,0.0,0.0,0.0,0.0,0.0,0.0,0.0,0.0,0.0,0.0,0.0,0.0,0.0,0.0,0.0,0.0,0.0,0.0,0.0,0.0,0.0,0.0,0.0,0.0,0.0,0.0,0.0,0.0,0.0,0.0,0.0,0.0,0.0,0.0,0.0,0.0,0.0,0.0,0.0,0.0,0.0,0.0,0.0,0.0,0.0,0.0,0.0,0.0,0.0,0.0,0.0,0.0,0.0,0.0,0.0,0.0,0.0,0.0,0.0,0.0,0.0,0.0,0.0,0.0,0.0,0.0,0.0,0.0,0.0,0.0,0.0,0.0,0.0,0.0,0.0,0.0,0.0,0.0,0.0,0.0,0.0,0.0,0.0,0.0,0.0,0.0,0.0,0.0,0.0,0.0,0.0,0.0,0.0,0.0,0.0,0.0,0.0,0.0,0.0,3.8297,4.0898,4.1495,3.9776,3.6883,3.5088,0.0,0.0,0.0,0.0,0.0,0.0,0.0,0.0,0.0,0.0,0.0,0.0,0.0,0.0,0.0,0.0,0.0,0.0,0.0,0.0,0.0,0.0,0.0,0.0,0.0,0.0,0.0,0.0,0.0,0.0,0.0,0.0,0.0,0.0,0.0,0.0,0.0,0.0,0.0,0.0,0.0,0.0,0.0,0.0,0.0,0.0,0.0,0.0,0.0,0.0,0.0,0.0,0.0,0.0,0.0,0.0,0.0,0.0,0.0,0.0,0.0,0.0,0.0,0.0,0.0,0.0,0.0,0.0,0.0,0.0,0.0,0.0,0.0,0.0,0.0,0.0,0.0,0.0,0.0,0.0,0.0,0.0,0.0,0.0,0.0,0.0,0.0,0.0,0.0,0.0,0.0,0.0,0.0,0.0,0.0,0.0,0.0,0.0,0.0,0.0,0.0,0.0,0.0,0.0,0.0,0.0,0.0,0.0,3.8186,4.0171,4.2744,4.3658,4.2714,3.9754,3.7264,0.0,0.0,0.0,0.0,0.0,0.0,0.0,0.0,0.0,0.0,0.0,0.0,0.0,0.0,0.0,0.0,0.0,0.0,0.0,0.0,0.0,0.0,0.0,0.0,0.0,0.0,0.0,0.0,0.0,0.0,0.0,0.0,0.0,0.0,0.0,0.0,0.0,0.0,0.0,0.0,0.0,0.0,0.0,0.0,0.0,0.0,0.0,0.0,0.0,0.0,0.0,0.0,0.0,0.0,0.0,0.0,0.0,0.0,0.0,0.0,0.0,0.0,0.0,0.0,0.0,0.0,0.0,0.0,0.0,0.0,0.0,0.0,0.0,0.0,0.0,0.0,0.0,0.0,0.0,0.0,0.0,0.0,0.0,0.0,0.0,0.0,0.0,0.0,0.0,0.0,0.0,0.0,0.0,0.0,0.0,0.0,0.0,0.0,0.0,0.0,0.0,0.0,0.0,0.0,0.0,0.0,0.0,0.0,3.9105,4.2449,4.4109,4.4908,4.4807,4.2421,3.9157,0.0,0.0,0.0,0.0,0.0,0.0,0.0,0.0,0.0,0.0,0.0,0.0,0.0,0.0,0.0,0.0,0.0,0.0,0.0,0.0,0.0,0.0,0.0,0.0,0.0,0.0,0.0,0.0,0.0,0.0,0.0,0.0,0.0,0.0,0.0,0.0,0.0,0.0,0.0,0.0,0.0,0.0,0.0,0.0,0.0,0.0,0.0,0.0,0.0,0.0,0.0,0.0,0.0,0.0,0.0,0.0,0.0,0.0,0.0,0.0,0.0,0.0,0.0,0.0,0.0,0.0,0.0,0.0,0.0,0.0,0.0,0.0,0.0,0.0,0.0,0.0,0.0,0.0,0.0,0.0,0.0,0.0,0.0,0.0,0.0,0.0,0.0,0.0,0.0,0.0,0.0,0.0,0.0,0.0,0.0,0.0,0.0,0.0,0.0,0.0,0.0,0.0,0.0,0.0,0.0,0.0,0.0,0.0,4.0516,4.3285,4.4974,4.5497,4.4826,4.2364,3.967,0.0,0.0,0.0,0.0,0.0,0.0,0.0,0.0,0.0,0.0,0.0,0.0,0.0,0.0,0.0,0.0,0.0,0.0,0.0,0.0,0.0,0.0,0.0,0.0,0.0,0.0,0.0,0.0,0.0,0.0,0.0,0.0,0.0,0.0,0.0,0.0,0.0,0.0,0.0,0.0,0.0,0.0,0.0,0.0,0.0,0.0,0.0,0.0,3.5292,0.0,0.0,0.0,0.0,0.0,0.0,0.0,0.0,0.0,0.0,0.0,0.0,0.0,0.0,0.0,0.0,0.0,0.0,0.0,0.0,0.0,0.0,0.0,0.0,0.0,0.0,0.0,0.0,0.0,0.0,0.0,0.0,0.0,0.0,0.0,0.0,0.0,0.0,0.0,0.0,0.0,0.0,0.0,0.0,0.0,0.0,0.0,0.0,0.0,0.0,0.0,0.0,0.0,0.0,0.0,0.0,0.0,0.0,0.0,4.1559,4.4133,4.5427,4.584,4.5356,4.3309,4.0607,0.0,0.0,0.0,0.0,0.0,0.0,0.0,0.0,0.0,0.0,0.0,0.0,0.0,0.0,0.0,0.0,0.0,0.0,0.0,0.0,0.0,0.0,0.0,0.0,0.0,0.0,0.0,0.0,0.0,0.0,0.0,0.0,0.0,0.0,0.0,0.0,0.0,0.0,0.0,0.0,0.0,0.0,0.0,0.0,0.0,0.0,0.0,0.0,0.0,0.0,0.0,0.0,0.0,0.0,0.0,0.0,0.0,0.0,0.0,0.0,0.0,0.0,0.0,0.0,0.0,0.0,0.0,0.0,0.0,0.0,0.0,0.0,0.0,0.0,0.0,0.0,0.0,0.0,0.0,0.0,0.0,0.0,0.0,0.0,0.0,0.0,0.0,0.0,0.0,0.0,0.0,0.0,0.0,0.0,0.0,0.0,0.0,0.0,0.0,0.0,0.0,0.0,0.0,0.0,0.0,0.0,0.0,3.9769,4.2209,4.4954,4.5697,4.6022,4.6065,4.4409,4.1541,3.751,0.0,0.0,0.0,0.0,0.0,0.0,0.0,0.0,0.0,0.0,0.0,0.0,0.0,0.0,0.0,0.0,0.0,0.0,0.0,0.0,0.0,0.0,0.0,0.0,0.0,0.0,0.0,0.0,0.0,0.0,0.0,0.0,0.0,0.0,0.0,0.0,0.0,0.0,3.3739,3.5972,0.0,0.0,0.0,0.0,0.0,0.0,0.0,0.0,3.7275,0.0,0.0,0.0,0.0,0.0,0.0,0.0,0.0,0.0,0.0,0.0,0.0,0.0,0.0,0.0,0.0,0.0,0.0,0.0,0.0,0.0,0.0,0.0,0.0,0.0,0.0,0.0,0.0,0.0,0.0,0.0,0.0,0.0,0.0,0.0,0.0,0.0,0.0,0.0,0.0,0.0,0.0,0.0,0.0,0.0,0.0,0.0,0.0,0.0,0.0,0.0,0.0,0.0,0.0,0.0,0.0,4.0262,4.007,4.1845,4.5795,4.5954,4.6004,4.5973,4.4387,4.1823,3.8354,0.0,0.0,0.0,0.0,0.0,0.0,0.0,0.0,0.0,0.0,0.0,0.0,0.0,0.0,0.0,0.0,0.0,0.0,0.0,0.0,0.0,0.0,0.0,0.0,0.0,0.0,0.0,0.0,0.0,0.0,0.0,0.0,0.0,0.0,0.0,0.0,0.0,0.0,0.0,3.8093,3.9021,0.0,0.0,0.0,0.0,0.0,0.0,0.0,0.0,3.7819,0.0,0.0,0.0,0.0,0.0,0.0,0.0,0.0,0.0,0.0,0.0,0.0,0.0,0.0,0.0,0.0,0.0,0.0,0.0,0.0,0.0,0.0,0.0,0.0,0.0,0.0,0.0,0.0,0.0,0.0,0.0,0.0,0.0,0.0,0.0,0.0,0.0,0.0,0.0,0.0,0.0,0.0,0.0,0.0,0.0,0.0,0.0,0.0,0.0,0.0,0.0,0.0,0.0,0.0,0.0,3.9388,4.0976,4.3097,4.5923,4.6015,4.5982,4.5941,4.351,4.0966,0.0,0.0,0.0,0.0,0.0,0.0,0.0,0.0,0.0,0.0,0.0,0.0,0.0,0.0,0.0,0.0,0.0,0.0,0.0,0.0,0.0,0.0,0.0,0.0,0.0,0.0,0.0,0.0,0.0,0.0,0.0,0.0,0.0,0.0,0.0,0.0,0.0,0.0,0.0,0.0,3.8887,3.9545,3.914,0.0,0.0,0.0,0.0,0.0,0.0,3.8596,3.8346,0.0,0.0,0.0,0.0,0.0,0.0,0.0,0.0,0.0,0.0,0.0,0.0,0.0,0.0,0.0,0.0,0.0,0.0,0.0,0.0,0.0,0.0,0.0,0.0,0.0,0.0,0.0,0.0,0.0,0.0,0.0,0.0,0.0,0.0,0.0,0.0,0.0,0.0,0.0,0.0,0.0,0.0,0.0,0.0,0.0,0.0,0.0,0.0,0.0,0.0,0.0,0.0,0.0,0.0,0.0,3.8348,4.1429,4.3961,4.5885,4.5982,4.5982,4.5944,4.3025,4.048,0.0,0.0,0.0,0.0,0.0,0.0,0.0,0.0,0.0,0.0,0.0,0.0,0.0,0.0,0.0,0.0,0.0,0.0,0.0,0.0,0.0,0.0,0.0,0.0,0.0,0.0,0.0,0.0,0.0,0.0,0.0,0.0,0.0,0.0,0.0,0.0,0.0,0.0,0.0,0.0,0.0,4.0342,4.0012,4.0092,0.0,0.0,0.0,0.0,4.0303,3.9723,0.0,0.0,0.0,0.0,0.0,0.0,0.0,0.0,0.0,0.0,0.0,0.0,0.0,0.0,0.0,0.0,0.0,0.0,0.0,0.0,0.0,0.0,0.0,0.0,0.0,0.0,0.0,0.0,0.0,0.0,0.0,0.0,0.0,0.0,0.0,0.0,0.0,0.0,0.0,0.0,0.0,0.0,0.0,0.0,0.0,0.0,0.0,0.0,0.0,0.0,0.0,0.0,0.0,0.0,0.0,0.0,3.8259,4.0287,4.2827,4.5808,4.5982,4.5982,4.5982,4.419,4.1704,0.0,0.0,0.0,0.0,0.0,0.0,0.0,0.0,0.0,0.0,0.0,0.0,0.0,0.0,0.0,0.0,0.0,0.0,0.0,0.0,0.0,0.0,0.0,0.0,0.0,0.0,0.0,0.0,0.0,0.0,0.0,0.0,0.0,0.0,0.0,0.0,0.0,0.0,0.0,0.0,0.0,4.2498,4.0985,4.1415,4.1881,0.0,0.0,4.1179,4.2808,4.2328,0.0,0.0,0.0,0.0,0.0,0.0,0.0,0.0,0.0,0.0,0.0,0.0,0.0,0.0,0.0,0.0,0.0,0.0,0.0,0.0,0.0,0.0,0.0,0.0,0.0,0.0,0.0,0.0,0.0,0.0,0.0,0.0,0.0,0.0,0.0,0.0,0.0,0.0,0.0,0.0,0.0,0.0,0.0,0.0,0.0,0.0,0.0,0.0,0.0,0.0,0.0,0.0,0.0,0.0,0.0,3.4724,3.8348,4.1526,4.4091,4.5905,4.5982,4.5785,4.5339,4.318,4.0655,0.0,0.0,0.0,0.0,0.0,0.0,0.0,0.0,0.0,0.0,0.0,0.0,0.0,0.0,0.0,0.0,0.0,0.0,0.0,0.0,0.0,0.0,0.0,0.0,0.0,0.0,0.0,0.0,0.0,0.0,0.0,0.0,0.0,0.0,0.0,0.0,0.0,0.0,0.0,0.0,0.0,0.0,4.2342,4.2694,0.0,0.0,0.0,4.2636,4.3372,0.0,0.0,0.0,0.0,0.0,0.0,0.0,0.0,0.0,0.0,0.0,0.0,0.0,0.0,0.0,0.0,0.0,0.0,0.0,0.0,0.0,0.0,0.0,0.0,0.0,0.0,0.0,0.0,0.0,0.0,0.0,0.0,0.0,0.0,0.0,0.0,0.0,0.0,0.0,0.0,0.0,0.0,0.0,0.0,0.0,0.0,0.0,0.0,0.0,0.0,0.0,0.0,0.0,0.0,0.0,0.0,0.0,3.8404,4.2639,4.5203,4.5963,4.5982,4.563,4.4792,4.2694,0.0,0.0,0.0,0.0,0.0,0.0,0.0,0.0,0.0,0.0,0.0,0.0,0.0,0.0,0.0,0.0,0.0,0.0,0.0,0.0,0.0,0.0,0.0,0.0,0.0,0.0,0.0,2.6489,0.0,0.0,0.0,0.0,0.0,0.0,0.0,0.0,0.0,0.0,0.0,0.0,0.0,0.0,4.2,4.3293,4.3662,4.3876,0.0,0.0,4.3876,4.407,4.4109,4.3451,0.0,0.0,0.0,0.0,0.0,0.0,0.0,0.0,0.0,0.0,0.0,0.0,0.0,0.0,0.0,0.0,0.0,0.0,0.0,0.0,0.0,0.0,0.0,0.0,0.0,0.0,0.0,0.0,0.0,0.0,0.0,0.0,0.0,0.0,0.0,0.0,0.0,0.0,0.0,0.0,0.0,0.0,0.0,0.0,0.0,0.0,0.0,0.0,0.0,0.0,0.0,0.0,0.0,0.0,0.0,3.8443,4.2619,4.5203,4.5963,4.5982,4.5611,4.4812,4.386,4.1352,0.0,0.0,0.0,0.0,0.0,0.0,0.0,0.0,0.0,0.0,0.0,0.0,0.0,0.0,0.0,0.0,0.0,0.0,0.0,0.0,0.0,0.0,0.0,0.0,0.0,0.0,0.0,0.0,0.0,0.0,0.0,0.0,0.0,0.0,0.0,0.0,0.0,0.0,0.0,0.0,0.0,4.3261,4.3407,4.4105,4.4884,0.0,4.5097,4.4884,4.5626,4.5743,4.4915,4.2496,0.0,0.0,0.0,0.0,0.0,0.0,0.0,0.0,0.0,0.0,0.0,0.0,0.0,0.0,0.0,0.0,0.0,0.0,0.0,0.0,0.0,0.0,0.0,0.0,0.0,0.0,0.0,0.0,0.0,0.0,0.0,0.0,0.0,0.0,0.0,0.0,0.0,0.0,0.0,0.0,0.0,0.0,0.0,0.0,0.0,0.0,0.0,0.0,0.0,0.0,0.0,0.0,0.0,3.6325,3.8425,4.3105,4.5688,4.5982,4.5982,4.563,4.4831,4.3954,4.1488,0.0,0.0,0.0,0.0,0.0,0.0,0.0,0.0,0.0,0.0,0.0,0.0,0.0,0.0,0.0,0.0,0.0,0.0,0.0,0.0,0.0,0.0,0.0,0.0,0.0,0.0,0.0,0.0,3.0787,3.1928,3.2928,0.0,0.0,0.0,0.0,0.0,0.0,0.0,0.0,0.0,0.0,4.3781,4.48,4.5207,0.0,0.0,4.6083,4.6157,4.5928,4.5892,4.5058,4.2527,4.1696,0.0,0.0,0.0,0.0,0.0,0.0,0.0,0.0,0.0,0.0,0.0,0.0,0.0,0.0,0.0,0.0,0.0,0.0,0.0,0.0,0.0,0.0,0.0,0.0,0.0,0.0,0.0,0.0,0.0,0.0,0.0,0.0,0.0,0.0,0.0,0.0,0.0,0.0,0.0,0.0,0.0,0.0,0.0,0.0,0.0,0.0,0.0,0.0,0.0,0.0,0.0,0.0,3.704,3.8792,4.3552,4.5982,4.5982,4.5982,4.5611,4.4812,4.3954,4.174,0.0,0.0,0.0,0.0,0.0,0.0,0.0,0.0,0.0,0.0,0.0,0.0,0.0,0.0,0.0,0.0,0.0,0.0,0.0,0.0,0.0,0.0,0.0,0.0,0.0,0.0,0.0,0.0,3.2239,3.3293,3.471,0.0,0.0,0.0,0.0,0.0,0.0,0.0,0.0,0.0,0.0,4.4566,4.5686,4.5861,4.5954,4.6226,4.6555,4.6671,4.6303,4.6264,4.5567,4.3578,0.0,0.0,0.0,0.0,0.0,0.0,0.0,0.0,0.0,0.0,0.0,0.0,0.0,0.0,0.0,0.0,0.0,0.0,0.0,0.0,0.0,0.0,0.0,0.0,0.0,0.0,0.0,2.6997,0.0,0.0,2.5785,0.0,0.0,0.0,0.0,0.0,0.0,0.0,0.0,0.0,0.0,0.0,0.0,0.0,0.0,0.0,0.0,0.0,0.0,0.0,0.0,0.0,0.0,3.7916,3.9701,4.3843,4.5982,4.5982,4.5982,4.563,4.4831,4.3954,4.2284,3.9662,0.0,0.0,0.0,0.0,0.0,0.0,0.0,0.0,0.0,0.0,0.0,0.0,0.0,0.0,0.0,0.0,0.0,0.0,0.0,0.0,0.0,0.0,0.0,0.0,0.0,0.0,3.3213,3.3955,3.473,0.0,0.0,0.0,0.0,0.0,0.0,0.0,0.0,0.0,0.0,4.4763,4.5838,4.5833,4.5826,4.6139,4.6967,4.641,4.6155,4.6967,4.7064,4.6781,0.0,0.0,0.0,0.0,0.0,0.0,0.0,0.0,0.0,0.0,0.0,0.0,0.0,0.0,0.0,0.0,0.0,0.0,0.0,0.0,0.0,0.0,0.0,0.0,0.0,0.0,0.0,3.2242,3.0448,0.0,0.0,0.0,0.0,0.0,0.0,0.0,0.0,0.0,0.0,0.0,3.7637,3.9272,0.0,0.0,0.0,0.0,0.0,0.0,0.0,0.0,0.0,0.0,0.0,0.0,3.7935,3.974,4.3843,4.5982,4.5982,4.5982,4.5863,4.5591,4.4792,4.2908,3.9776,0.0,0.0,0.0,0.0,0.0,0.0,0.0,0.0,0.0,0.0,0.0,0.0,0.0,0.0,0.0,0.0,0.0,0.0,0.0,0.0,0.0,0.0,0.0,0.0,0.0,3.41,0.0,0.0,0.0,0.0,0.0,0.0,0.0,0.0,0.0,0.0,0.0,4.4073,4.4915,4.5982,4.6684,4.6654,4.6674,4.6983,0.0,0.0,0.0,0.0,0.0,0.0,0.0,0.0,0.0,0.0,0.0,0.0,0.0,0.0,4.9035,4.4266,4.2671,4.2139,4.241,0.0,0.0,0.0,0.0,0.0,0.0,0.0,0.0,0.0,0.0,0.0,0.0,0.0,0.0,3.5684,3.393,3.3871,0.0,0.0,0.0,0.0,0.0,0.0,0.0,0.0,3.9141,4.0366,4.0678,4.2016,4.1949,0.0,4.0902,3.9425,0.0,0.0,0.0,0.0,0.0,0.0,0.0,0.0,3.8829,4.0577,4.4115,4.5982,4.5982,4.5982,4.5982,4.5982,4.5222,4.3199,3.9798,3.7001,3.4964,0.0,0.0,0.0,0.0,0.0,0.0,0.0,0.0,0.0,0.0,0.0,0.0,0.0,0.0,0.0,0.0,0.0,0.0,0.0,0.0,0.0,0.0,0.0,3.4908,0.0,0.0,0.0,0.0,0.0,0.0,0.0,0.0,0.0,4.2994,4.4699,4.625,4.7105,4.7687,4.8005,4.8005,0.0,0.0,0.0,0.0,0.0,0.0,0.0,4.9068,4.9614,4.9053,4.8647,4.9181,5.067,5.1618,5.1018,0.0,0.0,4.7726,4.6399,4.6056,4.6331,4.6623,4.7034,4.7854,4.7602,4.7386,0.0,0.0,0.0,0.0,0.0,0.0,0.0,0.0,3.8687,3.8184,0.0,3.7345,0.0,0.0,0.0,0.0,3.5025,3.8895,0.0,0.0,4.4215,4.5514,4.4853,4.5591,4.5611,4.4948,4.5611,4.4717,4.2211,3.9025,0.0,0.0,0.0,0.0,0.0,0.0,4.0597,4.225,4.4717,4.5982,4.5982,4.5982,4.5999,4.598,4.522,4.3255,4.0085,3.9793,3.8184,3.4884,3.3035,0.0,0.0,0.0,0.0,0.0,0.0,0.0,0.0,0.0,0.0,0.0,0.0,0.0,0.0,0.0,0.0,0.0,0.0,0.0,0.0,3.4754,0.0,0.0,0.0,0.0,0.0,0.0,0.0,0.0,0.0,0.0,4.5045,4.698,4.8778,4.9587,0.0,0.0,0.0,0.0,4.9107,5.0747,5.0322,5.0422,5.1954,5.2167,5.2167,5.2244,0.0,0.0,5.1366,5.2453,5.3053,5.1424,5.2565,5.3575,5.3478,5.1908,5.1095,5.1838,5.1312,5.1269,5.2012,5.1896,5.1935,4.4238,0.0,0.0,0.0,0.0,4.149,4.225,4.3884,4.3245,4.2146,4.0758,4.0778,0.0,0.0,0.0,0.0,0.0,0.0,4.1031,4.277,4.3782,4.4715,4.5691,4.654,4.6812,4.6618,4.7453,4.7162,4.5839,4.487,4.1665,3.6459,0.0,0.0,0.0,0.0,4.2036,4.3161,4.5008,4.5982,4.5982,4.5982,4.5991,4.5992,4.5171,4.4267,4.3294,4.2089,4.067,3.9036,3.6203,0.0,0.0,0.0,0.0,0.0,0.0,0.0,0.0,0.0,0.0,0.0,0.0,0.0,0.0,0.0,0.0,0.0,0.0,0.0,3.481,3.5932,3.7293,0.0,0.0,0.0,0.0,0.0,0.0,0.0,0.0,0.0,4.99,5.0109,5.0264,0.0,0.0,5.1258,5.0651,5.0867,5.1509,5.2608,5.2554,0.0,5.3057,5.2612,5.2612,5.3869,5.4735,5.5122,5.4615,5.4944,5.5118,5.4596,5.4938,5.5283,5.5191,5.3922,5.2917,5.3057,5.2917,5.3033,5.3807,5.3598,5.3328,4.7966,4.5276,4.4962,4.5133,4.5565,4.506,4.5704,4.7083,4.6554,4.5704,4.4727,4.4727,4.3505,4.1388,4.1075,0.0,0.0,0.0,4.3721,4.5511,4.5528,4.6055,4.7029,4.757,4.7803,4.7842,4.8347,4.8319,4.7819,4.7781,4.5365,4.0735,0.0,0.0,3.9217,4.151,4.3141,4.4032,4.5326,4.5983,4.5983,4.5972,4.5958,4.596,4.545,4.5034,4.4703,4.3692,4.274,4.1826,3.8896,3.6493,0.0,0.0,0.0,0.0,0.0,0.0,0.0,0.0,0.0,0.0,0.0,3.1844,3.0506,0.0,0.0,0.0,3.3488,3.5301,3.7531,3.8749,0.0,0.0,0.0,0.0,0.0,0.0,0.0,4.9119,5.0418,5.1642,5.296,5.2704,5.2384,5.2445,5.2592,5.2622,5.244,0.0,5.296,5.381,5.3926,5.4061,5.439,5.4003,5.4042,5.5042,5.5646,5.6105,5.6395,5.6452,5.6588,5.6854,5.6946,5.6966,5.6946,5.6106,5.5197,5.4602,5.4448,5.4641,5.5163,5.481,5.4622,5.093,5.0148,4.9322,4.8867,4.8709,4.869,4.8672,4.8689,4.8604,4.858,4.858,4.858,4.7709,4.6155,4.5433,0.0,4.6232,4.7045,4.7764,4.858,4.858,4.858,4.8597,4.8674,4.8694,4.8691,4.8769,4.879,4.8796,4.8735,4.7849,4.6209,4.4736,4.3503,4.2595,4.3367,4.4202,4.5001,4.5656,4.5991,4.5991,4.5926,4.5908,4.5905,4.5905,4.5553,4.483,4.4791,4.4381,4.3467,4.1125,3.8993,3.723,0.0,0.0,0.0,0.0,0.0,0.0,0.0,0.0,0.0,0.0,0.0,0.0,0.0,0.0,0.0,3.7008,0.0,4.0929,4.2492,0.0,0.0,0.0,4.5306,4.6373,4.8439,5.0192,5.1181,0.0,0.0,5.4776,5.4911,5.491,5.4985,5.4186,5.3865,5.4599,5.3984,5.3812,5.4612,5.4699,5.4993,5.562,5.5731,5.5755,5.5982,5.5996,5.6329,5.7038,5.7255,5.7616,5.8162,5.8364,5.8359,5.8359,5.8185,5.791,5.6348,5.603,5.5982,5.5866,5.5789,5.577,5.2992,5.2723,5.1872,5.0425,4.8637,4.8627,4.8619,4.8619,4.8608,4.858,4.858,4.858,4.8366,4.7981,4.7784,4.7803,4.8,4.8191,4.8386,4.858,4.858,4.8588,4.8559,4.9202,4.9523,4.9556,5.0193,5.0516,5.051,5.0487,4.9944,4.891,4.848,4.7206,4.5128,4.5885,4.6411,4.6605,4.6156,4.594,4.594,4.5895,4.5896,4.589,4.589,4.5799,4.556,4.5537,4.5169,4.4311,4.2473,4.068,3.8977,3.5043,0.0,0.0,0.0,0.0,0.0,0.0,0.0,0.0,0.0,3.6518,3.3093,0.0,3.7528,0.0,3.9611,4.1812,4.3518,4.4075,0.0,0.0,4.7693,4.8512,5.1224,5.152,5.2326,5.4467,5.5036,5.5837,5.7327,5.7501,5.7274,5.6705,5.5847,5.5142,5.4737,5.5041,5.5336,5.5509,5.5543,5.5663,5.5856,5.5914,5.6146,5.6787,5.6859,5.711,5.7939,5.8118,5.8171,5.8364,5.8347,5.8326,5.8379,5.8333,5.8248,5.7786,5.7286,5.6671,5.6049,5.5914,5.5914,5.3714,5.3675,5.3167,5.2157,5.0814,5.0076,4.9765,4.9745,4.9765,4.9765,4.9765,4.9762,4.9765,4.9765,4.9762,4.9759,4.9725,4.9706,4.9716,4.972,4.972,4.9692,4.9669,5.0154,5.0381,5.0383,5.0884,5.109,5.1057,5.1057,5.0794,5.0312,5.0292,4.9576,4.8174,4.7898,4.7589,4.7185,4.6338,4.5899,4.5845,4.5845,4.5858,4.5854,4.5854,4.5669,4.5281,4.5258,4.4713,4.3476,4.2164,4.0871,3.9539,3.6516,3.4789,0.0,0.0,0.0,0.0,0.0,0.0,0.0,0.0,0.0,0.0,0.0,4.022,4.0955,4.3332,4.5355,4.6669,4.7805,4.9222,5.1055,5.0819,5.1563,5.4183,5.4024,5.4588,5.6709,5.6977,5.7308,5.8238,5.8354,5.8219,5.7732,5.727,5.6529,5.5436,5.5537,5.5811,5.5811,5.5811,5.597,5.6317,5.6389,5.6678,5.7487,5.766,5.7925,5.8715,5.8893,5.9009,5.937,5.9425,5.9428,5.9403,5.9419,5.9319,5.8882,5.8517,5.779,5.6645,5.6394,5.6312,5.4022,5.4025,5.3908,5.3866,5.373,5.2173,5.1455,5.1335,5.1238,5.1199,5.1199,5.1177,5.1196,5.1196,5.119,5.1156,5.1092,5.1089,5.1092,5.1081,5.1081,5.1094,5.109,5.109,5.1087,5.1064,5.1083,5.105,5.1001,5.1001,5.096,5.0902,5.0898,5.0898,5.0844,4.9495,4.8328,4.7362,4.6603,4.6147,4.5981,4.5958,4.5923,4.5803,4.5687,4.5336,4.4636,4.4578,4.3862,4.226,4.1606,4.0835,3.9849,3.8276,3.7348,0.0,3.6346,0.0,0.0,0.0,0.0,0.0,0.0,0.0,0.0,4.266,4.3568,4.5032,4.7461,4.9225,4.992,5.1999,5.3383,5.359,5.361,5.4299,5.5972,5.6163,5.671,5.8294,5.8462,5.8467,5.8665,5.8627,5.8627,5.8498,5.8421,5.7841,5.6493,5.6164,5.6175,5.6035,5.6035,5.6489,5.7027,5.7157,5.7484,5.8242,5.8459,5.8742,5.9536,5.9671,5.9896,6.0556,6.0677,6.071,6.08,6.0742,6.0517,5.98,5.9633,5.908,5.7618,5.7181,5.692,5.5809,5.5731,5.5029,5.4757,5.4679,5.3672,5.2817,5.2135,5.1491,5.1199,5.1199,5.1156,5.1127,5.1124,5.1111,5.1114,5.1088,5.1091,5.1085,5.1081,5.1081,5.1064,5.102,5.1016,5.0978,5.0945,5.0921,5.0917,5.0933,5.0933,5.0906,5.0898,5.0898,5.0898,5.0902,0.0,0.0,0.0,4.8,4.7586,4.6886,4.6867,4.6519,4.5823,4.5181,0.0,4.4597,4.4578,4.4133,4.3131,4.3576,0.0,0.0,0.0,0.0,0.0,0.0,0.0,0.0,0.0,0.0,0.0,4.3833,4.3074,4.3143,4.617,4.8276,4.8602,5.0874,5.2413,5.2577,5.3002,5.3832,5.5142,5.5329,5.6002,5.7602,5.7835,5.8215,5.9144,5.9267,5.955,6.0127,6.0319,6.0031,5.9396,5.9275,5.8896,5.7984,5.7767,5.778,5.7819,5.7659,5.7813,5.803,5.805,5.8338,5.9044,5.9281,5.9608,6.03,6.0512,6.0531,6.08,6.08,6.08,6.08,6.08,6.0748,6.0594,6.0537,6.005,5.8434,5.805,5.7992,5.6314,5.6253,5.5786,5.5605,0.0,5.4653,5.4041,5.3595,5.278,5.2178,5.1755,5.17,5.1477,5.1127,5.1514,5.171,5.1708,5.2096,5.2279,5.2302,5.2283,5.2252,5.2233,5.2233,5.2202,5.2182,5.2178,5.2178,5.2159,5.1757,5.1544,5.154,5.1095,5.0898,5.0898,5.0898,5.0283,4.9049,4.8624,4.8179,4.7773,4.7738,4.7331,4.6461,4.6051,0.0,0.0,0.0,0.0,0.0,0.0,0.0,0.0,0.0,0.0,4.3007,4.2649,4.2965,4.4225,4.4356,4.5306,4.7437,4.802,4.7719,4.6468,4.9128,5.0994,5.1374,5.2926,5.4053,5.4457,5.4857,5.5636,5.6856,5.7044,5.7552,5.8632,5.8896,5.9223,5.9973,6.0127,6.0339,6.0723,6.08,6.0633,6.0223,6.0127,5.9992,5.955,5.8819,5.8294,5.8294,5.8294,5.8448,5.8794,5.8896,5.9165,5.9915,6.0127,6.0319,6.0723,6.08,6.08,6.08,6.08,6.08,6.08,6.08,6.08,6.08,6.08,6.0594,5.9665,5.9198,5.8756,5.6437,5.6272,5.6222,5.6208,5.6126,5.5435,5.5122,5.506,5.4095,0.0,0.0,5.2528,5.2156,5.1591,5.2207,5.2499,5.2543,5.3197,5.3491,5.3498,5.3498,5.3498,5.3498,5.3498,5.3498,5.3498,5.3498,5.3498,5.3463,5.2767,5.2438,5.2341,5.1563,5.1057,5.0917,5.0898,5.0573,4.9916,4.9204,4.8778,4.8624,4.8624,4.8198,4.7351,4.7192,4.6461,4.51,4.5023,4.4388,4.2995,4.3057,4.3382,4.3943,4.411,4.497,4.6593,4.6917,4.7342,4.8193,4.8212,4.8649,4.9711,5.1101,5.1342,5.0005,5.1522,5.2796,5.3465,5.4245,5.5052,5.5843,5.656,5.7401,5.839,5.8506,5.8819,5.9588,5.9742,6.0012,6.0646,6.0742,6.0781,6.0781,6.08,6.08,6.08,6.0723,6.08,6.0646,5.9665,5.8896,5.891,5.8986,5.905,5.9531,5.9742,6.0031,6.0614,6.0742,6.08,6.08,6.08,6.08,6.08,6.08,6.08,6.08,6.08,6.08,6.08,6.08,6.08,6.0723,6.0223,5.955,5.691,5.6218,5.621,5.6206,5.6191,5.6067,5.5986,5.5796,5.4288,5.3547,5.3404,5.3348,5.3274,5.3174,5.3282,5.334,5.3336,5.3428,5.3506,5.3498,5.3498,5.3498,5.3498,5.3498,5.3498,5.3498,5.3498,5.3498,5.3478,5.3382,5.3308,5.3212,5.2457,5.1641,5.096,5.0898,5.084,5.0728,5.0612,5.0225,4.9552,4.9513,4.9107,4.8256,4.7502,4.7003,4.6767,4.6748,4.6631,4.6419,4.7096,4.7212,4.6631,4.7179,4.7438,4.7117,4.7698,4.8448,4.9225,4.9072,4.9496,5.0717,5.1045,5.1279,5.1669,5.3186,5.4206,5.4353,5.5044,5.5887,5.6689,5.6942,5.7675,5.9065,5.9327,5.966,6.0442,6.0558,6.0602,6.0762,6.08,6.08,6.08,6.08,6.08,6.08,6.0752,6.0763,6.0695,6.0614,6.046,6.046,6.046,6.0498,6.0469,6.0608,6.0621,6.0762,6.08,6.08,6.08,6.08,6.08,6.08,6.08,6.08,6.08,6.08,6.08,6.08,6.08,6.08,6.08,6.0633,6.0492,5.7649,5.6893,5.685,5.6571,5.6145,5.6098,5.6082,5.5984,5.5245,5.4638,5.425,5.4207,5.3932,5.3545,5.3989,5.4213,5.4233,5.4639,5.4851,5.4871,5.4871,5.4851,5.4851,5.4867,5.4851,5.4851,5.4847,5.4847,5.4813,5.4426,5.4198,5.4116,5.2863,5.2012,5.1602,5.1134,5.0898,5.0898,5.0898,5.0724,5.036,5.036,4.9954,4.9126,4.8701,4.8275,4.7831,4.7796,4.7804,4.7747,4.8126,4.8346,4.8419,4.8766,4.8919,4.8913,4.9231,4.9615,4.9951,5.0383,5.0872,5.1494,5.2215,5.2743,5.3063,5.361,5.4148,5.4638,5.5389,5.6216,5.7082,5.7553,5.8316,5.9526,5.9659,5.992,6.0405,6.0533,6.061,6.0752,6.08,6.08,6.08,6.08,6.08,6.0769,6.0616,6.0391,6.026,6.0118,6.0243,6.0684,6.0781,6.0716,6.0572,6.0703,6.0716,6.0565,6.0697,6.0769,6.08,6.0781,6.0775,6.08,6.08,6.08,6.08,6.08,6.08,6.08,6.08,6.08,6.08,6.08,6.08,5.8439,5.7656,5.7662,5.7166,5.6387,5.6311,5.6182,5.6008,5.5988,5.5659,5.5122,5.5079,5.4697,5.4175,5.4774,5.5064,5.5161,5.5718,5.5988,5.6008,5.6008,5.6008,5.6008,5.6008,5.6008,5.6008,5.6008,5.6008,5.593,5.5354,5.4967,5.4677,5.344,5.2593,5.2186,5.1544,5.1115,5.0917,5.0898,5.0898,5.0898,5.0898,5.0593,5.0032,4.9974,4.9641,4.9018,4.8957,4.8922,4.8863,4.8859,4.9112,4.9646,4.9686,4.986,5.0238,5.0275,5.0342,5.0581,5.1379,5.1955,5.2179,5.3092,5.3755,5.3924,5.3721,5.3909,5.4731,5.5515,5.6353,5.7199,5.799,5.887,5.9773,5.9911,6.006,6.0328,6.0388,6.0475,6.071,6.0759,6.0741,6.066,6.0703,6.0703,6.0572,6.0229,5.9881,5.9701,5.9513,5.9768,6.0203,6.0489,6.0364,6.0137,6.0269,6.0311,6.0108,6.0276,6.0377,6.0424,6.0514,6.0628,6.0622,6.074,6.0775,6.08,6.08,6.08,6.08,6.08,6.08,6.08,6.08,6.08,5.9295,5.8544,5.8482,5.7989,5.723,5.7187,5.6762,5.6124,5.6008,5.5969,5.5892,5.5892,5.5814,5.5795,5.5814,5.5834,5.5853,5.5969,5.6008,5.6008,5.6008,5.6008,5.6046,5.6027,5.6008,5.6046,5.6066,5.6085,5.6085,5.5911,5.5528,5.4871,5.4619,5.3753,5.2418,5.2148,5.1699,5.0917,5.0898,5.0898,5.0898,5.0898,5.0859,5.0801,5.0786,5.0747,5.056,5.0652,5.0636,5.0578,5.0512,5.047,5.0308,5.0235,5.014,4.9968,4.9903,5.0174,5.0971,5.1529,5.217,5.2871,5.2873,5.3122,5.3747,5.3786,5.4057,5.4777,5.5538,5.6366,5.7224,5.8029,5.8943,5.9901,6.0109,6.0349,6.0514,6.0667,6.0654,6.0617,6.0552,6.0487,6.0192,6.0342,6.0409,6.0078,5.972,5.9434,5.9375,5.9294,5.9285,5.9485,5.9517,5.9545,5.9503,5.9492,5.9603,5.9536,5.9528,5.9661,5.98,6.001,6.0194,6.0411,6.0553,6.0757,6.0788,6.08,6.0794,6.0771,6.0777,6.08,6.08,6.0788,6.0788,6.0111,5.9362,5.9362,5.886,5.812,5.8062,5.7869,5.7521,5.6994,5.6762,5.6704,5.624,5.6008,5.6008,5.6008,5.6008,5.6008,5.6008,5.6008,5.6008,5.6008,5.6259,5.6723,5.6781,5.7013,5.7443,5.7033,5.6777,5.6684,5.6259,5.5838,5.549,5.5045,5.4426,5.373,5.3183,5.2489,5.1639,5.161,5.1365,5.091,5.0873,5.0905,5.0905,5.0861,5.0825,5.0846,5.0827,5.0806,5.0729,5.0587,5.0441,5.0281,5.0104,4.9955,4.9876,5.0272,5.0877,5.1703,5.2413,5.2957,5.3315,5.351,5.3771,5.4024,5.3907,5.4112,5.4854,5.5683,5.6517,5.7341,5.8138,5.884,5.9278,5.9362,5.9476,5.9731,5.9761,5.9796,5.9869,5.9893,5.9842,5.9704,5.9768,5.9731,5.941,5.9121,5.8961,5.8832,5.8671,5.8601,5.8679,5.863,5.8735,5.8999,5.9266,5.9276,5.9176,5.9276,5.9424,5.9677,5.9847,6.0115,6.0309,6.0533,6.0686,6.0673,6.0686,6.0686,6.0692,6.0686,6.0686,6.0667,6.0667,6.0698,6.077,6.0267,6.0228,5.9745,5.8976,5.8956,5.8821,5.855,5.7907,5.7651,5.7593,5.6979,5.6708,5.6631,5.624,5.6104,5.6336,5.6356,5.651,5.6684,5.6708,5.7056,5.7632,5.7651,5.7985,5.8415,5.7965,5.7531,5.7247,5.6667,5.6218,5.5915,5.5393,5.4987,5.4712,5.4024,5.3292,5.2515,5.2422,5.2023,5.1299,5.1181,5.1082,5.0898,5.0838,5.0773,5.076,5.0775,5.0757,5.0678,5.042,5.0224,5.0099,5.0046,5.0078,5.0293,5.0994,5.1741,5.2413,5.3145,5.3616,5.3727,5.4027,5.4159,5.4144,5.4131,5.45,5.5318,5.6105,5.6857,5.7425,5.8205,5.8681,5.8793,5.8832,5.8915,5.914,5.915,5.9242,5.934,5.9401,5.9357,5.9321,5.9158,5.8923,5.8853,5.8661,5.8461,5.8323,5.8156,5.8058,5.8111,5.8065,5.8216,5.8595,5.8783,5.8864,5.8795,5.8834,5.9056,5.9536,5.9655,5.9931,6.0082,6.0387,6.0597,6.0623,6.0617,6.0591,6.0597,6.0591,6.0565,6.0617,6.0604,6.0623,6.1075,6.1036,6.1041,6.0538,5.9846,5.9846,5.9382,5.8782,5.8589,5.855,5.855,5.8415,5.8453,5.826,5.682,5.6491,5.7164,5.7241,5.7637,5.8279,5.8357,5.8473,5.855,5.855,5.8589,5.8797,5.8618,5.8098,5.7303,5.7167,5.6714,5.5953,5.5837,5.5427,5.4795,5.4612,5.4106,5.3349,5.3243,5.2862,5.2149,5.1977,5.1601,5.1024,5.0816,5.0751,5.071,5.0701,5.0702,5.0693,5.0424,5.0143,4.9933,5.0316,5.0812,5.1309,5.2037,5.2656,5.3028,5.3502,5.3869,5.4127,5.3979,5.3851,5.3898,5.4454,5.5176,5.6125,5.6729,5.7256,5.7569,5.8229,5.8762,5.8966,5.9025,5.9102,5.9223,5.914,5.9251,5.9168,5.9122,5.9103,5.9112,5.8532,5.8391,5.8437,5.829,5.8077,5.8058,5.802,5.8008,5.8001,5.799,5.8001,5.8047,5.8238,5.8201,5.8179,5.8326,5.8326,5.864,5.9027,5.9456,5.986,6.015,6.0366,6.0545,6.0584,6.0539,6.052,6.0493,6.0493,6.0399,6.0533,6.0533,6.1094,6.1094,6.1094,6.0925,6.0673,6.0673,6.048,6.0151,5.9633,5.9435,5.9324,5.886,5.8589,5.855,5.7965,5.7811,5.8105,5.812,5.8294,5.8589,5.8589,5.8898,5.9401,5.944,5.9712,6.0012,5.9601,5.8882,5.7984,5.7472,5.7038,5.6676,5.6165,5.5726,5.5485,5.5383,5.493,5.4174,5.4087,5.3662,5.2873,5.2776,5.2622,5.2314,5.1284,5.0716,5.0697,5.0697,5.0688,5.0688,5.0897,5.0992,5.0926,5.1235,5.1642,5.2122,5.2457,5.2875,5.3441,5.3693,5.3841,5.3944,5.3879,5.3793,5.3874,5.4467,5.5234,5.6006,5.676,5.736,5.7965,5.8357,5.8548,5.8635,5.8658,5.865,5.8603,5.8584,5.8542,5.8466,5.8434,5.8434,5.8434,5.8175,5.8058,5.8146,5.8092,5.8001,5.7978,5.7978,5.7978,5.7978,5.7978,5.7978,5.799,5.799,5.8001,5.8001,5.8063,5.8271,5.8566,5.8701,5.9075,5.944,5.978,5.9836,5.9911,6.0061,6.0106,6.0311,6.0289,6.0121,6.0076,6.0113,6.0128,6.1094,6.1094,6.1094,6.1094,6.1094,6.1094,6.1094,6.1036,6.0518,6.0291,6.017,5.9653,5.9397,5.9401,5.9397,5.9401,5.9362,5.9169,5.9169,5.9401,5.942,5.9701,6.0171,6.0282,6.0534,6.0799,6.0176,5.9316,5.8393,5.7563,5.7181,5.7084,5.6255,5.5831,5.5826,5.5782,5.5439,5.4986,5.4897,5.4472,5.3717,5.3508,5.3322,5.2922,5.182,5.1308,5.1495,5.1406,5.1364,5.1384,5.1528,5.1669,5.1867,5.2027,5.2391,5.2903,5.2995,5.3209,5.3701,5.3813,5.3813,5.3813,5.3813,5.3839,5.4094,5.4815,5.556,5.6261,5.6991,5.7737,5.8124,5.8286,5.8294,5.8327,5.832,5.8275,5.8163,5.8152,5.8111,5.8058,5.8047,5.8013,5.7978,5.799,5.799,5.7978,5.7978,5.7978,5.7978,5.7978,5.7978,5.7978,5.7978,5.7978,5.7978,5.7978,5.7978,5.7978,5.799,5.8201,5.8383,5.8521,5.8689,5.9046,5.9187,5.9197,5.9298,5.944,5.9673,5.9953,5.9847,5.9648,5.9622,5.9614,5.9648,6.1094,6.1094,6.1094,6.1094,6.1094,6.1094,6.1094,6.1075,6.1041,6.0963,6.0925,6.0959,6.0828,6.0963,6.0809,6.0978,6.0741,6.0166,6.0224,6.0804,6.0905,6.0882,6.092,6.0944,6.0877,6.0843,6.0147,5.9302,5.8373,5.7546,5.7081,5.686,5.6128,5.573,5.5695,5.57,5.5695,5.5598,5.5555,5.5236,5.4561,5.4192,5.3702,5.2952,5.249,5.2577,5.314,5.2778,5.2481,5.2482,5.2135,5.2092,5.259,5.2688,5.2996,5.3571,5.3729,5.3766,5.3794,5.3813,5.3813,5.3813,5.3803,5.4061,5.4704,5.5469,5.6213,5.6873,5.7608,5.819,5.8149,5.8118,5.8095,5.8174,5.8197,5.8152,5.8054,5.8008,5.799,5.7978,5.7978,5.7978,5.7978,5.7978,5.7978,5.7978,5.7978,5.7978,5.7978,5.7978,5.7978,5.7978,5.7978,5.7978,5.7978,5.7978,5.7978,5.799,5.8001,5.8097,5.8293,5.8426,5.85,5.877,5.8821,5.8841,5.8998,5.9159,5.9252,5.9415,5.927,5.9206,5.9187,5.9196,5.9196,6.1094,6.1094,6.1094,6.1094,6.1094,6.1094,6.1094,6.1094,6.1094,6.1094,6.1094,6.1094,6.1094,6.1094,6.1094,6.106,6.1007,6.078,6.0833,6.1051,6.1094,6.1046,6.1022,6.1051,6.0747,6.0141,5.9768,5.9166,5.8316,5.7439,5.7019,5.6849,5.6132,5.5728,5.5689,5.5689,5.5689,5.5689,5.5689,5.5465,5.5092,5.4956,5.4625,5.4211,5.404,5.4105,5.4239,5.3054,5.2391,5.2391,5.2751,5.3217,5.365,5.3767,5.3774,5.3795,5.3813,5.3813,5.3813,5.3813,5.3813,5.3793,5.3754,5.4074,5.4714,5.5499,5.6226,5.6871,5.7599,5.8072,5.8042,5.8031,5.802,5.8042,5.8054,5.8054,5.8008,5.7978,5.7978,5.7978,5.7978,5.7978,5.7978,5.7978,5.7978,5.7978,5.7978,5.7978,5.7978,5.7978,5.7978,5.7978,5.7978,5.7978,5.7978,5.7978,5.7978,5.7978,5.799,5.8001,5.8179,5.8301,5.8358,5.8412,5.8466,5.8542,5.872,5.8821,5.888,5.8959,5.893,5.8881,5.8802,5.8772,5.8772,6.1094,6.1094,6.1094,6.1094,6.1094,6.1094,6.1094,6.1094,6.1094,6.1084,6.107,6.1051,6.1061,6.106,6.1056,6.1041,6.101,6.101,6.1026,6.1056,6.1056,6.1031,6.0971,6.0996,6.0552,5.9743,5.9268,5.8795,5.8251,5.7143,5.667,5.681,5.6132,5.5689,5.5689,5.5684,5.5657,5.5585,5.5635,5.5514,5.5204,5.5117,5.4952,5.4635,5.4495,5.443,5.4346,5.3333,5.2873,5.3008,5.3432,5.3779,5.4087,5.408,5.4027,5.387,5.3813,5.3813,5.3813,5.3813,5.3813,5.3812,5.4003,5.4431,5.5096,5.582,5.6522,5.7212,5.7714,5.7978,5.799,5.7978,5.7978,5.799,5.799,5.7978,5.7978,5.7978,5.7978,5.7978,5.7978,5.7978,5.7978,5.7978,5.7978,5.7978,5.7978,5.7978,5.7978,5.7978,5.7978,5.7978,5.7978,5.7978,5.7978,5.7978,5.7978,5.7978,5.799,5.799,5.8063,5.8085,5.8142,5.8153,5.8179,5.8231,5.8369,5.838,5.8423,5.85,5.8586,5.8469,5.8362,5.8362,5.838,6.1094,6.1094,6.1094,6.1089,6.1089,6.1089,6.1084,6.1089,6.1084,6.1056,6.1007,6.1016,6.101,6.1008,6.1008,6.1022,6.1006,6.0987,6.0981,6.0987,6.0981,6.0946,6.093,6.0914,6.0462,5.966,5.8904,5.8377,5.8008,5.6744,5.6132,5.667,5.6074,5.5689,5.5678,5.5678,5.5526,5.5395,5.5514,5.5301,5.4806,5.4776,5.4615,5.4289,5.4036,5.387,5.3861,5.373,5.3841,5.4148,5.3878,5.3786,5.3813,5.3813,5.3832,5.3813,5.3813,5.3813,5.3813,5.3813,5.3887,5.4026,5.4485,5.5237,5.5889,5.6502,5.7111,5.7762,5.7941,5.7978,5.7978,5.7978,5.7978,5.7978,5.7978,5.7978,5.7978,5.7978,5.7978,5.7978,5.7978,5.7978,5.7978,5.7978,5.7978,5.7978,5.7978,5.7978,5.7978,5.7978,5.7978,5.7978,5.7978,5.7978,5.7978,5.7978,5.7978,5.7978,5.7978,5.7978,5.7978,5.7978,5.7978,5.7978,5.799,5.8001,5.8024,5.8097,5.8108,5.8179,5.8146,5.8013,5.8024,5.8097,5.813,6.1027,6.1022,6.1022,6.1027,6.1022,6.1027,6.1027,6.1036,6.1016,6.1034,6.0999,6.0999,6.1008,6.1011,6.1006,6.0971,6.0938,6.0914,6.0886,6.0871,6.0852,6.0916,6.0938,6.0844,6.0434,5.9683,5.9279,5.8558,5.7404,5.6873,5.6459,5.6016,5.5901,5.5684,5.5673,5.5497,5.5382,5.5275,5.5091,5.4868,5.4501,5.4438,5.4272,5.3963,5.3841,5.3813,5.3813,5.3813,5.3841,5.3917,5.3842,5.3813,5.3813,5.3813,5.3813,5.3813,5.3813,5.3813,5.3813,5.3831,5.4073,5.4611,5.4883,5.5431,5.6676,5.6908,5.7331,5.7811,5.7978,5.7978,5.7978,5.7978,5.7978,5.7978,5.7978,5.7978,5.7978,5.7978,5.7978,5.7978,5.7978,5.7978,5.7978,5.7978,5.7978,5.7978,5.7978,5.7978,5.7978,5.7978,5.7978,5.7978,5.7978,5.7978,5.7978,5.7978,5.7978,5.7978,5.7978,5.7978,5.7978,5.7978,5.7978,5.7978,5.7978,5.799,5.799,5.8024,5.799,5.7978,5.7978,5.7978,5.7978,5.8035,5.8035,6.1005,6.1005,6.1005,6.1005,6.1005,6.1005,6.1005,6.1,6.1008,6.0995,6.096,6.096,6.0924,6.0927,6.0903,6.0905,6.0858,6.0858,6.0835,6.0812,6.0806,6.0841,6.0869,6.081,6.0535,6.0115,5.9682,5.8998,5.8074,5.7382,5.6728,5.6305,5.5882,5.566,5.5502,5.5389,5.5138,5.4931,5.4791,5.4583,5.4143,5.4238,5.4125,5.3879,5.3813,5.3813,5.3813,5.3813,5.3813,5.3813,5.3813,5.3813,5.3813,5.3813,5.3813,5.3813,5.3813,5.3813,5.3887,5.4091,5.4518,5.5018,5.5401,5.6195,5.695,5.7262,5.765,5.7909,5.799,5.7978,5.7978,5.7978,5.7978,5.7978,5.7978,5.7978,5.7978,5.7978,5.7978,5.7978,5.7978,5.7978,5.7978,5.7978,5.7978,5.7978,5.7978,5.7978,5.7978,5.7978,5.7978,5.7978,5.7978,5.7978,5.7978,5.7978,5.7978,5.7978,5.7978,5.7978,5.7978,5.7978,5.7978,5.7978,5.7978,5.7978,5.7978,5.7978,5.7978,5.7978,5.7978,5.7978,5.7978,5.7978,5.7978,6.0981,6.0981,6.0981,6.1006,6.0981,6.0981,6.0987,6.0981,6.0965,6.0938,6.0905,6.088,6.0858,6.08,6.0823,6.0806,6.0787,6.0812,6.0806,6.08,6.08,6.0812,6.0818,6.0812,6.0748,6.06,5.996,5.9608,5.9031,5.7921,5.7305,5.7019,5.6368,5.5783,5.5626,5.5414,5.496,5.453,5.452,5.4338,5.399,5.4081,5.4035,5.386,5.3813,5.3813,5.3813,5.3813,5.3813,5.3813,5.3813,5.3813,5.3813,5.3813,5.3813,5.3813,5.3813,5.385,5.4035,5.4602,5.514,5.5519,5.6498,5.7174,5.7353,5.7718,5.7951,5.799,5.799,5.7978,5.7978,5.7978,5.7978,5.7978,5.7978,5.7978,5.7978,5.7978,5.7978,5.7978,5.7978,5.7978,5.7978,5.7978,5.7978,5.7978,5.7978,5.7978,5.7978,5.7978,5.7978,5.7978,5.7978,5.7978,5.7978,5.7978,5.7978,5.7978,5.7978,5.7978,5.7978,5.7978,5.7978,5.7978,5.7978,5.7978,5.7978,5.7978,5.7978,5.7978,5.7978,5.7978,5.7978,5.7978,5.7978,6.0908,6.0927,6.0908,6.0927,6.0908,6.0908,6.0908,6.0903,6.0863,6.0841,6.0823,6.0823,6.0818,6.08,6.08,6.08,6.08,6.08,6.08,6.08,6.08,6.08,6.08,6.08,6.08,6.0729,6.0627,6.0165,5.9492,5.9088,5.8607,5.7964,5.742,5.6894,5.6241,5.5743,5.5074,5.4412,5.417,5.4046,5.3889,5.3879,5.3907,5.3813,5.3813,5.3813,5.3813,5.3813,5.3813,5.3813,5.3813,5.3813,5.3813,5.385,5.3887,5.3924,5.3924,5.4137,5.4639,5.5029,5.5605,5.6727,5.7079,5.7511,5.8068,5.8076,5.8118,5.8031,5.7978,5.7978,5.7978,5.7978,5.7978,5.7978,5.7978,5.7978,5.7978,5.7978,5.7978,5.7978,5.7978,5.7978,5.7978,5.7978,5.7978,5.7978,5.7978,5.7978,5.7978,5.7978,5.7978,5.7978,5.7978,5.7978,5.7978,5.7978,5.7978,5.7978,5.7978,5.7978,5.7978,5.7978,5.7978,5.7978,5.7978,5.7978,5.7978,5.7978,5.7978,5.7978,5.7978,5.7978,5.7978,5.7978,5.7978,6.0852,6.0852,6.0852,6.0852,6.0852,6.0852,6.0852,6.0841,6.0798,6.08,6.08,6.08,6.08,6.08,6.08,6.08,6.08,6.08,6.08,6.08,6.08,6.08,6.08,6.08,6.08,6.08,6.0781,6.0473,6.0146,5.9692,5.9134,5.8641,5.8208,5.7418,5.6777,5.6382,5.5744,5.4828,5.4456,5.4193,5.3868,5.3813,5.3813,5.3813,5.3813,5.3813,5.3813,5.3813,5.3813,5.3813,5.3813,5.3813,5.3924,5.4166,5.4342,5.4397,5.4825,5.5085,5.5549,5.5995,5.657,5.7406,5.7684,5.8013,5.8275,5.8264,5.8152,5.8042,5.7978,5.7978,5.7978,5.7978,5.7978,5.7978,5.7978,5.7978,5.7978,5.7978,5.7978,5.7978,5.7978,5.7978,5.7978,5.7978,5.7978,5.7978,5.7978,5.7978,5.7978,5.7978,5.7978,5.7978,5.7978,5.7978,5.7978,5.7978,5.7978,5.7978,5.7978,5.7978,5.7978,5.7978,5.7978,5.7978,5.7978,5.7978,5.7978,5.7978,5.7978,5.7978,5.7978,5.7978,5.7978,5.7978,5.7978,6.08,6.08,6.08,6.08,6.08,6.0806,6.0806,6.0787,6.08,6.08,6.08,6.08,6.08,6.08,6.08,6.08,6.08,6.08,6.08,6.08,6.08,6.08,6.08,6.08,6.08,6.08,6.08,6.0723,6.0531,6.0115,5.9662,5.9222,5.8859,5.8127,5.7293,5.7148,5.6654,5.5434,5.5207,5.4825,5.4212,5.4073,5.4035,5.3813,5.3813,5.3813,5.3813,5.3813,5.3868,5.398,5.3989,5.4063,5.4304,5.4564,5.5122,5.5159,5.5782,5.6172,5.6487,5.7008,5.7453,5.7647,5.8119,5.8383,5.8367,5.8264,5.8133,5.8054,5.7978,5.7978,5.7978,5.7978,5.7978,5.7978,5.7978,5.7978,5.7978,5.7978,5.7978,5.7978,5.7978,5.7978,5.7978,5.7978,5.7978,5.7978,5.7978,5.7978,5.7978,5.7978,5.7978,5.7978,5.7978,5.7978,5.7978,5.7978,5.7978,5.7978,5.7978,5.7978,5.7978,5.7978,5.7978,5.7978,5.7978,5.7978,5.7978,5.7978,5.7978,5.7978,5.7978,5.7978,5.7978,5.7978,5.7978,6.08,6.08,6.08,6.08,6.08,6.08,6.08,6.08,6.08,6.08,6.08,6.08,6.08,6.08,6.08,6.08,6.08,6.08,6.08,6.08,6.08,6.08,6.08,6.08,6.08,6.08,6.08,6.08,6.0781,6.0615,6.0188,6.0062,5.9889,5.9102,5.8077,5.7805,5.7349,5.6269,5.605,5.5623,5.501,5.4676,5.4416,5.398,5.3868,5.384,5.3859,5.3868,5.411,5.4713,5.4769,5.5196,5.5559,5.5382,5.5512,5.5986,5.6376,5.6822,5.7268,5.7453,5.7899,5.8295,5.85,5.8468,5.8396,5.8275,5.8163,5.8042,5.7978,5.7978,5.7978,5.7978,5.7978,5.7978,5.7978,5.7978,5.7978,5.7978,5.7978,5.7978,5.7978,5.7978,5.7978,5.7978,5.7978,5.7978,5.7978,5.7978,5.7978,5.7978,5.7978,5.7978,5.7978,5.7978,5.7978,5.7978,5.7978,5.7978,5.7978,5.7978,5.7978,5.7978,5.7978,5.7978,5.7978,5.7978,5.7978,5.7978,5.7978,5.7978,5.7978,5.7978,5.7978,5.7978,5.7978,6.08,6.08,6.08,6.08,6.08,6.08,6.08,6.08,6.08,6.08,6.08,6.08,6.08,6.08,6.08,6.08,6.08,6.08,6.08,6.08,6.08,6.08,6.08,6.08,6.08,6.08,6.08,6.08,6.0763,6.0597,6.0395,6.0102,6.0034,5.9446,5.8681,5.8531,5.7949,5.7172,5.6867,5.6515,5.5679,5.5326,5.475,5.449,5.4082,5.4026,5.4379,5.4416,5.4843,5.5493,5.5679,5.6134,5.6515,5.6626,5.6459,5.6896,5.7268,5.7629,5.8029,5.813,5.8335,5.8595,5.8635,5.8561,5.8454,5.8364,5.8208,5.8054,5.7978,5.7978,5.7978,5.7978,5.7978,5.7978,5.7978,5.7978,5.7978,5.7978,5.7978,5.7978,5.7978,5.7978,5.7978,5.7978,5.7978,5.7978,5.7978,5.7978,5.7978,5.7978,5.7978,5.7978,5.7978,5.7978,5.7978,5.7978,5.7978,5.7978,5.7978,5.7978,5.7978,5.7978,5.7978,5.7978,5.7978,5.7978,5.7978,5.7978,5.7978,5.7978,5.7978,5.7978,5.7978,5.7978,5.7978,6.08,6.08,6.08,6.08,6.08,6.08,6.08,6.08,6.08,6.08,6.08,6.08,6.08,6.08,6.08,6.08,6.08,6.08,6.08,6.08,6.08,6.08,6.08,6.08,6.08,6.08,6.08,6.08,6.074,6.0488,6.015,5.9926,5.9807,5.9425,5.8879,5.8924,5.8442,5.8077,5.7722,5.7323,5.6543,5.5744,5.5252,5.5252,5.4639,5.4694,5.5206,5.527,5.5726,5.6283,5.6607,5.6905,5.7565,5.7732,5.7732,5.7843,5.8364,5.8613,5.8669,5.865,5.8595,5.8687,5.8687,5.8606,5.8519,5.8386,5.8242,5.8054,5.7978,5.7978,5.7978,5.7978,5.7978,5.7978,5.7978,5.7978,5.7978,5.7978,5.7978,5.7978,5.7978,5.7978,5.7978,5.7978,5.7978,5.7978,5.7978,5.7978,5.7978,5.7978,5.7978,5.7978,5.7978,5.7978,5.7978,5.7978,5.7978,5.7978,5.7978,5.7978,5.7978,5.7978,5.7978,5.7978,5.7978,5.7978,5.7978,5.7978,5.7978,5.7978,5.7978,5.7978,5.7978,5.7978,5.7978,6.08,6.08,6.08,6.08,6.08,6.08,6.08,6.08,6.08,6.08,6.08,6.08,6.08,6.08,6.08,6.08,6.08,6.08,6.08,6.08,6.08,6.08,6.08,6.08,6.08,6.08,6.08,6.08,6.0728,6.0455,6.0124,5.9863,5.97,5.9425,5.8803,5.8976,5.8988,5.8603,5.852,5.813,5.7379,5.658,5.6209,5.6097,5.5949,5.592,5.6097,5.6172,5.6543,5.723,5.7379,5.7769,5.8401,5.8568,5.8568,5.8568,5.865,5.8687,5.8687,5.8687,5.8687,5.8687,5.8687,5.8617,5.8497,5.8323,5.8174,5.8013,5.7978,5.7978,5.7978,5.7978,5.7978,5.7978,5.7978,5.7978,5.7978,5.7978,5.7978,5.7978,5.7978,5.7978,5.7978,5.7978,5.7978,5.7978,5.7978,5.7978,5.7978,5.7978,5.7978,5.7978,5.7978,5.7978,5.7978,5.7978,5.7978,5.7978,5.7978,5.7978,5.7978,5.7978,5.7978,5.7978,5.7978,5.7978,5.7978,5.7978,5.7978,5.7978,5.7978,5.7978,5.7978,5.7978,5.7978,6.08,6.08,6.08,6.08,6.08,6.08,6.08,6.08,6.08,6.08,6.08,6.08,6.08,6.08,6.08,6.08,6.08,6.08,6.08,6.08,6.08,6.08,6.08,6.08,6.08,6.08,6.08,6.08,6.0703,6.0468,6.0116,5.9815,5.9565,5.9215,5.8739,5.8845,5.8815,5.8692,5.865,5.852,5.8075,5.7443,5.6979,5.696,5.658,5.6636,5.6896,5.7008,5.7398,5.8011,5.8167,5.8297,5.8595,5.8687,5.8687,5.8687,5.8687,5.8687,5.8687,5.8687,5.8687,5.8687,5.8677,5.8614,5.8473,5.8308,5.8152,5.8008,5.799,5.7978,5.7978,5.7978,5.7978,5.7978,5.7978,5.7978,5.7978,5.7978,5.7978,5.7978,5.7978,5.7978,5.7978,5.7978,5.7978,5.7978,5.7978,5.7978,5.7978,5.7978,5.7978,5.7978,5.7978,5.7978,5.7978,5.7978,5.7978,5.7978,5.7978,5.7978,5.7978,5.7978,5.7978,5.7978,5.7978,5.7978,5.7978,5.7978,5.7978,5.7978,5.7978,5.7978,5.7978,5.7978,5.7978,6.08,6.08,6.08,6.08,6.08,6.08,6.08,6.08,6.08,6.08,6.08,6.08,6.08,6.08,6.08,6.08,6.08,6.08,6.08,6.08,6.08,6.08,6.08,6.08,6.08,6.08,6.08,6.0734,6.0597,6.0409,6.0124,5.9782,5.9307,5.8985,5.8772,5.8719,5.8708,5.8698,5.8687,5.865,5.852,5.8112,5.7852,5.761,5.7313,5.7175,5.7695,5.7796,5.8186,5.8465,5.8595,5.8613,5.8687,5.8687,5.8687,5.8687,5.8687,5.8687,5.8687,5.8687,5.8687,5.8687,5.8667,5.8622,5.8437,5.8305,5.8163,5.8038,5.799,5.7978,5.7978,5.7978,5.7978,5.7978,5.7978,5.7978,5.7978,5.7978,5.7978,5.7978,5.7978,5.7978,5.7978,5.7978,5.7978,5.7978,5.7978,5.7978,5.7978,5.7978,5.7978,5.7978,5.7978,5.7978,5.7978,5.7978,5.7978,5.7978,5.7978,5.7978,5.7978,5.7978,5.7978,5.7978,5.7978,5.7978,5.7978,5.7978,5.7978,5.7978,5.7978,5.7978,5.7978,5.7978,5.7978,6.08,6.08,6.08,6.08,6.08,6.08,6.08,6.08,6.08,6.08,6.08,6.08,6.08,6.08,6.08,6.08,6.08,6.08,6.08,6.08,6.08,6.08,6.08,6.08,6.08,6.08,6.0781,6.0635,6.0402,6.0293,6.0057,5.9758,5.9178,5.8845,5.8698,5.8687,5.8687,5.8687,5.8687,5.8687,5.8687,5.8557,5.852,5.852,5.8502,5.8557,5.8595,5.852,5.8502,5.8687,5.8687,5.8687,5.8687,5.8687,5.8687,5.8687,5.8687,5.8687,5.8687,5.8687,5.8687,5.8687,5.8646,5.858,5.8415,5.8382,5.8242,5.8031,5.799,5.7978,5.7978,5.7978,5.7978,5.7978,5.7978,5.7978,5.7978,5.7978,5.7978,5.7978,5.7978,5.7978,5.7978,5.7978,5.7978,5.7978,5.7978,5.7978,5.7978,5.7978,5.7978,5.7978,5.7978,5.7978,5.7978,5.7978,5.7978,5.7978,5.7978,5.7978,5.7978,5.7978,5.7978,5.7978,5.7978,5.7978,5.7978,5.7978,5.7978,5.7978,5.7978,5.7978,5.7978,5.7978,5.7978,6.08,6.08,6.08,6.08,6.08,6.08,6.08,6.08,6.08,6.08,6.08,6.08,6.08,6.08,6.08,6.08,6.08,6.08,6.08,6.08,6.08,6.08,6.08,6.0775,6.08,6.0769,6.0763,6.0616,6.0321,6.0087,5.9763,5.9406,5.9064,5.8906,5.8782,5.8687,5.8687,5.8687,5.8687,5.8687,5.8687,5.8687,5.8687,5.8687,5.8687,5.8687,5.8669,5.8687,5.8687,5.8687,5.8687,5.8687,5.8687,5.8687,5.8687,5.8687,5.8687,5.8687,5.8687,5.8687,5.8687,5.8675,5.859,5.8473,5.8393,5.8282,5.8152,5.802,5.7978,5.7978,5.7978,5.7978,5.7978,5.7978,5.7978,5.7978,5.7978,5.7978,5.7978,5.7978,5.7978,5.7978,5.7978,5.7978,5.7978,5.7978,5.7978,5.7978,5.7978,5.7978,5.7978,5.7978,5.7978,5.7978,5.7978,5.7978,5.7978,5.7978,5.7978,5.7978,5.7978,5.7978,5.7978,5.7978,5.7978,5.7978,5.7978,5.7978,5.7978,5.7978,5.7978,5.7978,5.7978,5.7978,5.7978,6.08,6.08,6.08,6.08,6.08,6.08,6.08,6.08,6.08,6.08,6.08,6.08,6.08,6.08,6.08,6.08,6.08,6.08,6.08,6.08,6.08,6.08,6.0757,6.0684,6.0591,6.0635,6.0488,6.0274,5.9888,5.9723,5.9433,5.9169,5.9035,5.8847,5.8762,5.8687,5.8687,5.8687,5.8687,5.8687,5.8687,5.8687,5.8687,5.8687,5.8687,5.8687,5.8687,5.8687,5.8687,5.8687,5.8687,5.8687,5.8687,5.8687,5.8687,5.8687,5.8687,5.8687,5.8687,5.8687,5.8687,5.8667,5.8558,5.8451,5.836,5.8197,5.8106,5.799,5.7978,5.7978,5.7978,5.7978,5.7978,5.7978,5.7978,5.7978,5.7978,5.7978,5.7978,5.7978,5.7978,5.7978,5.7978,5.7978,5.7978,5.7978,5.7978,5.7978,5.7978,5.7978,5.7978,5.7978,5.7978,5.7978,5.7978,5.7978,5.7978,5.7978,5.7978,5.7978,5.7978,5.7978,5.7978,5.7978,5.7978,5.7978,5.7978,5.7978,5.7978,5.7978,5.7978,5.7978,5.7978,5.7978,5.7978,6.08,6.08,6.08,6.08,6.08,6.08,6.08,6.08,6.08,6.08,6.08,6.08,6.08,6.08,6.08,6.08,6.08,6.08,6.08,6.08,6.08,6.08,6.0684,6.0559,6.0415,6.0232,6.0094,5.9785,5.9333,5.9334,5.9083,5.8835,5.8752,5.8721,5.8687,5.8687,5.8687,5.8687,5.8677,5.8667,5.8646,5.8646,5.8656,5.8656,5.8687,5.8687,5.8687,5.8687,5.8687,5.8687,5.8687,5.8687,5.8687,5.8687,5.8687,5.8687,5.8687,5.8687,5.8687,5.8687,5.8687,5.8677,5.8551,5.8465,5.8386,5.8264,5.8141,5.8054,5.8008,5.799,5.7978,5.7978,5.7978,5.7978,5.7978,5.7978,5.7978,5.7978,5.7978,5.7978,5.7978,5.7978,5.7978,5.7978,5.7978,5.7978,5.7978,5.7978,5.7978,5.7978,5.7978,5.7978,5.7978,5.7978,5.7978,5.7978,5.7978,5.7978,5.7978,5.7978,5.7978,5.7978,5.7978,5.7978,5.7978,5.7978,5.7978,5.7978,5.7978,5.7978,5.7978,5.7978,5.7978,5.7978,5.7978,6.08,6.08,6.08,6.08,6.08,6.08,6.08,6.08,6.08,6.08,6.08,6.08,6.08,6.08,6.0788,6.0788,6.08,6.08,6.08,6.0775,6.0752,6.08,6.0672,6.0422,6.0265,6.0208,5.995,5.9537,5.9243,5.9112,5.8898,5.865,5.8558,5.8561,5.8646,5.8677,5.8667,5.8574,5.8553,5.8532,5.8516,5.8558,5.8582,5.8593,5.8646,5.8687,5.8687,5.8687,5.8687,5.8687,5.8687,5.8687,5.8687,5.8687,5.8687,5.8687,5.8687,5.8687,5.8687,5.8687,5.8687,5.8656,5.8572,5.8497,5.8454,5.8297,5.8208,5.8129,5.8031,5.802,5.7978,5.7978,5.7978,5.7978,5.7978,5.7978,5.7978,5.7978,5.7978,5.7978,5.7978,5.7978,5.7978,5.7978,5.7978,5.7978,5.7978,5.7978,5.7978,5.7978,5.7978,5.7978,5.7978,5.7978,5.7978,5.7978,5.7978,5.7978,5.7978,5.7978,5.7978,5.7978,5.7978,5.7978,5.7978,5.7978,5.7978,5.7978,5.7978,5.7978,5.7978,5.7978,5.7978,5.7978,5.7978,6.08,6.08,6.08,6.08,6.08,6.08,6.08,6.08,6.08,6.08,6.08,6.08,6.08,6.0763,6.0678,6.074,6.0752,6.0527,6.0572,6.0572,6.0488,6.0415,6.03,6.0153,5.9849,5.9817,5.9597,5.9215,5.8919,5.8879,5.8714,5.8511,5.8418,5.8491,5.8548,5.8569,5.8529,5.8476,5.8483,5.8443,5.844,5.8483,5.8511,5.8543,5.8614,5.8687,5.8687,5.8687,5.8687,5.8687,5.8687,5.8687,5.8677,5.8656,5.8646,5.8635,5.8617,5.8646,5.8677,5.8687,5.8687,5.8677,5.8551,5.8494,5.8422,5.8234,5.8163,5.8095,5.8054,5.8031,5.799,5.799,5.7978,5.7978,5.7978,5.7978,5.7978,5.7978,5.7978,5.7978,5.7978,5.7978,5.7978,5.7978,5.7978,5.7978,5.7978,5.7978,5.7978,5.7978,5.7978,5.7978,5.7978,5.7978,5.7978,5.7978,5.7978,5.7978,5.7978,5.7978,5.7978,5.7978,5.7978,5.7978,5.7978,5.7978,5.7978,5.7978,5.7978,5.7978,5.7978,5.7978,5.7978,5.7978,5.7978,6.08,6.08,6.08,6.08,6.0781,6.0757,6.0757,6.0781,6.08,6.08,6.08,6.0763,6.0722,6.0697,6.0429,6.0429,6.0585,6.015,6.0201,6.0204,6.0194,6.0053,5.9855,5.9561,5.9466,5.9206,5.8986,5.8885,5.8545,5.8566,5.8519,5.8386,5.832,5.836,5.8371,5.8364,5.8364,5.8364,5.8364,5.8342,5.8338,5.84,5.8443,5.8486,5.8572,5.8625,5.8646,5.8667,5.8685,5.8696,5.8685,5.8696,5.8646,5.8572,5.8521,5.8511,5.8511,5.8572,5.8635,5.8646,5.8635,5.8593,5.8491,5.8415,5.8371,5.8246,5.8186,5.8129,5.8088,5.8054,5.8001,5.799,5.7978,5.7978,5.7978,5.7978,5.7978,5.7978,5.7978,5.7978,5.7978,5.7978,5.7978,5.7978,5.7978,5.7978,5.7978,5.7978,5.7978,5.7978,5.7978,5.7978,5.7978,5.7978,5.7978,5.7978,5.7978,5.7978,5.7978,5.7978,5.7978,5.7978,5.7978,5.7978,5.7978,5.7978,5.7978,5.7978,5.7978,5.7978,5.7978,5.7978,5.7978,5.7978,5.7978,6.08,6.08,6.08,6.08,6.0757,6.0546,6.0572,6.0769,6.08,6.08,6.0794,6.0546,6.0468,6.0415,6.0106,6.0042,6.0079,6.0138,6.023,6.0187,5.9992,6.0102,5.9899,5.9475,5.9261,5.9083,5.8877,5.8685,5.8614,5.8508,5.829,5.8152,5.8163,5.8152,5.8152,5.8129,5.8186,5.8249,5.8253,5.8219,5.8197,5.8257,5.829,5.8356,5.8486,5.8548,5.8537,5.8633,5.8643,5.8582,5.8572,5.8572,5.8543,5.8476,5.844,5.8508,5.8476,5.8462,5.8548,5.8534,5.8513,5.8483,5.8371,5.8367,5.8367,5.8342,5.8231,5.8174,5.8111,5.8077,5.8042,5.8013,5.799,5.7978,5.7978,5.7978,5.7978,5.7978,5.7978,5.7978,5.7978,5.7978,5.7978,5.7978,5.7978,5.7978,5.7978,5.7978,5.7978,5.7978,5.7978,5.7978,5.7978,5.7978,5.7978,5.7978,5.7978,5.7978,5.7978,5.7978,5.7978,5.7978,5.7978,5.7978,5.7978,5.7978,5.7978,5.7978,5.7978,5.7978,5.7978,5.7978,5.7978,5.7978,5.7978,6.08,6.0769,6.0654,6.0533,6.0402,6.0328,6.0375,6.0415,6.039,6.0409,6.0382,6.0175,6.0113,6.0042,5.9747,5.9667,5.9815,5.9588,5.9604,5.9753,5.9785,5.9597,5.9423,5.9289,5.9035,5.8906,5.8825,5.8656,5.8582,5.8429,5.8208,5.8129,5.8049,5.8008,5.8001,5.8031,5.8072,5.8106,5.8118,5.8065,5.8077,5.8129,5.8186,5.8231,5.8396,5.8407,5.8404,5.8537,5.8508,5.8465,5.8473,5.8454,5.8443,5.8375,5.832,5.8356,5.8353,5.8375,5.844,5.8448,5.8422,5.8379,5.8282,5.8275,5.8268,5.8223,5.8197,5.8163,5.8122,5.8099,5.8077,5.8035,5.8013,5.7978,5.7978,5.7978,5.7978,5.7978,5.7978,5.7978,5.7978,5.7978,5.7978,5.7978,5.7978,5.7978,5.7978,5.7978,5.7978,5.7978,5.7978,5.7978,5.7978,5.7978,5.7978,5.7978,5.7978,5.7978,5.7978,5.7978,5.7978,5.7978,5.7978,5.7978,5.7978,5.7978,5.7978,5.7978,5.7978,5.7978,5.7978,5.7978,5.7978,5.7978,5.7978,6.0769,6.0702,6.0409,6.0072,5.9823,6.0049,6.0004,5.9744,5.9708,5.9758,5.9807,5.9774,5.9731,5.9664,5.9361,5.9362,5.9389,5.9215,5.9215,5.9224,5.9178,5.9083,5.9015,5.8729,5.8784,5.8721,5.8667,5.8625,5.8486,5.8323,5.8208,5.8186,5.8072,5.8008,5.7978,5.7978,5.802,5.8031,5.8031,5.8001,5.8042,5.8118,5.8197,5.8197,5.8286,5.836,5.836,5.8382,5.8393,5.8393,5.8382,5.8382,5.8297,5.8253,5.8208,5.8208,5.8208,5.8253,5.832,5.832,5.8327,5.8305,5.8253,5.8197,5.8145,5.8167,5.8156,5.8163,5.8122,5.8111,5.8099,5.8035,5.799,5.7978,5.7978,5.7978,5.7978,5.7978,5.7978,5.7978,5.7978,5.7978,5.7978,5.7978,5.7978,5.7978,5.7978,5.7978,5.7978,5.7978,5.7978,5.7978,5.7978,5.7978,5.7978,5.7978,5.7978,5.7978,5.7978,5.7978,5.7978,5.7978,5.7978,5.7978,5.7978,5.7978,5.7978,5.7978,5.7978,5.7978,5.7978,5.7978,5.7978,5.7978,5.7978,6.0647,6.0376,6.0068,5.9698,5.9379,5.9431,5.9279,5.8975,5.8965,5.9271,5.9667,5.9494,5.9352,5.9289,5.9006,5.8966,5.8916,5.9045,5.9131,5.915,5.9016,5.8936,5.8976,5.8782,5.8719,5.8687,5.8656,5.8601,5.844,5.8275,5.8152,5.8072,5.8008,5.799,5.7978,5.7978,5.7978,5.7978,5.7978,5.7978,5.802,5.802,5.8072,5.8106,5.8163,5.8167,5.8219,5.8286,5.8275,5.8264,5.8253,5.8197,5.8088,5.8084,5.8118,5.8145,5.8099,5.8133,5.8167,5.8167,5.8133,5.8111,5.8077,5.8054,5.8065,5.8111,5.8133,5.8122,5.8141,5.8141,5.8099,5.8042,5.7978,5.7978,5.7978,5.7978,5.7978,5.7978,5.7978,5.7978,5.7978,5.7978,5.7978,5.7978,5.7978,5.7978,5.7978,5.7978,5.7978,5.7978,5.7978,5.7978,5.7978,5.7978,5.7978,5.7978,5.7978,5.7978,5.7978,5.7978,5.7978,5.7978,5.7978,5.7978,5.7978,5.7978,5.7978,5.7978,5.7978,5.7978,5.7978,5.7978,5.7978,5.7978,5.7978,6.0388,6.0083,5.9879,5.9486,5.9055,5.9131,5.9015,5.8721,5.8687,5.8925,5.9253,5.9083,5.8976,5.8976,5.8762,5.8687,5.8729,5.8885,5.8925,5.8966,5.8977,5.8927,5.8885,5.8793,5.8739,5.8687,5.8614,5.8537,5.8393,5.8282,5.8152,5.8065,5.8042,5.7978,5.7978,5.7978,5.7978,5.7978,5.7978,5.7978,5.7978,5.8008,5.8008,5.8031,5.8042,5.8054,5.8077,5.8163,5.8152,5.8129,5.8118,5.8106,5.8031,5.8001,5.8031,5.8065,5.8054,5.8049,5.8054,5.8054,5.7978,5.7978,5.7978,5.802,5.802,5.8065,5.8065,5.8065,5.8065,5.8054,5.8072,5.8008,5.799,5.7978,5.7978,5.7978,5.7978,5.7978,5.7978,5.7978,5.7978,5.7978,5.7978,5.7978,5.7978,5.7978,5.7978,5.7978,5.7978,5.7978,5.7978,5.7978,5.7978,5.7978,5.7978,5.7978,5.7978,5.7978,5.7978,5.7978,5.7978,5.7978,5.7978,5.7978,5.7978,5.7978,5.7978,5.7978,5.7978,5.7978,5.7978,5.7978,5.7978,5.7978,5.7978,6.0034,5.975,5.9667,5.9299,5.8793,5.9006,5.8976,5.8729,5.8687,5.8687,5.876,5.8731,5.8687,5.8687,5.8687,5.8687,5.8719,5.8762,5.875,5.8739,5.87,5.8712,5.8702,5.8646,5.8614,5.8572,5.8508,5.844,5.8367,5.8219,5.8133,5.8133,5.8077,5.7978,5.7978,5.7978,5.7978,5.7978,5.7978,5.7978,5.7978,5.7978,5.7978,5.7978,5.7978,5.7978,5.8008,5.8008,5.8008,5.8008,5.802,5.802,5.8008,5.7978,5.799,5.8001,5.8001,5.8008,5.8001,5.8001,5.7978,5.7978,5.7978,5.799,5.8008,5.8008,5.8008,5.8008,5.8008,5.8008,5.8008,5.8008,5.8008,5.7978,5.7978,5.7978,5.7978,5.7978,5.7978,5.7978,5.7978,5.7978,5.7978,5.7978,5.7978,5.7978,5.7978,5.7978,5.7978,5.7978,5.7978,5.7978,5.7978,5.7978,5.7978,5.7978,5.7978,5.7978,5.7978,5.7978,5.7978,5.7978,5.7978,5.7978,5.7978,5.7978,5.7978,5.7978,5.7978,5.7978,5.7978,5.7978,5.7978,5.7978,5.7978,5.9683,5.9298,5.9034,5.8813,5.8708,5.8772,5.8741,5.8698,5.8687,5.8687,5.8687,5.8687,5.8687,5.8687,5.8687,5.8687,5.8687,5.8687,5.8687,5.8687,5.8614,5.8553,5.8521,5.8526,5.8451,5.8407,5.8345,5.8275,5.8249,5.8111,5.8042,5.8024,5.8024,5.7978,5.7978,5.7978,5.7978,5.7978,5.7978,5.7978,5.7978,5.7978,5.7978,5.7978,5.7978,5.7978,5.799,5.7978,5.7978,5.7978,5.7978,5.7978,5.7978,5.7978,5.7978,5.7978,5.7978,5.7978,5.7978,5.7978,5.7978,5.7978,5.7978,5.7978,5.8008,5.8008,5.799,5.799,5.799,5.799,5.8008,5.8008,5.7978,5.7978,5.7978,5.7978,5.7978,5.7978,5.7978,5.7978,5.7978,5.7978,5.7978,5.7978,5.7978,5.7978,5.7978,5.7978,5.7978,5.7978,5.7978,5.7978,5.7978,5.7978,5.7978,5.7978,5.7978,5.7978,5.7978,5.7978,5.7978,5.7978,5.7978,5.7978,5.7978,5.7978,5.7978,5.7978,5.7978,5.7978,5.7978,5.7978,5.7978,5.7978,5.7978]}]]